<?xml version='1.0' encoding='UTF-8'?><gpx version="1.1" creator="JPX - https://github.com/jenetics/jpx" xmlns="http://www.topografix.com/GPX/1/1"><trk><trkseg><trkpt lat="36.85092199078884" lon="14.842173810324741"><ele>367.0</ele><time>2026-04-02T05:50:09Z</time></trkpt><trkpt lat="36.850899232095884" lon="14.842276315031995"><ele>367.0</ele><time>2026-04-02T05:50:10Z</time></trkpt><trkpt lat="36.85087338086743" lon="14.842383346803107"><ele>367.0</ele><time>2026-04-02T05:50:11Z</time></trkpt><trkpt lat="36.850847885715616" lon="14.842493199462417"><ele>367.0</ele><time>2026-04-02T05:50:12Z</time></trkpt><trkpt lat="36.850820596793575" lon="14.842602559404051"><ele>367.0</ele><time>2026-04-02T05:50:13Z</time></trkpt><trkpt lat="36.85079470137945" lon="14.842714006861037"><ele>367.5</ele><time>2026-04-02T05:50:14Z</time></trkpt><trkpt lat="36.85074465041291" lon="14.842944121239903"><ele>368.0</ele><time>2026-04-02T05:50:16Z</time></trkpt><trkpt lat="36.85072004263908" lon="14.843056712892865"><ele>368.5</ele><time>2026-04-02T05:50:17Z</time></trkpt><trkpt lat="36.85068988360474" lon="14.843177011146093"><ele>369.0</ele><time>2026-04-02T05:50:18.001Z</time></trkpt><trkpt lat="36.85065945805221" lon="14.843296131161368"><ele>369.0</ele><time>2026-04-02T05:50:19.001Z</time></trkpt><trkpt lat="36.85062878165035" lon="14.843413589343465"><ele>369.0</ele><time>2026-04-02T05:50:20.001Z</time></trkpt><trkpt lat="36.85060335997892" lon="14.843534991996147"><ele>369.0</ele><time>2026-04-02T05:50:21.001Z</time></trkpt><trkpt lat="36.85057678914802" lon="14.843644823113566"><ele>369.0</ele><time>2026-04-02T05:50:22.001Z</time></trkpt><trkpt lat="36.85054977606918" lon="14.843751056901857"><ele>369.0</ele><time>2026-04-02T05:50:23.001Z</time></trkpt><trkpt lat="36.85052487691102" lon="14.843855251454377"><ele>369.3333333333333</ele><time>2026-04-02T05:50:24.001Z</time></trkpt><trkpt lat="36.85050243690718" lon="14.843956860760946"><ele>369.6666666666667</ele><time>2026-04-02T05:50:25.001Z</time></trkpt><trkpt lat="36.85048120420536" lon="14.844059682660959"><ele>370.0</ele><time>2026-04-02T05:50:26.001Z</time></trkpt><trkpt lat="36.85045876567197" lon="14.844156435951298"><ele>370.33333333333337</ele><time>2026-04-02T05:50:27.001Z</time></trkpt><trkpt lat="36.850436333574734" lon="14.844255798909671"><ele>370.6666666666667</ele><time>2026-04-02T05:50:28.001Z</time></trkpt><trkpt lat="36.850414598838434" lon="14.844357728879578"><ele>371.0</ele><time>2026-04-02T05:50:29.001Z</time></trkpt><trkpt lat="36.85039203592771" lon="14.84444811832732"><ele>371.6</ele><time>2026-04-02T05:50:30.001Z</time></trkpt><trkpt lat="36.8503732201756" lon="14.844535360271138"><ele>372.20000000000005</ele><time>2026-04-02T05:50:31.001Z</time></trkpt><trkpt lat="36.8503383520447" lon="14.84468512595571"><ele>372.79999999999995</ele><time>2026-04-02T05:50:33.001Z</time></trkpt><trkpt lat="36.85031061190643" lon="14.844763569339147"><ele>373.4</ele><time>2026-04-02T05:50:34.001Z</time></trkpt><trkpt lat="36.85027451616354" lon="14.844909311071099"><ele>374.0</ele><time>2026-04-02T05:50:36.001Z</time></trkpt><trkpt lat="36.85024133248762" lon="14.84506570451118"><ele>374.33333333333337</ele><time>2026-04-02T05:50:38.001Z</time></trkpt><trkpt lat="36.85022810052403" lon="14.845159598848065"><ele>374.6666666666667</ele><time>2026-04-02T05:50:39.001Z</time></trkpt><trkpt lat="36.850215210889814" lon="14.845260252165899"><ele>375.0</ele><time>2026-04-02T05:50:40.001Z</time></trkpt><trkpt lat="36.85021122932571" lon="14.845363157743162"><ele>375.3333333333333</ele><time>2026-04-02T05:50:41.001Z</time></trkpt><trkpt lat="36.85021365000462" lon="14.845464695002782"><ele>375.66666666666663</ele><time>2026-04-02T05:50:42.001Z</time></trkpt><trkpt lat="36.85022338082181" lon="14.845565234268882"><ele>376.0</ele><time>2026-04-02T05:50:43.001Z</time></trkpt><trkpt lat="36.850233284565746" lon="14.845664653169933"><ele>376.0</ele><time>2026-04-02T05:50:44.001Z</time></trkpt><trkpt lat="36.850239580069164" lon="14.845765102914552"><ele>376.0</ele><time>2026-04-02T05:50:45.001Z</time></trkpt><trkpt lat="36.85023682688774" lon="14.84587089372295"><ele>376.0</ele><time>2026-04-02T05:50:46.001Z</time></trkpt><trkpt lat="36.85022429598532" lon="14.84598335228674"><ele>376.0</ele><time>2026-04-02T05:50:47.001Z</time></trkpt><trkpt lat="36.85021220758985" lon="14.846101559901841"><ele>376.0</ele><time>2026-04-02T05:50:48.001Z</time></trkpt><trkpt lat="36.85019998235703" lon="14.84622781432424"><ele>376.20000000000005</ele><time>2026-04-02T05:50:49.001Z</time></trkpt><trkpt lat="36.85018650293241" lon="14.846359513754566"><ele>376.40000000000003</ele><time>2026-04-02T05:50:50.001Z</time></trkpt><trkpt lat="36.85017432294283" lon="14.846492078350282"><ele>376.6</ele><time>2026-04-02T05:50:51.001Z</time></trkpt><trkpt lat="36.85016389029793" lon="14.846628292194952"><ele>376.8</ele><time>2026-04-02T05:50:52.001Z</time></trkpt><trkpt lat="36.85015241685532" lon="14.84676740176466"><ele>377.0</ele><time>2026-04-02T05:50:53.001Z</time></trkpt><trkpt lat="36.850139335395426" lon="14.846910759673428"><ele>376.25</ele><time>2026-04-02T05:50:54.001Z</time></trkpt><trkpt lat="36.850123024036954" lon="14.84705484707529"><ele>375.5</ele><time>2026-04-02T05:50:55.001Z</time></trkpt><trkpt lat="36.850105135641954" lon="14.847204280160614"><ele>374.75</ele><time>2026-04-02T05:50:56.001Z</time></trkpt><trkpt lat="36.85009051539757" lon="14.847356049834517"><ele>374.0</ele><time>2026-04-02T05:50:57.001Z</time></trkpt><trkpt lat="36.850079609819325" lon="14.84751025743566"><ele>374.25</ele><time>2026-04-02T05:50:58.001Z</time></trkpt><trkpt lat="36.850068409729026" lon="14.847664965461943"><ele>374.5</ele><time>2026-04-02T05:50:59.001Z</time></trkpt><trkpt lat="36.85005439348534" lon="14.847821922420547"><ele>374.75</ele><time>2026-04-02T05:51:00.001Z</time></trkpt><trkpt lat="36.85003986082973" lon="14.84797841810334"><ele>375.0</ele><time>2026-04-02T05:51:01.001Z</time></trkpt><trkpt lat="36.85001856542398" lon="14.848139226855324"><ele>375.0</ele><time>2026-04-02T05:51:02.001Z</time></trkpt><trkpt lat="36.850000720547165" lon="14.848298604590626"><ele>375.0</ele><time>2026-04-02T05:51:03.001Z</time></trkpt><trkpt lat="36.849981945705125" lon="14.848465764766832"><ele>375.0</ele><time>2026-04-02T05:51:04.001Z</time></trkpt><trkpt lat="36.84996468786166" lon="14.848626127885131"><ele>375.0</ele><time>2026-04-02T05:51:05.001Z</time></trkpt><trkpt lat="36.84994760208947" lon="14.848788147720484"><ele>375.0</ele><time>2026-04-02T05:51:06.001Z</time></trkpt><trkpt lat="36.84993514929816" lon="14.848962870839772"><ele>375.0</ele><time>2026-04-02T05:51:07.001Z</time></trkpt><trkpt lat="36.849917603680936" lon="14.849123556661887"><ele>375.0</ele><time>2026-04-02T05:51:08.001Z</time></trkpt><trkpt lat="36.84990033189598" lon="14.849288014606037"><ele>375.0</ele><time>2026-04-02T05:51:09.001Z</time></trkpt><trkpt lat="36.84988383683758" lon="14.849454894843696"><ele>375.0</ele><time>2026-04-02T05:51:10.001Z</time></trkpt><trkpt lat="36.849864846318766" lon="14.849624138862724"><ele>375.0</ele><time>2026-04-02T05:51:11.001Z</time></trkpt><trkpt lat="36.849848748273644" lon="14.849794020879882"><ele>375.0</ele><time>2026-04-02T05:51:12.001Z</time></trkpt><trkpt lat="36.8498358183981" lon="14.84996416953475"><ele>375.0</ele><time>2026-04-02T05:51:13.001Z</time></trkpt><trkpt lat="36.84983652802749" lon="14.850131101634512"><ele>375.75</ele><time>2026-04-02T05:51:14.001Z</time></trkpt><trkpt lat="36.84986230555927" lon="14.850298172770662"><ele>376.5</ele><time>2026-04-02T05:51:15.001Z</time></trkpt><trkpt lat="36.8499082813219" lon="14.85046009985746"><ele>377.25</ele><time>2026-04-02T05:51:16Z</time></trkpt><trkpt lat="36.84998288220721" lon="14.850614024055272"><ele>378.0</ele><time>2026-04-02T05:51:17Z</time></trkpt><trkpt lat="36.8500572657707" lon="14.850772080401008"><ele>377.75</ele><time>2026-04-02T05:51:18Z</time></trkpt><trkpt lat="36.85013238189334" lon="14.850926347393813"><ele>377.5</ele><time>2026-04-02T05:51:19Z</time></trkpt><trkpt lat="36.85020423114037" lon="14.851081319165674"><ele>377.25</ele><time>2026-04-02T05:51:20Z</time></trkpt><trkpt lat="36.85027969335389" lon="14.851236137478724"><ele>377.0</ele><time>2026-04-02T05:51:21Z</time></trkpt><trkpt lat="36.850364205424654" lon="14.851380323853702"><ele>377.0</ele><time>2026-04-02T05:51:22Z</time></trkpt><trkpt lat="36.85045621333798" lon="14.851522534792306"><ele>377.0</ele><time>2026-04-02T05:51:23Z</time></trkpt><trkpt lat="36.85055281756966" lon="14.85166414290503"><ele>377.0</ele><time>2026-04-02T05:51:24Z</time></trkpt><trkpt lat="36.850648899477235" lon="14.85180830389842"><ele>377.0</ele><time>2026-04-02T05:51:25Z</time></trkpt><trkpt lat="36.85074724075297" lon="14.851953441355175"><ele>377.0</ele><time>2026-04-02T05:51:26Z</time></trkpt><trkpt lat="36.85084328627541" lon="14.85209241950892"><ele>377.0</ele><time>2026-04-02T05:51:27Z</time></trkpt><trkpt lat="36.850940092855396" lon="14.852230415801582"><ele>377.0</ele><time>2026-04-02T05:51:28Z</time></trkpt><trkpt lat="36.851025347219164" lon="14.852375637787565"><ele>377.0</ele><time>2026-04-02T05:51:29Z</time></trkpt><trkpt lat="36.85109620952144" lon="14.852537046549045"><ele>376.33333333333337</ele><time>2026-04-02T05:51:30Z</time></trkpt><trkpt lat="36.851164305875734" lon="14.852701339078235"><ele>375.6666666666667</ele><time>2026-04-02T05:51:31Z</time></trkpt><trkpt lat="36.851225227211884" lon="14.852878541468021"><ele>375.0</ele><time>2026-04-02T05:51:32Z</time></trkpt><trkpt lat="36.85128821856315" lon="14.853048491537821"><ele>375.0</ele><time>2026-04-02T05:51:33Z</time></trkpt><trkpt lat="36.851348427738486" lon="14.853218944696465"><ele>375.0</ele><time>2026-04-02T05:51:34Z</time></trkpt><trkpt lat="36.851409678865316" lon="14.853393173426715"><ele>375.0</ele><time>2026-04-02T05:51:35Z</time></trkpt><trkpt lat="36.851470511588104" lon="14.853566899630094"><ele>375.0</ele><time>2026-04-02T05:51:36Z</time></trkpt><trkpt lat="36.85153143359498" lon="14.853735452057984"><ele>375.0</ele><time>2026-04-02T05:51:37Z</time></trkpt><trkpt lat="36.85158942579562" lon="14.853908833930788"><ele>375.0</ele><time>2026-04-02T05:51:38Z</time></trkpt><trkpt lat="36.85164706084951" lon="14.854077016414143"><ele>375.0</ele><time>2026-04-02T05:51:39Z</time></trkpt><trkpt lat="36.85170525037014" lon="14.854244391626839"><ele>375.25</ele><time>2026-04-02T05:51:40Z</time></trkpt><trkpt lat="36.851760592141176" lon="14.854409807610121"><ele>375.5</ele><time>2026-04-02T05:51:41Z</time></trkpt><trkpt lat="36.851812013667946" lon="14.854578122786696"><ele>375.75</ele><time>2026-04-02T05:51:42Z</time></trkpt><trkpt lat="36.851867509740416" lon="14.854735323421952"><ele>376.0</ele><time>2026-04-02T05:51:43Z</time></trkpt><trkpt lat="36.851925931191786" lon="14.85489258421098"><ele>375.0</ele><time>2026-04-02T05:51:44Z</time></trkpt><trkpt lat="36.8519905779959" lon="14.855048226756715"><ele>374.0</ele><time>2026-04-02T05:51:45Z</time></trkpt><trkpt lat="36.85206235522189" lon="14.855201804308612"><ele>373.0</ele><time>2026-04-02T05:51:46Z</time></trkpt><trkpt lat="36.852138605831094" lon="14.855354702145599"><ele>372.0</ele><time>2026-04-02T05:51:47Z</time></trkpt><trkpt lat="36.85221806759749" lon="14.85551097986411"><ele>372.0</ele><time>2026-04-02T05:51:48Z</time></trkpt><trkpt lat="36.85230613777841" lon="14.855696413147408"><ele>372.0</ele><time>2026-04-02T05:51:49Z</time></trkpt><trkpt lat="36.852380050240846" lon="14.855839139070913"><ele>372.0</ele><time>2026-04-02T05:51:50Z</time></trkpt><trkpt lat="36.852462859244426" lon="14.856001022729636"><ele>372.0</ele><time>2026-04-02T05:51:51Z</time></trkpt><trkpt lat="36.85254489081896" lon="14.856167045002985"><ele>372.0</ele><time>2026-04-02T05:51:52Z</time></trkpt><trkpt lat="36.852629509863085" lon="14.85633032791783"><ele>372.0</ele><time>2026-04-02T05:51:53Z</time></trkpt><trkpt lat="36.85271762949521" lon="14.856491563693332"><ele>371.3333333333333</ele><time>2026-04-02T05:51:54Z</time></trkpt><trkpt lat="36.85280725814551" lon="14.856650369281725"><ele>370.66666666666663</ele><time>2026-04-02T05:51:55Z</time></trkpt><trkpt lat="36.85289102889293" lon="14.856809743193782"><ele>370.0</ele><time>2026-04-02T05:51:56Z</time></trkpt><trkpt lat="36.85297792857207" lon="14.856967947784245"><ele>370.0</ele><time>2026-04-02T05:51:57Z</time></trkpt><trkpt lat="36.85306576456133" lon="14.857128712045597"><ele>370.0</ele><time>2026-04-02T05:51:58Z</time></trkpt><trkpt lat="36.85315372456425" lon="14.857291852209624"><ele>370.0</ele><time>2026-04-02T05:51:59Z</time></trkpt><trkpt lat="36.85324415431757" lon="14.857451743084267"><ele>370.0</ele><time>2026-04-02T05:52:00Z</time></trkpt><trkpt lat="36.853334621621634" lon="14.85761291503798"><ele>370.0</ele><time>2026-04-02T05:52:01Z</time></trkpt><trkpt lat="36.85342252614688" lon="14.857771255337587"><ele>370.0</ele><time>2026-04-02T05:52:02Z</time></trkpt><trkpt lat="36.85351002809538" lon="14.857927798697496"><ele>369.0</ele><time>2026-04-02T05:52:03Z</time></trkpt><trkpt lat="36.853596318422" lon="14.85808184205915"><ele>368.0</ele><time>2026-04-02T05:52:04Z</time></trkpt><trkpt lat="36.85368210237467" lon="14.858235945069348"><ele>367.0</ele><time>2026-04-02T05:52:05Z</time></trkpt><trkpt lat="36.85377531247382" lon="14.85838681594228"><ele>367.0</ele><time>2026-04-02T05:52:06Z</time></trkpt><trkpt lat="36.853880429502375" lon="14.858530041139415"><ele>367.0</ele><time>2026-04-02T05:52:07Z</time></trkpt><trkpt lat="36.85398738222781" lon="14.858670459359447"><ele>367.0</ele><time>2026-04-02T05:52:08Z</time></trkpt><trkpt lat="36.85410190937251" lon="14.858803280355382"><ele>367.0</ele><time>2026-04-02T05:52:09Z</time></trkpt><trkpt lat="36.85421443115278" lon="14.858939604808382"><ele>367.0</ele><time>2026-04-02T05:52:10Z</time></trkpt><trkpt lat="36.85432726519248" lon="14.85907670416244"><ele>367.0</ele><time>2026-04-02T05:52:11Z</time></trkpt><trkpt lat="36.8544363015922" lon="14.859213215446683"><ele>365.3333333333333</ele><time>2026-04-02T05:52:12Z</time></trkpt><trkpt lat="36.854546958196906" lon="14.859348838658505"><ele>363.6666666666667</ele><time>2026-04-02T05:52:13.001Z</time></trkpt><trkpt lat="36.8546628991421" lon="14.859480156140531"><ele>362.0</ele><time>2026-04-02T05:52:14.001Z</time></trkpt><trkpt lat="36.85478436758454" lon="14.85960189826366"><ele>362.0</ele><time>2026-04-02T05:52:15.001Z</time></trkpt><trkpt lat="36.854912333895705" lon="14.859713979074352"><ele>362.0</ele><time>2026-04-02T05:52:16.001Z</time></trkpt><trkpt lat="36.85504754762429" lon="14.85981371330074"><ele>362.0</ele><time>2026-04-02T05:52:17.001Z</time></trkpt><trkpt lat="36.8551821231407" lon="14.859908547530338"><ele>362.33333333333337</ele><time>2026-04-02T05:52:18.001Z</time></trkpt><trkpt lat="36.855316659076806" lon="14.860004764143008"><ele>362.6666666666667</ele><time>2026-04-02T05:52:19.001Z</time></trkpt><trkpt lat="36.855451771003295" lon="14.860100487246314"><ele>363.0</ele><time>2026-04-02T05:52:20.001Z</time></trkpt><trkpt lat="36.85558776777302" lon="14.860197965804156"><ele>363.0</ele><time>2026-04-02T05:52:21.001Z</time></trkpt><trkpt lat="36.85572320612553" lon="14.860297260950981"><ele>363.0</ele><time>2026-04-02T05:52:22.001Z</time></trkpt><trkpt lat="36.85585886242854" lon="14.8603939806608"><ele>363.0</ele><time>2026-04-02T05:52:23.001Z</time></trkpt><trkpt lat="36.85599488241949" lon="14.86048833987611"><ele>363.3333333333333</ele><time>2026-04-02T05:52:24.001Z</time></trkpt><trkpt lat="36.85612913909352" lon="14.860581203313172"><ele>363.66666666666663</ele><time>2026-04-02T05:52:25.001Z</time></trkpt><trkpt lat="36.856268271897065" lon="14.860679194198472"><ele>364.0</ele><time>2026-04-02T05:52:26.001Z</time></trkpt><trkpt lat="36.8563964373674" lon="14.860763730606138"><ele>364.0</ele><time>2026-04-02T05:52:27.001Z</time></trkpt><trkpt lat="36.856533633823055" lon="14.860844630028843"><ele>364.0</ele><time>2026-04-02T05:52:28.001Z</time></trkpt><trkpt lat="36.8566701103269" lon="14.8609224759346"><ele>364.0</ele><time>2026-04-02T05:52:29Z</time></trkpt><trkpt lat="36.85681583179428" lon="14.860996392700846"><ele>366.66666666666663</ele><time>2026-04-02T05:52:30Z</time></trkpt><trkpt lat="36.85695731722115" lon="14.861063233895319"><ele>369.3333333333333</ele><time>2026-04-02T05:52:31Z</time></trkpt><trkpt lat="36.857100785896186" lon="14.861125416461352"><ele>372.0</ele><time>2026-04-02T05:52:32Z</time></trkpt><trkpt lat="36.85724593324215" lon="14.861183766388756"><ele>372.0</ele><time>2026-04-02T05:52:33Z</time></trkpt><trkpt lat="36.85738715877854" lon="14.861240490643691"><ele>372.0</ele><time>2026-04-02T05:52:34Z</time></trkpt><trkpt lat="36.85753073291319" lon="14.861294301726264"><ele>372.0</ele><time>2026-04-02T05:52:35Z</time></trkpt><trkpt lat="36.85767238316985" lon="14.86134090094859"><ele>372.0</ele><time>2026-04-02T05:52:36Z</time></trkpt><trkpt lat="36.857817804488384" lon="14.861381883626146"><ele>372.25</ele><time>2026-04-02T05:52:37Z</time></trkpt><trkpt lat="36.857964307173475" lon="14.861406150605102"><ele>372.5</ele><time>2026-04-02T05:52:38Z</time></trkpt><trkpt lat="36.85810976189105" lon="14.861429191165627"><ele>372.75</ele><time>2026-04-02T05:52:39Z</time></trkpt><trkpt lat="36.858256927865135" lon="14.86145584717738"><ele>373.0</ele><time>2026-04-02T05:52:40Z</time></trkpt><trkpt lat="36.85840250272873" lon="14.861483579167277"><ele>373.5</ele><time>2026-04-02T05:52:41Z</time></trkpt><trkpt lat="36.85854850630987" lon="14.861512108634914"><ele>374.0</ele><time>2026-04-02T05:52:42Z</time></trkpt><trkpt lat="36.85869527007154" lon="14.861537083080856"><ele>374.5</ele><time>2026-04-02T05:52:43Z</time></trkpt><trkpt lat="36.85883893256749" lon="14.861559607854995"><ele>375.0</ele><time>2026-04-02T05:52:44Z</time></trkpt><trkpt lat="36.85898298354471" lon="14.861582110426784"><ele>375.0</ele><time>2026-04-02T05:52:45Z</time></trkpt><trkpt lat="36.859125675933136" lon="14.861607281525876"><ele>375.0</ele><time>2026-04-02T05:52:46Z</time></trkpt><trkpt lat="36.859270373710046" lon="14.861634329005598"><ele>375.0</ele><time>2026-04-02T05:52:47Z</time></trkpt><trkpt lat="36.859413939184186" lon="14.861661225843308"><ele>375.0</ele><time>2026-04-02T05:52:48Z</time></trkpt><trkpt lat="36.85955992777234" lon="14.861689821462294"><ele>375.5</ele><time>2026-04-02T05:52:49Z</time></trkpt><trkpt lat="36.8597057372902" lon="14.861720510744242"><ele>376.0</ele><time>2026-04-02T05:52:50Z</time></trkpt><trkpt lat="36.85984942464238" lon="14.86176073859849"><ele>376.5</ele><time>2026-04-02T05:52:51Z</time></trkpt><trkpt lat="36.859989924823836" lon="14.861807961785136"><ele>377.0</ele><time>2026-04-02T05:52:52Z</time></trkpt><trkpt lat="36.86013131941417" lon="14.861859131730997"><ele>377.5</ele><time>2026-04-02T05:52:53Z</time></trkpt><trkpt lat="36.860268410967834" lon="14.861914664481146"><ele>378.0</ele><time>2026-04-02T05:52:54Z</time></trkpt><trkpt lat="36.86040567687235" lon="14.861973083111335"><ele>378.5</ele><time>2026-04-02T05:52:55Z</time></trkpt><trkpt lat="36.86054198217183" lon="14.862031289666225"><ele>379.0</ele><time>2026-04-02T05:52:56Z</time></trkpt><trkpt lat="36.86068009827603" lon="14.862092630275843"><ele>379.0</ele><time>2026-04-02T05:52:57Z</time></trkpt><trkpt lat="36.86081912271397" lon="14.862152370203003"><ele>379.0</ele><time>2026-04-02T05:52:58Z</time></trkpt><trkpt lat="36.86095826701417" lon="14.862210324663238"><ele>379.0</ele><time>2026-04-02T05:52:59Z</time></trkpt><trkpt lat="36.861097872713216" lon="14.862267712633862"><ele>379.0</ele><time>2026-04-02T05:53:00Z</time></trkpt><trkpt lat="36.86123585963162" lon="14.862328502002983"><ele>379.75</ele><time>2026-04-02T05:53:01Z</time></trkpt><trkpt lat="36.86137419953959" lon="14.862390379113899"><ele>380.5</ele><time>2026-04-02T05:53:02Z</time></trkpt><trkpt lat="36.86151197775102" lon="14.86244860700692"><ele>381.25</ele><time>2026-04-02T05:53:03Z</time></trkpt><trkpt lat="36.86164917683538" lon="14.862504417927532"><ele>382.0</ele><time>2026-04-02T05:53:04Z</time></trkpt><trkpt lat="36.86178850477135" lon="14.862560141761056"><ele>382.75</ele><time>2026-04-02T05:53:05Z</time></trkpt><trkpt lat="36.861928273295845" lon="14.862618846429918"><ele>383.5</ele><time>2026-04-02T05:53:06Z</time></trkpt><trkpt lat="36.862067676171975" lon="14.862678772154773"><ele>384.25</ele><time>2026-04-02T05:53:07Z</time></trkpt><trkpt lat="36.862206802017916" lon="14.8627406543084"><ele>385.0</ele><time>2026-04-02T05:53:08Z</time></trkpt><trkpt lat="36.86234361554419" lon="14.86280443287562"><ele>385.0</ele><time>2026-04-02T05:53:08.999Z</time></trkpt><trkpt lat="36.86247817359262" lon="14.862873926359782"><ele>385.0</ele><time>2026-04-02T05:53:09.999Z</time></trkpt><trkpt lat="36.86260899327412" lon="14.86295003700525"><ele>385.0</ele><time>2026-04-02T05:53:10.999Z</time></trkpt><trkpt lat="36.86273819282363" lon="14.863029904546659"><ele>385.0</ele><time>2026-04-02T05:53:11.999Z</time></trkpt><trkpt lat="36.86286436976296" lon="14.86311300870321"><ele>385.25</ele><time>2026-04-02T05:53:12.999Z</time></trkpt><trkpt lat="36.862989438522014" lon="14.863199206220315"><ele>385.5</ele><time>2026-04-02T05:53:13.999Z</time></trkpt><trkpt lat="36.863111629549515" lon="14.863286383428813"><ele>385.75</ele><time>2026-04-02T05:53:14.999Z</time></trkpt><trkpt lat="36.86322954854246" lon="14.863368162363368"><ele>386.0</ele><time>2026-04-02T05:53:15.999Z</time></trkpt><trkpt lat="36.863346002493536" lon="14.863438487110217"><ele>385.75</ele><time>2026-04-02T05:53:16.999Z</time></trkpt><trkpt lat="36.86346694195568" lon="14.863485179542273"><ele>385.5</ele><time>2026-04-02T05:53:17.999Z</time></trkpt><trkpt lat="36.86359464449719" lon="14.863510460201912"><ele>385.25</ele><time>2026-04-02T05:53:18.999Z</time></trkpt><trkpt lat="36.86372526325584" lon="14.863511663685331"><ele>385.0</ele><time>2026-04-02T05:53:19.999Z</time></trkpt><trkpt lat="36.8638575839679" lon="14.863516116085114"><ele>385.0</ele><time>2026-04-02T05:53:20.999Z</time></trkpt><trkpt lat="36.863989678841904" lon="14.863535413153297"><ele>385.0</ele><time>2026-04-02T05:53:21.999Z</time></trkpt><trkpt lat="36.86411989201904" lon="14.863570551497993"><ele>385.0</ele><time>2026-04-02T05:53:22.999Z</time></trkpt><trkpt lat="36.86424873285092" lon="14.86361793691771"><ele>385.0</ele><time>2026-04-02T05:53:23.999Z</time></trkpt><trkpt lat="36.86437533261891" lon="14.863670200097141"><ele>385.5</ele><time>2026-04-02T05:53:24.999Z</time></trkpt><trkpt lat="36.864498937966204" lon="14.86371990276112"><ele>386.0</ele><time>2026-04-02T05:53:25.999Z</time></trkpt><trkpt lat="36.864620256039366" lon="14.863769838157301"><ele>386.5</ele><time>2026-04-02T05:53:26.999Z</time></trkpt><trkpt lat="36.86473311500527" lon="14.863818881247859"><ele>387.0</ele><time>2026-04-02T05:53:27.999Z</time></trkpt><trkpt lat="36.86484257457528" lon="14.863864810184774"><ele>387.0</ele><time>2026-04-02T05:53:28.999Z</time></trkpt><trkpt lat="36.86494624554358" lon="14.863909507954778"><ele>387.0</ele><time>2026-04-02T05:53:29.999Z</time></trkpt><trkpt lat="36.86504283297919" lon="14.863903689453435"><ele>387.0</ele><time>2026-04-02T05:53:30.999Z</time></trkpt><trkpt lat="36.865131265292376" lon="14.864027541686545"><ele>387.0</ele><time>2026-04-02T05:53:31.999Z</time></trkpt><trkpt lat="36.865204619207255" lon="14.864109704669282"><ele>387.0</ele><time>2026-04-02T05:53:32.999Z</time></trkpt><trkpt lat="36.865266870594006" lon="14.864210202550133"><ele>386.5</ele><time>2026-04-02T05:53:33.999Z</time></trkpt><trkpt lat="36.86532151322955" lon="14.864324971031156"><ele>386.0</ele><time>2026-04-02T05:53:34.999Z</time></trkpt><trkpt lat="36.865378115409435" lon="14.86444428727219"><ele>385.5</ele><time>2026-04-02T05:53:35.999Z</time></trkpt><trkpt lat="36.8654372602604" lon="14.864568966751495"><ele>385.0</ele><time>2026-04-02T05:53:36.999Z</time></trkpt><trkpt lat="36.86549727982216" lon="14.864695515911515"><ele>385.0</ele><time>2026-04-02T05:53:37.999Z</time></trkpt><trkpt lat="36.8655588984718" lon="14.864820345338606"><ele>385.0</ele><time>2026-04-02T05:53:38.999Z</time></trkpt><trkpt lat="36.865622113325664" lon="14.864950396540493"><ele>385.0</ele><time>2026-04-02T05:53:39.999Z</time></trkpt><trkpt lat="36.86568714530359" lon="14.865085050275123"><ele>385.0</ele><time>2026-04-02T05:53:40.999Z</time></trkpt><trkpt lat="36.86575046995308" lon="14.865218094012524"><ele>385.0</ele><time>2026-04-02T05:53:41.999Z</time></trkpt><trkpt lat="36.86581336344442" lon="14.865351359957398"><ele>385.0</ele><time>2026-04-02T05:53:42.999Z</time></trkpt><trkpt lat="36.86587668389183" lon="14.865479560151673"><ele>385.0</ele><time>2026-04-02T05:53:43.999Z</time></trkpt><trkpt lat="36.86594709503686" lon="14.865598128604548"><ele>385.0</ele><time>2026-04-02T05:53:44.999Z</time></trkpt><trkpt lat="36.866021738315915" lon="14.865713113892456"><ele>384.75</ele><time>2026-04-02T05:53:45.999Z</time></trkpt><trkpt lat="36.86610447935623" lon="14.865829445514052"><ele>384.5</ele><time>2026-04-02T05:53:46.999Z</time></trkpt><trkpt lat="36.86619330440933" lon="14.865943833070622"><ele>384.25</ele><time>2026-04-02T05:53:47.999Z</time></trkpt><trkpt lat="36.866289538630866" lon="14.866056748437154"><ele>384.0</ele><time>2026-04-02T05:53:48.999Z</time></trkpt><trkpt lat="36.866390943312076" lon="14.86617201475983"><ele>383.5</ele><time>2026-04-02T05:53:49.999Z</time></trkpt><trkpt lat="36.86649353364402" lon="14.86628385654329"><ele>383.0</ele><time>2026-04-02T05:53:50.999Z</time></trkpt><trkpt lat="36.86659866922806" lon="14.866393171567966"><ele>382.5</ele><time>2026-04-02T05:53:51.999Z</time></trkpt><trkpt lat="36.86670622248311" lon="14.866502259345115"><ele>382.0</ele><time>2026-04-02T05:53:52.999Z</time></trkpt><trkpt lat="36.86681594931503" lon="14.86661142619985"><ele>382.0</ele><time>2026-04-02T05:53:53.999Z</time></trkpt><trkpt lat="36.866924516811295" lon="14.866725810605109"><ele>382.0</ele><time>2026-04-02T05:53:54.999Z</time></trkpt><trkpt lat="36.8670361804882" lon="14.866836595217176"><ele>382.0</ele><time>2026-04-02T05:53:55.999Z</time></trkpt><trkpt lat="36.8671478681544" lon="14.866947985981488"><ele>382.0</ele><time>2026-04-02T05:53:56.999Z</time></trkpt><trkpt lat="36.86725989893338" lon="14.867059302843689"><ele>381.75</ele><time>2026-04-02T05:53:57.999Z</time></trkpt><trkpt lat="36.867371646520446" lon="14.867167396110892"><ele>381.5</ele><time>2026-04-02T05:53:58.999Z</time></trkpt><trkpt lat="36.867481363717815" lon="14.86727821310509"><ele>381.25</ele><time>2026-04-02T05:53:59.999Z</time></trkpt><trkpt lat="36.86759236011615" lon="14.86738866803735"><ele>381.0</ele><time>2026-04-02T05:54:00.999Z</time></trkpt><trkpt lat="36.86770146855372" lon="14.867496496774635"><ele>381.0</ele><time>2026-04-02T05:54:01.999Z</time></trkpt><trkpt lat="36.86780668501061" lon="14.86760724405657"><ele>381.0</ele><time>2026-04-02T05:54:02.999Z</time></trkpt><trkpt lat="36.86791166971026" lon="14.867721744328081"><ele>381.0</ele><time>2026-04-02T05:54:03.999Z</time></trkpt><trkpt lat="36.86801282989214" lon="14.86783230597512"><ele>381.0</ele><time>2026-04-02T05:54:04.999Z</time></trkpt><trkpt lat="36.868110678432245" lon="14.867945735809581"><ele>380.5</ele><time>2026-04-02T05:54:05.999Z</time></trkpt><trkpt lat="36.86820877809662" lon="14.868062571389082"><ele>380.0</ele><time>2026-04-02T05:54:06.999Z</time></trkpt><trkpt lat="36.86830732648229" lon="14.868181182934672"><ele>379.5</ele><time>2026-04-02T05:54:07.999Z</time></trkpt><trkpt lat="36.86840161780738" lon="14.868301188395236"><ele>379.0</ele><time>2026-04-02T05:54:08.999Z</time></trkpt><trkpt lat="36.868487061803584" lon="14.868428432480194"><ele>378.0</ele><time>2026-04-02T05:54:09.999Z</time></trkpt><trkpt lat="36.86856407549817" lon="14.86856299048441"><ele>377.0</ele><time>2026-04-02T05:54:10.999Z</time></trkpt><trkpt lat="36.86863441904969" lon="14.86869378949456"><ele>376.0</ele><time>2026-04-02T05:54:11.999Z</time></trkpt><trkpt lat="36.868711422789794" lon="14.868820636562763"><ele>375.0</ele><time>2026-04-02T05:54:12.999Z</time></trkpt><trkpt lat="36.86879499269107" lon="14.868934583273024"><ele>375.0</ele><time>2026-04-02T05:54:13.999Z</time></trkpt><trkpt lat="36.868885652144634" lon="14.869036714942727"><ele>375.0</ele><time>2026-04-02T05:54:14.999Z</time></trkpt><trkpt lat="36.868989771861784" lon="14.869125610963987"><ele>375.0</ele><time>2026-04-02T05:54:15.999Z</time></trkpt><trkpt lat="36.869107814566796" lon="14.8691992169433"><ele>375.0</ele><time>2026-04-02T05:54:16.999Z</time></trkpt><trkpt lat="36.869232195639555" lon="14.869268919413996"><ele>374.25</ele><time>2026-04-02T05:54:17.999Z</time></trkpt><trkpt lat="36.86935950338798" lon="14.869340085937003"><ele>373.5</ele><time>2026-04-02T05:54:19Z</time></trkpt><trkpt lat="36.86948984840439" lon="14.869408883537357"><ele>372.75</ele><time>2026-04-02T05:54:20Z</time></trkpt><trkpt lat="36.86962177346604" lon="14.869477588314508"><ele>372.0</ele><time>2026-04-02T05:54:21Z</time></trkpt><trkpt lat="36.86975408018559" lon="14.869545206860986"><ele>372.0</ele><time>2026-04-02T05:54:22Z</time></trkpt><trkpt lat="36.86988497889804" lon="14.869608924704897"><ele>372.0</ele><time>2026-04-02T05:54:23Z</time></trkpt><trkpt lat="36.870013813305576" lon="14.86967280634708"><ele>372.0</ele><time>2026-04-02T05:54:24Z</time></trkpt><trkpt lat="36.870144106457595" lon="14.869734383900731"><ele>372.0</ele><time>2026-04-02T05:54:25Z</time></trkpt><trkpt lat="36.8702732959267" lon="14.869793921286965"><ele>371.5</ele><time>2026-04-02T05:54:26Z</time></trkpt><trkpt lat="36.87040122930218" lon="14.869856309975775"><ele>371.0</ele><time>2026-04-02T05:54:27Z</time></trkpt><trkpt lat="36.870529712960895" lon="14.869919416383304"><ele>370.5</ele><time>2026-04-02T05:54:28Z</time></trkpt><trkpt lat="36.87065721105593" lon="14.869979943233448"><ele>370.0</ele><time>2026-04-02T05:54:29Z</time></trkpt><trkpt lat="36.87078225980657" lon="14.87004033502602"><ele>370.0</ele><time>2026-04-02T05:54:30Z</time></trkpt><trkpt lat="36.870908599174285" lon="14.870102644468158"><ele>370.0</ele><time>2026-04-02T05:54:31Z</time></trkpt><trkpt lat="36.87103496488966" lon="14.870167254999025"><ele>370.0</ele><time>2026-04-02T05:54:32Z</time></trkpt><trkpt lat="36.87115789764451" lon="14.870237912847099"><ele>370.0</ele><time>2026-04-02T05:54:33Z</time></trkpt><trkpt lat="36.87127670261069" lon="14.870314285479406"><ele>369.0</ele><time>2026-04-02T05:54:34Z</time></trkpt><trkpt lat="36.87139470707384" lon="14.870391657094446"><ele>368.0</ele><time>2026-04-02T05:54:35Z</time></trkpt><trkpt lat="36.87150973314351" lon="14.870470512653558"><ele>367.0</ele><time>2026-04-02T05:54:36Z</time></trkpt><trkpt lat="36.871624465158206" lon="14.870547249012882"><ele>366.0</ele><time>2026-04-02T05:54:37Z</time></trkpt><trkpt lat="36.87173598921218" lon="14.870630199488001"><ele>365.5</ele><time>2026-04-02T05:54:38Z</time></trkpt><trkpt lat="36.87184788804598" lon="14.870711104718364"><ele>365.0</ele><time>2026-04-02T05:54:39Z</time></trkpt><trkpt lat="36.8719634578691" lon="14.87078574628837"><ele>364.5</ele><time>2026-04-02T05:54:40Z</time></trkpt><trkpt lat="36.872087480581165" lon="14.870846211100119"><ele>364.0</ele><time>2026-04-02T05:54:41Z</time></trkpt><trkpt lat="36.872217279797106" lon="14.87089580078852"><ele>364.0</ele><time>2026-04-02T05:54:42Z</time></trkpt><trkpt lat="36.872352410485576" lon="14.870928368244128"><ele>364.0</ele><time>2026-04-02T05:54:43Z</time></trkpt><trkpt lat="36.87248791211653" lon="14.870953885705058"><ele>364.0</ele><time>2026-04-02T05:54:44Z</time></trkpt><trkpt lat="36.872622243749575" lon="14.870983532435652"><ele>364.0</ele><time>2026-04-02T05:54:45Z</time></trkpt><trkpt lat="36.87275717940704" lon="14.871012816462821"><ele>364.0</ele><time>2026-04-02T05:54:46Z</time></trkpt><trkpt lat="36.87288937448852" lon="14.871036574145707"><ele>364.0</ele><time>2026-04-02T05:54:47Z</time></trkpt><trkpt lat="36.87302124570432" lon="14.871066866871226"><ele>364.0</ele><time>2026-04-02T05:54:48Z</time></trkpt><trkpt lat="36.873149541288704" lon="14.871097871360075"><ele>364.0</ele><time>2026-04-02T05:54:49Z</time></trkpt><trkpt lat="36.87327603660021" lon="14.871126432495705"><ele>364.0</ele><time>2026-04-02T05:54:50Z</time></trkpt><trkpt lat="36.873400185112224" lon="14.871150030661765"><ele>364.0</ele><time>2026-04-02T05:54:51Z</time></trkpt><trkpt lat="36.873525231028076" lon="14.871173677491347"><ele>364.0</ele><time>2026-04-02T05:54:52Z</time></trkpt><trkpt lat="36.873650250709616" lon="14.871188499475835"><ele>364.0</ele><time>2026-04-02T05:54:53Z</time></trkpt><trkpt lat="36.8737778675313" lon="14.871191518595817"><ele>364.25</ele><time>2026-04-02T05:54:54Z</time></trkpt><trkpt lat="36.87390953106689" lon="14.871198328643406"><ele>364.5</ele><time>2026-04-02T05:54:55Z</time></trkpt><trkpt lat="36.87404310307425" lon="14.871202386528909"><ele>364.75</ele><time>2026-04-02T05:54:56Z</time></trkpt><trkpt lat="36.874177461624335" lon="14.871207475590415"><ele>365.0</ele><time>2026-04-02T05:54:57Z</time></trkpt><trkpt lat="36.87431328730715" lon="14.871217302109917"><ele>364.5</ele><time>2026-04-02T05:54:58Z</time></trkpt><trkpt lat="36.874450130399936" lon="14.871228452766095"><ele>364.0</ele><time>2026-04-02T05:54:59Z</time></trkpt><trkpt lat="36.87458847900504" lon="14.87124627904046"><ele>363.5</ele><time>2026-04-02T05:55:00Z</time></trkpt><trkpt lat="36.874727430192145" lon="14.871262941784032"><ele>363.0</ele><time>2026-04-02T05:55:01Z</time></trkpt><trkpt lat="36.87486708886904" lon="14.87128093853462"><ele>363.0</ele><time>2026-04-02T05:55:02Z</time></trkpt><trkpt lat="36.87500281404041" lon="14.871301580293002"><ele>363.0</ele><time>2026-04-02T05:55:03Z</time></trkpt><trkpt lat="36.87513700010615" lon="14.871323156996418"><ele>363.0</ele><time>2026-04-02T05:55:04Z</time></trkpt><trkpt lat="36.87527557002728" lon="14.871349715122369"><ele>363.0</ele><time>2026-04-02T05:55:05Z</time></trkpt><trkpt lat="36.87541548929438" lon="14.871377734690489"><ele>362.75</ele><time>2026-04-02T05:55:06Z</time></trkpt><trkpt lat="36.87555117157811" lon="14.871409191045897"><ele>362.5</ele><time>2026-04-02T05:55:06.999Z</time></trkpt><trkpt lat="36.87568423969607" lon="14.871451610977111"><ele>362.25</ele><time>2026-04-02T05:55:07.999Z</time></trkpt><trkpt lat="36.87581673118006" lon="14.871503263830544"><ele>362.0</ele><time>2026-04-02T05:55:08.999Z</time></trkpt><trkpt lat="36.87595195730094" lon="14.871563122312338"><ele>361.5</ele><time>2026-04-02T05:55:09.999Z</time></trkpt><trkpt lat="36.87608729743811" lon="14.871624186752417"><ele>361.0</ele><time>2026-04-02T05:55:10.999Z</time></trkpt><trkpt lat="36.87622169171116" lon="14.871687255592242"><ele>360.5</ele><time>2026-04-02T05:55:11.999Z</time></trkpt><trkpt lat="36.876355528780856" lon="14.871753270712128"><ele>360.0</ele><time>2026-04-02T05:55:12.999Z</time></trkpt><trkpt lat="36.87648509463186" lon="14.871821759043062"><ele>360.0</ele><time>2026-04-02T05:55:13.999Z</time></trkpt><trkpt lat="36.876607794512125" lon="14.871899929393054"><ele>360.0</ele><time>2026-04-02T05:55:14.999Z</time></trkpt><trkpt lat="36.8767291346455" lon="14.871988108381853"><ele>360.0</ele><time>2026-04-02T05:55:15.999Z</time></trkpt><trkpt lat="36.876848196525124" lon="14.872082615489445"><ele>360.0</ele><time>2026-04-02T05:55:16.999Z</time></trkpt><trkpt lat="36.87696670293492" lon="14.872176865452053"><ele>361.5</ele><time>2026-04-02T05:55:17.999Z</time></trkpt><trkpt lat="36.877084713631255" lon="14.872269015398567"><ele>363.0</ele><time>2026-04-02T05:55:18.999Z</time></trkpt><trkpt lat="36.87720347104797" lon="14.872358495112104"><ele>364.5</ele><time>2026-04-02T05:55:19.999Z</time></trkpt><trkpt lat="36.877323054024544" lon="14.87244494697285"><ele>366.0</ele><time>2026-04-02T05:55:20.999Z</time></trkpt><trkpt lat="36.877443904433136" lon="14.87252282861771"><ele>366.0</ele><time>2026-04-02T05:55:21.999Z</time></trkpt><trkpt lat="36.877568662226075" lon="14.872589239348112"><ele>366.0</ele><time>2026-04-02T05:55:22.999Z</time></trkpt><trkpt lat="36.87769534662925" lon="14.872641308158109"><ele>366.0</ele><time>2026-04-02T05:55:23.999Z</time></trkpt><trkpt lat="36.87782415140088" lon="14.87268226665547"><ele>366.0</ele><time>2026-04-02T05:55:24.999Z</time></trkpt><trkpt lat="36.877956060647264" lon="14.87271463970934"><ele>365.75</ele><time>2026-04-02T05:55:25.999Z</time></trkpt><trkpt lat="36.87808892457729" lon="14.872742748800075"><ele>365.5</ele><time>2026-04-02T05:55:26.999Z</time></trkpt><trkpt lat="36.87822423428187" lon="14.872766314806674"><ele>365.25</ele><time>2026-04-02T05:55:27.999Z</time></trkpt><trkpt lat="36.878355400418485" lon="14.872818766556057"><ele>365.0</ele><time>2026-04-02T05:55:28.999Z</time></trkpt><trkpt lat="36.87849950402419" lon="14.872808587703254"><ele>365.0</ele><time>2026-04-02T05:55:29.999Z</time></trkpt><trkpt lat="36.87863806296806" lon="14.872828339295657"><ele>365.0</ele><time>2026-04-02T05:55:30.999Z</time></trkpt><trkpt lat="36.87877638087118" lon="14.872844907360582"><ele>365.0</ele><time>2026-04-02T05:55:31.999Z</time></trkpt><trkpt lat="36.87891706499518" lon="14.872859583811302"><ele>365.0</ele><time>2026-04-02T05:55:32.999Z</time></trkpt><trkpt lat="36.879055590298506" lon="14.872873649050371"><ele>365.0</ele><time>2026-04-02T05:55:33.999Z</time></trkpt><trkpt lat="36.8791919549652" lon="14.872890395469753"><ele>365.0</ele><time>2026-04-02T05:55:34.999Z</time></trkpt><trkpt lat="36.87932798584501" lon="14.872904333723607"><ele>365.0</ele><time>2026-04-02T05:55:35.999Z</time></trkpt><trkpt lat="36.87946527320961" lon="14.872920353904362"><ele>365.0</ele><time>2026-04-02T05:55:36.999Z</time></trkpt><trkpt lat="36.879602708724235" lon="14.872937488286501"><ele>365.5</ele><time>2026-04-02T05:55:37.999Z</time></trkpt><trkpt lat="36.87973937415155" lon="14.872954289628161"><ele>366.0</ele><time>2026-04-02T05:55:38.999Z</time></trkpt><trkpt lat="36.879873717144555" lon="14.872973157617134"><ele>366.5</ele><time>2026-04-02T05:55:39.999Z</time></trkpt><trkpt lat="36.88000584971824" lon="14.873000322244591"><ele>367.0</ele><time>2026-04-02T05:55:40.999Z</time></trkpt><trkpt lat="36.880135734622534" lon="14.873035362546098"><ele>367.25</ele><time>2026-04-02T05:55:41.999Z</time></trkpt><trkpt lat="36.880261966112336" lon="14.873071246680084"><ele>367.5</ele><time>2026-04-02T05:55:42.999Z</time></trkpt><trkpt lat="36.8803882232591" lon="14.873114453296902"><ele>367.75</ele><time>2026-04-02T05:55:43.999Z</time></trkpt><trkpt lat="36.88051381021059" lon="14.873157315983578"><ele>368.0</ele><time>2026-04-02T05:55:44.999Z</time></trkpt><trkpt lat="36.88063813012587" lon="14.873198184289492"><ele>368.0</ele><time>2026-04-02T05:55:45.999Z</time></trkpt><trkpt lat="36.88076339716116" lon="14.873238502062511"><ele>368.0</ele><time>2026-04-02T05:55:46.999Z</time></trkpt><trkpt lat="36.88088815184105" lon="14.873279374472105"><ele>368.0</ele><time>2026-04-02T05:55:47.999Z</time></trkpt><trkpt lat="36.88101308487262" lon="14.873317063020076"><ele>368.0</ele><time>2026-04-02T05:55:48.999Z</time></trkpt><trkpt lat="36.88113882665864" lon="14.873345759637763"><ele>367.75</ele><time>2026-04-02T05:55:49.999Z</time></trkpt><trkpt lat="36.88126505120722" lon="14.87336799521643"><ele>367.5</ele><time>2026-04-02T05:55:50.999Z</time></trkpt><trkpt lat="36.881390955522086" lon="14.87339268689909"><ele>367.25</ele><time>2026-04-02T05:55:51.999Z</time></trkpt><trkpt lat="36.881518156065816" lon="14.87342274632427"><ele>367.0</ele><time>2026-04-02T05:55:52.999Z</time></trkpt><trkpt lat="36.88164614050109" lon="14.873454094301122"><ele>365.75</ele><time>2026-04-02T05:55:53.999Z</time></trkpt><trkpt lat="36.881774771204704" lon="14.873478469280812"><ele>364.5</ele><time>2026-04-02T05:55:54.999Z</time></trkpt><trkpt lat="36.88190841273713" lon="14.873500271981346"><ele>363.25</ele><time>2026-04-02T05:55:55.999Z</time></trkpt><trkpt lat="36.88204410304154" lon="14.873532257109122"><ele>362.0</ele><time>2026-04-02T05:55:56.999Z</time></trkpt><trkpt lat="36.88218144429778" lon="14.873572840980843"><ele>362.0</ele><time>2026-04-02T05:55:57.999Z</time></trkpt><trkpt lat="36.88232026728189" lon="14.873617927163123"><ele>362.0</ele><time>2026-04-02T05:55:58.999Z</time></trkpt><trkpt lat="36.88245841326667" lon="14.87366727309055"><ele>362.0</ele><time>2026-04-02T05:55:59.999Z</time></trkpt><trkpt lat="36.88259441507408" lon="14.873721615046165"><ele>362.0</ele><time>2026-04-02T05:56:00.999Z</time></trkpt><trkpt lat="36.8827255041884" lon="14.87378262838963"><ele>363.25</ele><time>2026-04-02T05:56:01.999Z</time></trkpt><trkpt lat="36.88285372904784" lon="14.873853638513664"><ele>364.5</ele><time>2026-04-02T05:56:02.999Z</time></trkpt><trkpt lat="36.88297914341252" lon="14.873930701591782"><ele>365.75</ele><time>2026-04-02T05:56:03.999Z</time></trkpt><trkpt lat="36.88310171822202" lon="14.874010537581132"><ele>367.0</ele><time>2026-04-02T05:56:04.999Z</time></trkpt><trkpt lat="36.88322352433653" lon="14.874089314927662"><ele>367.0</ele><time>2026-04-02T05:56:05.999Z</time></trkpt><trkpt lat="36.883340679258616" lon="14.87416604620507"><ele>367.0</ele><time>2026-04-02T05:56:06.999Z</time></trkpt><trkpt lat="36.88345751219823" lon="14.874238227025403"><ele>367.0</ele><time>2026-04-02T05:56:07.999Z</time></trkpt><trkpt lat="36.88357507284084" lon="14.874302204795482"><ele>367.0</ele><time>2026-04-02T05:56:08.999Z</time></trkpt><trkpt lat="36.883696183961675" lon="14.874350467562447"><ele>368.25</ele><time>2026-04-02T05:56:09.999Z</time></trkpt><trkpt lat="36.88382135970197" lon="14.874388546242319"><ele>369.5</ele><time>2026-04-02T05:56:10.999Z</time></trkpt><trkpt lat="36.8839500023183" lon="14.874416295847636"><ele>370.75</ele><time>2026-04-02T05:56:11.999Z</time></trkpt><trkpt lat="36.88407822429458" lon="14.874434885316287"><ele>372.0</ele><time>2026-04-02T05:56:12.999Z</time></trkpt><trkpt lat="36.88420740302524" lon="14.874453993641124"><ele>371.75</ele><time>2026-04-02T05:56:13.999Z</time></trkpt><trkpt lat="36.88433992480307" lon="14.87447193650257"><ele>371.5</ele><time>2026-04-02T05:56:14.999Z</time></trkpt><trkpt lat="36.884470913499506" lon="14.874479262516184"><ele>371.25</ele><time>2026-04-02T05:56:15.999Z</time></trkpt><trkpt lat="36.884598375666265" lon="14.874487928732162"><ele>371.0</ele><time>2026-04-02T05:56:16.999Z</time></trkpt><trkpt lat="36.88472154987416" lon="14.874489138930967"><ele>371.0</ele><time>2026-04-02T05:56:17.999Z</time></trkpt><trkpt lat="36.884842804056326" lon="14.874479621088904"><ele>371.0</ele><time>2026-04-02T05:56:18.999Z</time></trkpt><trkpt lat="36.88496072526702" lon="14.874459297001064"><ele>371.0</ele><time>2026-04-02T05:56:19.999Z</time></trkpt><trkpt lat="36.88507438163563" lon="14.874429054535305"><ele>371.0</ele><time>2026-04-02T05:56:20.999Z</time></trkpt><trkpt lat="36.88518186866787" lon="14.87439021009504"><ele>370.25</ele><time>2026-04-02T05:56:21.999Z</time></trkpt><trkpt lat="36.88528497721216" lon="14.874336310104693"><ele>369.5</ele><time>2026-04-02T05:56:22.999Z</time></trkpt><trkpt lat="36.88537799146364" lon="14.874258660055792"><ele>368.75</ele><time>2026-04-02T05:56:23.999Z</time></trkpt><trkpt lat="36.88546663077861" lon="14.874167407326706"><ele>368.0</ele><time>2026-04-02T05:56:25Z</time></trkpt><trkpt lat="36.885545632947355" lon="14.87405899148076"><ele>368.0</ele><time>2026-04-02T05:56:26Z</time></trkpt><trkpt lat="36.88562658454964" lon="14.873942698777604"><ele>368.0</ele><time>2026-04-02T05:56:27Z</time></trkpt><trkpt lat="36.88570961568526" lon="14.873820313980326"><ele>368.0</ele><time>2026-04-02T05:56:28Z</time></trkpt><trkpt lat="36.8857923829102" lon="14.873695219659117"><ele>368.0</ele><time>2026-04-02T05:56:29Z</time></trkpt><trkpt lat="36.885877191682" lon="14.873572209741376"><ele>367.25</ele><time>2026-04-02T05:56:30Z</time></trkpt><trkpt lat="36.885962718593895" lon="14.873448660140134"><ele>366.5</ele><time>2026-04-02T05:56:31Z</time></trkpt><trkpt lat="36.88604793126697" lon="14.873324220397926"><ele>365.75</ele><time>2026-04-02T05:56:32Z</time></trkpt><trkpt lat="36.88613636657245" lon="14.873202879033954"><ele>365.0</ele><time>2026-04-02T05:56:33Z</time></trkpt><trkpt lat="36.886230140966575" lon="14.873091529780734"><ele>365.0</ele><time>2026-04-02T05:56:34Z</time></trkpt><trkpt lat="36.88633405083858" lon="14.872995725307511"><ele>365.0</ele><time>2026-04-02T05:56:35Z</time></trkpt><trkpt lat="36.88644390262147" lon="14.87291170367391"><ele>365.0</ele><time>2026-04-02T05:56:36Z</time></trkpt><trkpt lat="36.88655220350631" lon="14.872833266092648"><ele>365.0</ele><time>2026-04-02T05:56:37Z</time></trkpt><trkpt lat="36.88666287057591" lon="14.872760828859265"><ele>364.25</ele><time>2026-04-02T05:56:38Z</time></trkpt><trkpt lat="36.88677084229499" lon="14.872687495006854"><ele>363.5</ele><time>2026-04-02T05:56:39Z</time></trkpt><trkpt lat="36.886880702264584" lon="14.87261992482491"><ele>362.75</ele><time>2026-04-02T05:56:40Z</time></trkpt><trkpt lat="36.886994715453525" lon="14.872552299697624"><ele>362.0</ele><time>2026-04-02T05:56:41Z</time></trkpt><trkpt lat="36.887110448073045" lon="14.872480764630588"><ele>363.75</ele><time>2026-04-02T05:56:42Z</time></trkpt><trkpt lat="36.88722604977034" lon="14.872406631081045"><ele>365.5</ele><time>2026-04-02T05:56:43Z</time></trkpt><trkpt lat="36.88734204061392" lon="14.872330228518884"><ele>367.25</ele><time>2026-04-02T05:56:44Z</time></trkpt><trkpt lat="36.88745859591354" lon="14.872254061778113"><ele>369.0</ele><time>2026-04-02T05:56:45Z</time></trkpt><trkpt lat="36.887576189719894" lon="14.872177886546107"><ele>368.25</ele><time>2026-04-02T05:56:46Z</time></trkpt><trkpt lat="36.887696719753926" lon="14.872101764575124"><ele>367.5</ele><time>2026-04-02T05:56:47Z</time></trkpt><trkpt lat="36.88781578688057" lon="14.872026446626828"><ele>366.75</ele><time>2026-04-02T05:56:48Z</time></trkpt><trkpt lat="36.88792891444055" lon="14.871953506613384"><ele>366.0</ele><time>2026-04-02T05:56:49Z</time></trkpt><trkpt lat="36.88803366512545" lon="14.871876222807405"><ele>366.0</ele><time>2026-04-02T05:56:50Z</time></trkpt><trkpt lat="36.88812886641941" lon="14.871785386515652"><ele>366.0</ele><time>2026-04-02T05:56:51Z</time></trkpt><trkpt lat="36.88821436090996" lon="14.871678645657807"><ele>366.0</ele><time>2026-04-02T05:56:52Z</time></trkpt><trkpt lat="36.88828708361236" lon="14.87156012355236"><ele>366.0</ele><time>2026-04-02T05:56:53Z</time></trkpt><trkpt lat="36.88834232253989" lon="14.871425251529725"><ele>367.0</ele><time>2026-04-02T05:56:54Z</time></trkpt><trkpt lat="36.88837809767527" lon="14.871278099020259"><ele>368.0</ele><time>2026-04-02T05:56:55Z</time></trkpt><trkpt lat="36.88839248273663" lon="14.87112429823759"><ele>369.0</ele><time>2026-04-02T05:56:56Z</time></trkpt><trkpt lat="36.888393113236745" lon="14.870974342147619"><ele>370.0</ele><time>2026-04-02T05:56:57Z</time></trkpt><trkpt lat="36.88838092556277" lon="14.870827289548224"><ele>370.25</ele><time>2026-04-02T05:56:58Z</time></trkpt><trkpt lat="36.888364154194726" lon="14.870683887957304"><ele>370.5</ele><time>2026-04-02T05:56:59Z</time></trkpt><trkpt lat="36.88833865520826" lon="14.870543316076331"><ele>370.75</ele><time>2026-04-02T05:57:00Z</time></trkpt><trkpt lat="36.88831716430826" lon="14.870399163504327"><ele>371.0</ele><time>2026-04-02T05:57:01Z</time></trkpt><trkpt lat="36.888298351627874" lon="14.87025788307288"><ele>371.0</ele><time>2026-04-02T05:57:02Z</time></trkpt><trkpt lat="36.88828795928907" lon="14.870117603971567"><ele>371.0</ele><time>2026-04-02T05:57:03Z</time></trkpt><trkpt lat="36.88829169590051" lon="14.869971986338724"><ele>371.0</ele><time>2026-04-02T05:57:04Z</time></trkpt><trkpt lat="36.88830680813453" lon="14.86981862491666"><ele>371.0</ele><time>2026-04-02T05:57:05Z</time></trkpt><trkpt lat="36.88832983419248" lon="14.8696689857047"><ele>370.5</ele><time>2026-04-02T05:57:06Z</time></trkpt><trkpt lat="36.88835856743745" lon="14.869520471818833"><ele>370.0</ele><time>2026-04-02T05:57:07Z</time></trkpt><trkpt lat="36.88838976950428" lon="14.869377820277341"><ele>369.5</ele><time>2026-04-02T05:57:07.999Z</time></trkpt><trkpt lat="36.88843112660644" lon="14.869242669888626"><ele>369.0</ele><time>2026-04-02T05:57:08.999Z</time></trkpt><trkpt lat="36.88847948142303" lon="14.869114642922646"><ele>367.6</ele><time>2026-04-02T05:57:09.999Z</time></trkpt><trkpt lat="36.88853520548577" lon="14.868994575970753"><ele>366.2</ele><time>2026-04-02T05:57:10.999Z</time></trkpt><trkpt lat="36.88859351589262" lon="14.868876100436996"><ele>364.8</ele><time>2026-04-02T05:57:11.999Z</time></trkpt><trkpt lat="36.8886585527715" lon="14.868761444792224"><ele>363.40000000000003</ele><time>2026-04-02T05:57:12.999Z</time></trkpt><trkpt lat="36.888732711041634" lon="14.868657637563546"><ele>362.0</ele><time>2026-04-02T05:57:13.999Z</time></trkpt><trkpt lat="36.888817378542655" lon="14.868566056098562"><ele>362.0</ele><time>2026-04-02T05:57:14.999Z</time></trkpt><trkpt lat="36.88890868121754" lon="14.868490061747288"><ele>362.0</ele><time>2026-04-02T05:57:15.999Z</time></trkpt><trkpt lat="36.88900473616174" lon="14.868430383343618"><ele>362.0</ele><time>2026-04-02T05:57:16.999Z</time></trkpt><trkpt lat="36.8891050816594" lon="14.868393078479597"><ele>362.0</ele><time>2026-04-02T05:57:17.999Z</time></trkpt><trkpt lat="36.88920822029494" lon="14.868378075847978"><ele>362.0</ele><time>2026-04-02T05:57:18.999Z</time></trkpt><trkpt lat="36.889310938964634" lon="14.868382504340497"><ele>363.0</ele><time>2026-04-02T05:57:19.999Z</time></trkpt><trkpt lat="36.889411353462755" lon="14.868394849870576"><ele>364.0</ele><time>2026-04-02T05:57:20.999Z</time></trkpt><trkpt lat="36.88951014757446" lon="14.868414403255764"><ele>365.0</ele><time>2026-04-02T05:57:21.999Z</time></trkpt><trkpt lat="36.88960975344587" lon="14.86844613739236"><ele>366.0</ele><time>2026-04-02T05:57:22.999Z</time></trkpt><trkpt lat="36.889708142812005" lon="14.868479117613754"><ele>367.0</ele><time>2026-04-02T05:57:23.999Z</time></trkpt><trkpt lat="36.889803539449005" lon="14.868512598602122"><ele>367.16666666666663</ele><time>2026-04-02T05:57:24.999Z</time></trkpt><trkpt lat="36.88989222987751" lon="14.868536624120077"><ele>367.3333333333333</ele><time>2026-04-02T05:57:25.999Z</time></trkpt><trkpt lat="36.889973094562095" lon="14.86856542921623"><ele>367.5</ele><time>2026-04-02T05:57:26.999Z</time></trkpt><trkpt lat="36.890037444263896" lon="14.868613675957183"><ele>367.6666666666667</ele><time>2026-04-02T05:57:27.999Z</time></trkpt><trkpt lat="36.890085637037494" lon="14.868679871472638"><ele>367.83333333333337</ele><time>2026-04-02T05:57:28.999Z</time></trkpt><trkpt lat="36.89011563219253" lon="14.86876235148248"><ele>368.0</ele><time>2026-04-02T05:57:29.999Z</time></trkpt><trkpt lat="36.89011778838352" lon="14.868853586114735"><ele>368.0</ele><time>2026-04-02T05:57:30.999Z</time></trkpt><trkpt lat="36.890089936266264" lon="14.868942007598418"><ele>368.0</ele><time>2026-04-02T05:57:31.999Z</time></trkpt><trkpt lat="36.8900373154227" lon="14.869019103066863"><ele>368.0</ele><time>2026-04-02T05:57:32.999Z</time></trkpt><trkpt lat="36.889979801918926" lon="14.869102122726597"><ele>368.0</ele><time>2026-04-02T05:57:33.999Z</time></trkpt><trkpt lat="36.88993464198449" lon="14.869195353970136"><ele>368.0</ele><time>2026-04-02T05:57:34.999Z</time></trkpt><trkpt lat="36.88990901892804" lon="14.869296944676602"><ele>368.0</ele><time>2026-04-02T05:57:35.999Z</time></trkpt><trkpt lat="36.889903339655255" lon="14.869396516264132"><ele>367.6666666666667</ele><time>2026-04-02T05:57:36.999Z</time></trkpt><trkpt lat="36.88992327788866" lon="14.869491031515224"><ele>367.33333333333337</ele><time>2026-04-02T05:57:37.999Z</time></trkpt><trkpt lat="36.88995817523579" lon="14.869575717568942"><ele>367.0</ele><time>2026-04-02T05:57:38.999Z</time></trkpt><trkpt lat="36.89001205416605" lon="14.86964517765949"><ele>366.6666666666667</ele><time>2026-04-02T05:57:39.999Z</time></trkpt><trkpt lat="36.89007751850424" lon="14.869706594726534"><ele>366.3333333333333</ele><time>2026-04-02T05:57:40.999Z</time></trkpt><trkpt lat="36.89014836009082" lon="14.869769884147518"><ele>366.0</ele><time>2026-04-02T05:57:41.999Z</time></trkpt><trkpt lat="36.890222272205975" lon="14.869839676016113"><ele>367.0</ele><time>2026-04-02T05:57:42.999Z</time></trkpt><trkpt lat="36.89030050089833" lon="14.869903961798888"><ele>368.0</ele><time>2026-04-02T05:57:43.999Z</time></trkpt><trkpt lat="36.89038277173379" lon="14.869965881373865"><ele>369.0</ele><time>2026-04-02T05:57:44.999Z</time></trkpt><trkpt lat="36.89046483995285" lon="14.87002953402958"><ele>370.0</ele><time>2026-04-02T05:57:45.999Z</time></trkpt><trkpt lat="36.89054561477902" lon="14.870099372250413"><ele>371.0</ele><time>2026-04-02T05:57:46.999Z</time></trkpt><trkpt lat="36.89062638516941" lon="14.87017288415493"><ele>371.0</ele><time>2026-04-02T05:57:47.999Z</time></trkpt><trkpt lat="36.890706508250275" lon="14.870248599534916"><ele>371.0</ele><time>2026-04-02T05:57:48.999Z</time></trkpt><trkpt lat="36.89078143649535" lon="14.870333477937264"><ele>371.0</ele><time>2026-04-02T05:57:49.999Z</time></trkpt><trkpt lat="36.89084447879017" lon="14.87042858601332"><ele>371.0</ele><time>2026-04-02T05:57:50.999Z</time></trkpt><trkpt lat="36.89090218724014" lon="14.870540544376029"><ele>371.0</ele><time>2026-04-02T05:57:51.999Z</time></trkpt><trkpt lat="36.890951636966925" lon="14.870656179752011"><ele>372.8</ele><time>2026-04-02T05:57:52.999Z</time></trkpt><trkpt lat="36.89100489596678" lon="14.87076969297226"><ele>374.6</ele><time>2026-04-02T05:57:53.999Z</time></trkpt><trkpt lat="36.89105985172339" lon="14.870886563644442"><ele>376.4</ele><time>2026-04-02T05:57:54.999Z</time></trkpt><trkpt lat="36.891112821299025" lon="14.871007093658783"><ele>378.2</ele><time>2026-04-02T05:57:55.999Z</time></trkpt><trkpt lat="36.891168679486064" lon="14.87112720712679"><ele>380.0</ele><time>2026-04-02T05:57:56.999Z</time></trkpt><trkpt lat="36.89122703780167" lon="14.871246992333681"><ele>380.0</ele><time>2026-04-02T05:57:57.999Z</time></trkpt><trkpt lat="36.891282280370326" lon="14.871369577836289"><ele>380.0</ele><time>2026-04-02T05:57:58.999Z</time></trkpt><trkpt lat="36.89133969025955" lon="14.871491102761361"><ele>380.0</ele><time>2026-04-02T05:57:59.999Z</time></trkpt><trkpt lat="36.891399293515214" lon="14.87160880377443"><ele>380.0</ele><time>2026-04-02T05:58:00.999Z</time></trkpt><trkpt lat="36.89145755229623" lon="14.871730817473145"><ele>380.0</ele><time>2026-04-02T05:58:01.999Z</time></trkpt><trkpt lat="36.89151691013467" lon="14.871843612347604"><ele>380.0</ele><time>2026-04-02T05:58:02.999Z</time></trkpt><trkpt lat="36.89157288323861" lon="14.871950375513938"><ele>380.0</ele><time>2026-04-02T05:58:03.999Z</time></trkpt><trkpt lat="36.891633459009995" lon="14.872048312292062"><ele>380.0</ele><time>2026-04-02T05:58:04.999Z</time></trkpt><trkpt lat="36.89170009644035" lon="14.872143295332444"><ele>380.0</ele><time>2026-04-02T05:58:05.999Z</time></trkpt><trkpt lat="36.89176561506765" lon="14.872239770279533"><ele>379.8</ele><time>2026-04-02T05:58:06.999Z</time></trkpt><trkpt lat="36.891832046365856" lon="14.872337045430845"><ele>379.6</ele><time>2026-04-02T05:58:07.999Z</time></trkpt><trkpt lat="36.891900799348726" lon="14.872433978560345"><ele>379.4</ele><time>2026-04-02T05:58:08.999Z</time></trkpt><trkpt lat="36.891971518158286" lon="14.87253404959483"><ele>379.2</ele><time>2026-04-02T05:58:09.999Z</time></trkpt><trkpt lat="36.892043860997674" lon="14.872637917033554"><ele>379.0</ele><time>2026-04-02T05:58:10.999Z</time></trkpt><trkpt lat="36.89211760491619" lon="14.87274335793243"><ele>379.0</ele><time>2026-04-02T05:58:11.999Z</time></trkpt><trkpt lat="36.892189476250245" lon="14.872849803525991"><ele>379.0</ele><time>2026-04-02T05:58:12.999Z</time></trkpt><trkpt lat="36.89226285676657" lon="14.87295299887108"><ele>379.0</ele><time>2026-04-02T05:58:13.999Z</time></trkpt><trkpt lat="36.892336446514065" lon="14.873059149974724"><ele>379.0</ele><time>2026-04-02T05:58:14.999Z</time></trkpt><trkpt lat="36.892412304725134" lon="14.873167623146523"><ele>379.0</ele><time>2026-04-02T05:58:15.999Z</time></trkpt><trkpt lat="36.89248785538932" lon="14.873279970151266"><ele>379.0</ele><time>2026-04-02T05:58:16.999Z</time></trkpt><trkpt lat="36.89255989062796" lon="14.8733932517937"><ele>379.0</ele><time>2026-04-02T05:58:17.999Z</time></trkpt><trkpt lat="36.89262499723925" lon="14.8735051090428"><ele>379.0</ele><time>2026-04-02T05:58:18.999Z</time></trkpt><trkpt lat="36.89269002949409" lon="14.87361418257171"><ele>379.0</ele><time>2026-04-02T05:58:19.999Z</time></trkpt><trkpt lat="36.89275474220009" lon="14.873722231547845"><ele>379.0</ele><time>2026-04-02T05:58:20.999Z</time></trkpt><trkpt lat="36.89281802178031" lon="14.873829082387308"><ele>378.2</ele><time>2026-04-02T05:58:21.999Z</time></trkpt><trkpt lat="36.89288693482765" lon="14.873933338604521"><ele>377.4</ele><time>2026-04-02T05:58:22.999Z</time></trkpt><trkpt lat="36.89296374046131" lon="14.874029911994212"><ele>376.6</ele><time>2026-04-02T05:58:23.999Z</time></trkpt><trkpt lat="36.89304734719046" lon="14.874114752302125"><ele>375.8</ele><time>2026-04-02T05:58:24.999Z</time></trkpt><trkpt lat="36.89313730460564" lon="14.874179732457792"><ele>375.0</ele><time>2026-04-02T05:58:25.999Z</time></trkpt><trkpt lat="36.89323519948581" lon="14.874213349594013"><ele>375.0</ele><time>2026-04-02T05:58:26.999Z</time></trkpt><trkpt lat="36.8933395019789" lon="14.874224348770655"><ele>375.0</ele><time>2026-04-02T05:58:27.999Z</time></trkpt><trkpt lat="36.893444736365936" lon="14.874210216283949"><ele>375.0</ele><time>2026-04-02T05:58:28.999Z</time></trkpt><trkpt lat="36.89355377188781" lon="14.874180418316964"><ele>375.0</ele><time>2026-04-02T05:58:30Z</time></trkpt><trkpt lat="36.89366117548689" lon="14.874144036132924"><ele>375.0</ele><time>2026-04-02T05:58:31Z</time></trkpt><trkpt lat="36.89376852318351" lon="14.874105606164145"><ele>374.2</ele><time>2026-04-02T05:58:32Z</time></trkpt><trkpt lat="36.893875829715164" lon="14.874067234895284"><ele>373.4</ele><time>2026-04-02T05:58:33Z</time></trkpt><trkpt lat="36.89397925904533" lon="14.87402875285411"><ele>372.6</ele><time>2026-04-02T05:58:34Z</time></trkpt><trkpt lat="36.89408466585717" lon="14.87399103649958"><ele>371.8</ele><time>2026-04-02T05:58:35Z</time></trkpt><trkpt lat="36.89418872721564" lon="14.873952118115863"><ele>371.0</ele><time>2026-04-02T05:58:36Z</time></trkpt><trkpt lat="36.894294145870624" lon="14.873912382432282"><ele>370.4</ele><time>2026-04-02T05:58:37Z</time></trkpt><trkpt lat="36.89439732959207" lon="14.873869107893059"><ele>369.8</ele><time>2026-04-02T05:58:38Z</time></trkpt><trkpt lat="36.89450327056456" lon="14.873824742574273"><ele>369.2</ele><time>2026-04-02T05:58:39Z</time></trkpt><trkpt lat="36.89460743524436" lon="14.873773918516044"><ele>368.59999999999997</ele><time>2026-04-02T05:58:40Z</time></trkpt><trkpt lat="36.89470831585917" lon="14.873717734827453"><ele>368.0</ele><time>2026-04-02T05:58:41Z</time></trkpt><trkpt lat="36.89480357992251" lon="14.87365406862879"><ele>368.0</ele><time>2026-04-02T05:58:42Z</time></trkpt><trkpt lat="36.894890188463606" lon="14.873584455993765"><ele>368.0</ele><time>2026-04-02T05:58:43Z</time></trkpt><trkpt lat="36.89496668339649" lon="14.873515679520699"><ele>368.0</ele><time>2026-04-02T05:58:44Z</time></trkpt><trkpt lat="36.895032540898626" lon="14.873458806083"><ele>368.0</ele><time>2026-04-02T05:58:45Z</time></trkpt><trkpt lat="36.895088393934635" lon="14.873410436434696"><ele>368.0</ele><time>2026-04-02T05:58:46Z</time></trkpt><trkpt lat="36.895185393976256" lon="14.873366174893885"><ele>368.0</ele><time>2026-04-02T05:58:48Z</time></trkpt><trkpt lat="36.8952659982821" lon="14.873398586557633"><ele>367.1666666666667</ele><time>2026-04-02T05:58:50Z</time></trkpt><trkpt lat="36.89530403609579" lon="14.873496806197041"><ele>366.33333333333337</ele><time>2026-04-02T05:58:52Z</time></trkpt><trkpt lat="36.895294184855366" lon="14.873576056357543"><ele>365.5</ele><time>2026-04-02T05:58:53Z</time></trkpt><trkpt lat="36.895283379950996" lon="14.873668937101138"><ele>364.6666666666667</ele><time>2026-04-02T05:58:54Z</time></trkpt><trkpt lat="36.89527160157645" lon="14.873777251638987"><ele>363.8333333333333</ele><time>2026-04-02T05:58:55Z</time></trkpt><trkpt lat="36.89525892536222" lon="14.873895617581265"><ele>363.0</ele><time>2026-04-02T05:58:56Z</time></trkpt><trkpt lat="36.89524696875778" lon="14.874011970798493"><ele>363.0</ele><time>2026-04-02T05:58:57Z</time></trkpt><trkpt lat="36.89523359137121" lon="14.874138999894745"><ele>363.0</ele><time>2026-04-02T05:58:58Z</time></trkpt><trkpt lat="36.89521983121234" lon="14.874275158116104"><ele>363.0</ele><time>2026-04-02T05:58:59Z</time></trkpt><trkpt lat="36.89520650140348" lon="14.874417955534168"><ele>363.0</ele><time>2026-04-02T05:59:00Z</time></trkpt><trkpt lat="36.89519244533199" lon="14.87456826564326"><ele>363.0</ele><time>2026-04-02T05:59:01Z</time></trkpt><trkpt lat="36.895180257738154" lon="14.874725995704194"><ele>362.0</ele><time>2026-04-02T05:59:02Z</time></trkpt><trkpt lat="36.89516086401958" lon="14.874883543258848"><ele>361.0</ele><time>2026-04-02T05:59:03Z</time></trkpt><trkpt lat="36.895142644012715" lon="14.875046417940052"><ele>360.0</ele><time>2026-04-02T05:59:04Z</time></trkpt><trkpt lat="36.895124297547994" lon="14.875211210873541"><ele>359.0</ele><time>2026-04-02T05:59:05Z</time></trkpt><trkpt lat="36.89510870007419" lon="14.875378203169044"><ele>359.0</ele><time>2026-04-02T05:59:06Z</time></trkpt><trkpt lat="36.89509493840111" lon="14.875546201116832"><ele>359.0</ele><time>2026-04-02T05:59:07Z</time></trkpt><trkpt lat="36.89507773020564" lon="14.875713309431186"><ele>359.0</ele><time>2026-04-02T05:59:08Z</time></trkpt><trkpt lat="36.89506102107374" lon="14.875880264860873"><ele>359.0</ele><time>2026-04-02T05:59:09Z</time></trkpt><trkpt lat="36.895047869276866" lon="14.876046624302663"><ele>359.0</ele><time>2026-04-02T05:59:10Z</time></trkpt><trkpt lat="36.89505010212928" lon="14.876212253790941"><ele>359.0</ele><time>2026-04-02T05:59:11Z</time></trkpt><trkpt lat="36.89507608271733" lon="14.876373519315768"><ele>359.0</ele><time>2026-04-02T05:59:12Z</time></trkpt><trkpt lat="36.895123271772995" lon="14.876523482251798"><ele>359.0</ele><time>2026-04-02T05:59:13Z</time></trkpt><trkpt lat="36.895191728191186" lon="14.876660724046317"><ele>357.5</ele><time>2026-04-02T05:59:14Z</time></trkpt><trkpt lat="36.89527349502948" lon="14.876789660876835"><ele>356.0</ele><time>2026-04-02T05:59:15Z</time></trkpt><trkpt lat="36.895365513047075" lon="14.87690804729302"><ele>354.5</ele><time>2026-04-02T05:59:16Z</time></trkpt><trkpt lat="36.8954574621718" lon="14.877020771376149"><ele>353.0</ele><time>2026-04-02T05:59:16.999Z</time></trkpt><trkpt lat="36.89554708386862" lon="14.877131359656968"><ele>353.0</ele><time>2026-04-02T05:59:17.999Z</time></trkpt><trkpt lat="36.895633919814316" lon="14.877242818682893"><ele>353.0</ele><time>2026-04-02T05:59:18.999Z</time></trkpt><trkpt lat="36.89570798350975" lon="14.87736336464945"><ele>353.0</ele><time>2026-04-02T05:59:19.999Z</time></trkpt><trkpt lat="36.89576817520646" lon="14.877498100981919"><ele>353.0</ele><time>2026-04-02T05:59:20.999Z</time></trkpt><trkpt lat="36.895820169826926" lon="14.877643536119175"><ele>353.25</ele><time>2026-04-02T05:59:21.999Z</time></trkpt><trkpt lat="36.895867169549945" lon="14.877793966367863"><ele>353.5</ele><time>2026-04-02T05:59:22.999Z</time></trkpt><trkpt lat="36.895912215656686" lon="14.877944504913097"><ele>353.75</ele><time>2026-04-02T05:59:23.999Z</time></trkpt><trkpt lat="36.8959561129787" lon="14.878097473088618"><ele>354.0</ele><time>2026-04-02T05:59:24.999Z</time></trkpt><trkpt lat="36.896000227936376" lon="14.878251980847192"><ele>351.25</ele><time>2026-04-02T05:59:25.999Z</time></trkpt><trkpt lat="36.89604663244871" lon="14.87840836277643"><ele>348.5</ele><time>2026-04-02T05:59:26.999Z</time></trkpt><trkpt lat="36.89610012333299" lon="14.878561856193476"><ele>345.75</ele><time>2026-04-02T05:59:27.999Z</time></trkpt><trkpt lat="36.8961621912798" lon="14.878710303541666"><ele>343.0</ele><time>2026-04-02T05:59:28.999Z</time></trkpt><trkpt lat="36.89622965667764" lon="14.878856612757216"><ele>343.0</ele><time>2026-04-02T05:59:29.999Z</time></trkpt><trkpt lat="36.89630191314851" lon="14.878998150551752"><ele>343.0</ele><time>2026-04-02T05:59:30.999Z</time></trkpt><trkpt lat="36.89637231983698" lon="14.879133813520015"><ele>343.0</ele><time>2026-04-02T05:59:31.999Z</time></trkpt><trkpt lat="36.896440583313314" lon="14.87927336716635"><ele>343.0</ele><time>2026-04-02T05:59:32.999Z</time></trkpt><trkpt lat="36.8965065346065" lon="14.879416623217626"><ele>343.75</ele><time>2026-04-02T05:59:33.999Z</time></trkpt><trkpt lat="36.896568293513575" lon="14.879562768572447"><ele>344.5</ele><time>2026-04-02T05:59:34.999Z</time></trkpt><trkpt lat="36.89662541771067" lon="14.879708594585898"><ele>345.25</ele><time>2026-04-02T05:59:35.999Z</time></trkpt><trkpt lat="36.896677692416056" lon="14.879855557263047"><ele>346.0</ele><time>2026-04-02T05:59:36.999Z</time></trkpt><trkpt lat="36.896726715035946" lon="14.880003917816952"><ele>341.25</ele><time>2026-04-02T05:59:37.999Z</time></trkpt><trkpt lat="36.89676798926287" lon="14.880160705193461"><ele>336.5</ele><time>2026-04-02T05:59:38.999Z</time></trkpt><trkpt lat="36.89680004039491" lon="14.880322496538685"><ele>331.75</ele><time>2026-04-02T05:59:39.999Z</time></trkpt><trkpt lat="36.89682672054029" lon="14.880487956289505"><ele>327.0</ele><time>2026-04-02T05:59:40.999Z</time></trkpt><trkpt lat="36.896853800896565" lon="14.880654359863914"><ele>327.0</ele><time>2026-04-02T05:59:41.999Z</time></trkpt><trkpt lat="36.896881484993955" lon="14.880820312056112"><ele>327.0</ele><time>2026-04-02T05:59:42.999Z</time></trkpt><trkpt lat="36.89691069923603" lon="14.880984140339404"><ele>327.0</ele><time>2026-04-02T05:59:43.999Z</time></trkpt><trkpt lat="36.89694582671985" lon="14.88114662901882"><ele>327.0</ele><time>2026-04-02T05:59:44.999Z</time></trkpt><trkpt lat="36.89698647837511" lon="14.881307046720035"><ele>328.75</ele><time>2026-04-02T05:59:45.999Z</time></trkpt><trkpt lat="36.89703640765162" lon="14.881464187730211"><ele>330.5</ele><time>2026-04-02T05:59:46.999Z</time></trkpt><trkpt lat="36.89709592497502" lon="14.88161457954995"><ele>332.25</ele><time>2026-04-02T05:59:47.999Z</time></trkpt><trkpt lat="36.89716333562606" lon="14.881754878093012"><ele>334.0</ele><time>2026-04-02T05:59:48.999Z</time></trkpt><trkpt lat="36.89723805478849" lon="14.881887616219684"><ele>335.0</ele><time>2026-04-02T05:59:49.999Z</time></trkpt><trkpt lat="36.897314302085256" lon="14.882011906042688"><ele>336.0</ele><time>2026-04-02T05:59:50.999Z</time></trkpt><trkpt lat="36.89738225516619" lon="14.882140408039607"><ele>337.0</ele><time>2026-04-02T05:59:51.999Z</time></trkpt><trkpt lat="36.897435978051824" lon="14.882277522218631"><ele>338.0</ele><time>2026-04-02T05:59:52.999Z</time></trkpt><trkpt lat="36.89746896767107" lon="14.882428874263121"><ele>338.0</ele><time>2026-04-02T05:59:53.999Z</time></trkpt><trkpt lat="36.89748405400527" lon="14.882590527399248"><ele>338.0</ele><time>2026-04-02T05:59:54.999Z</time></trkpt><trkpt lat="36.89748999859441" lon="14.882753426296189"><ele>338.0</ele><time>2026-04-02T05:59:55.999Z</time></trkpt><trkpt lat="36.89749183928995" lon="14.882923068263382"><ele>338.0</ele><time>2026-04-02T05:59:56.999Z</time></trkpt><trkpt lat="36.89747828572198" lon="14.883092148378706"><ele>337.0</ele><time>2026-04-02T05:59:57.999Z</time></trkpt><trkpt lat="36.89744809019579" lon="14.88326308334526"><ele>336.0</ele><time>2026-04-02T05:59:58.999Z</time></trkpt><trkpt lat="36.89740845872951" lon="14.883433682193353"><ele>335.0</ele><time>2026-04-02T05:59:59.999Z</time></trkpt><trkpt lat="36.897365098111294" lon="14.883600782673273"><ele>334.0</ele><time>2026-04-02T06:00:00.999Z</time></trkpt><trkpt lat="36.8973191884891" lon="14.88376550235646"><ele>332.25</ele><time>2026-04-02T06:00:01.999Z</time></trkpt><trkpt lat="36.89727385170077" lon="14.883928995250454"><ele>330.5</ele><time>2026-04-02T06:00:02.999Z</time></trkpt><trkpt lat="36.89722863396854" lon="14.884079901528972"><ele>328.75</ele><time>2026-04-02T06:00:03.999Z</time></trkpt><trkpt lat="36.89718589749988" lon="14.884218380781947"><ele>327.0</ele><time>2026-04-02T06:00:04.999Z</time></trkpt><trkpt lat="36.897146091241396" lon="14.88434163343375"><ele>325.5</ele><time>2026-04-02T06:00:05.999Z</time></trkpt><trkpt lat="36.89711404951566" lon="14.884440544763214"><ele>324.0</ele><time>2026-04-02T06:00:06.999Z</time></trkpt><trkpt lat="36.89708874951443" lon="14.884524673743766"><ele>322.5</ele><time>2026-04-02T06:00:07.999Z</time></trkpt><trkpt lat="36.897062727596335" lon="14.884600945926113"><ele>321.0</ele><time>2026-04-02T06:00:08.999Z</time></trkpt><trkpt lat="36.89705198938757" lon="14.884678705230327"><ele>319.5</ele><time>2026-04-02T06:00:09.999Z</time></trkpt><trkpt lat="36.897102810453546" lon="14.884818814456414"><ele>318.0</ele><time>2026-04-02T06:00:11.999Z</time></trkpt><trkpt lat="36.89717285087087" lon="14.884840136997946"><ele>318.0</ele><time>2026-04-02T06:00:12.999Z</time></trkpt><trkpt lat="36.89723465619614" lon="14.884820799892248"><ele>318.0</ele><time>2026-04-02T06:00:13.999Z</time></trkpt><trkpt lat="36.897303485924496" lon="14.884770477705443"><ele>318.0</ele><time>2026-04-02T06:00:14.999Z</time></trkpt><trkpt lat="36.89737461783863" lon="14.884709081331703"><ele>318.0</ele><time>2026-04-02T06:00:15.999Z</time></trkpt><trkpt lat="36.897462095250994" lon="14.884654040159393"><ele>318.0</ele><time>2026-04-02T06:00:16.999Z</time></trkpt><trkpt lat="36.89754773315985" lon="14.884593360909383"><ele>318.0</ele><time>2026-04-02T06:00:17.999Z</time></trkpt><trkpt lat="36.89763432912351" lon="14.884529772457809"><ele>316.25</ele><time>2026-04-02T06:00:18.999Z</time></trkpt><trkpt lat="36.89773192383527" lon="14.884473445454022"><ele>314.5</ele><time>2026-04-02T06:00:19.999Z</time></trkpt><trkpt lat="36.89782388735885" lon="14.884398632042684"><ele>312.75</ele><time>2026-04-02T06:00:20.999Z</time></trkpt><trkpt lat="36.89791490912798" lon="14.884311707651564"><ele>311.0</ele><time>2026-04-02T06:00:21.999Z</time></trkpt><trkpt lat="36.89800204302038" lon="14.884208408579918"><ele>311.0</ele><time>2026-04-02T06:00:22.999Z</time></trkpt><trkpt lat="36.898076771707544" lon="14.884089840035168"><ele>311.0</ele><time>2026-04-02T06:00:23.999Z</time></trkpt><trkpt lat="36.89814951134467" lon="14.883968447646453"><ele>311.0</ele><time>2026-04-02T06:00:24.999Z</time></trkpt><trkpt lat="36.898218970045654" lon="14.883846512270138"><ele>311.0</ele><time>2026-04-02T06:00:25.999Z</time></trkpt><trkpt lat="36.89828583298473" lon="14.883726900636546"><ele>311.0</ele><time>2026-04-02T06:00:26.999Z</time></trkpt><trkpt lat="36.898352953383366" lon="14.88360922603882"><ele>311.0</ele><time>2026-04-02T06:00:27.999Z</time></trkpt><trkpt lat="36.89842022292766" lon="14.883493745589398"><ele>311.0</ele><time>2026-04-02T06:00:28.999Z</time></trkpt><trkpt lat="36.8984892440454" lon="14.883380189431413"><ele>311.0</ele><time>2026-04-02T06:00:29.999Z</time></trkpt><trkpt lat="36.898559893581535" lon="14.883261986706014"><ele>310.5</ele><time>2026-04-02T06:00:30.999Z</time></trkpt><trkpt lat="36.89863103714383" lon="14.883144815701764"><ele>310.0</ele><time>2026-04-02T06:00:31.999Z</time></trkpt><trkpt lat="36.898706301087465" lon="14.883033027468576"><ele>309.5</ele><time>2026-04-02T06:00:32.999Z</time></trkpt><trkpt lat="36.89878478397672" lon="14.882925546187467"><ele>309.0</ele><time>2026-04-02T06:00:33.999Z</time></trkpt><trkpt lat="36.898868239264395" lon="14.882821156223605"><ele>309.0</ele><time>2026-04-02T06:00:34.999Z</time></trkpt><trkpt lat="36.898957152185844" lon="14.882721569400864"><ele>309.0</ele><time>2026-04-02T06:00:36Z</time></trkpt><trkpt lat="36.89904773220621" lon="14.882628826608558"><ele>309.0</ele><time>2026-04-02T06:00:37Z</time></trkpt><trkpt lat="36.89913060150155" lon="14.88254594266222"><ele>309.0</ele><time>2026-04-02T06:00:38Z</time></trkpt><trkpt lat="36.89921288469981" lon="14.882497227344805"><ele>309.0</ele><time>2026-04-02T06:00:39Z</time></trkpt><trkpt lat="36.8992997126131" lon="14.882484693835695"><ele>310.1666666666667</ele><time>2026-04-02T06:00:40Z</time></trkpt><trkpt lat="36.89938733952398" lon="14.882495514158554"><ele>311.3333333333333</ele><time>2026-04-02T06:00:41Z</time></trkpt><trkpt lat="36.89947073383343" lon="14.882534456296586"><ele>312.5</ele><time>2026-04-02T06:00:42Z</time></trkpt><trkpt lat="36.89954793719654" lon="14.882590796035055"><ele>313.66666666666663</ele><time>2026-04-02T06:00:43Z</time></trkpt><trkpt lat="36.8996239762034" lon="14.882647634682602"><ele>314.8333333333333</ele><time>2026-04-02T06:00:44Z</time></trkpt><trkpt lat="36.89969833724716" lon="14.882692236479192"><ele>316.0</ele><time>2026-04-02T06:00:45Z</time></trkpt><trkpt lat="36.8997716199979" lon="14.882738821365507"><ele>316.66666666666663</ele><time>2026-04-02T06:00:46Z</time></trkpt><trkpt lat="36.89983083215391" lon="14.882791924895619"><ele>317.3333333333333</ele><time>2026-04-02T06:00:47Z</time></trkpt><trkpt lat="36.899866038340015" lon="14.882936840407476"><ele>318.0</ele><time>2026-04-02T06:00:49Z</time></trkpt><trkpt lat="36.89983646858705" lon="14.883020777161738"><ele>318.6666666666667</ele><time>2026-04-02T06:00:50Z</time></trkpt><trkpt lat="36.89978022199715" lon="14.883096135661123"><ele>319.33333333333337</ele><time>2026-04-02T06:00:51Z</time></trkpt><trkpt lat="36.899727906768405" lon="14.883183857558688"><ele>320.0</ele><time>2026-04-02T06:00:52Z</time></trkpt><trkpt lat="36.89967163644826" lon="14.883284968707619"><ele>320.0</ele><time>2026-04-02T06:00:53Z</time></trkpt><trkpt lat="36.899621732931" lon="14.883398716704647"><ele>320.0</ele><time>2026-04-02T06:00:54Z</time></trkpt><trkpt lat="36.899581234187416" lon="14.883525013081774"><ele>320.0</ele><time>2026-04-02T06:00:55Z</time></trkpt><trkpt lat="36.899553239025025" lon="14.88366429330041"><ele>320.0</ele><time>2026-04-02T06:00:56Z</time></trkpt><trkpt lat="36.89952932411225" lon="14.883812811557053"><ele>320.0</ele><time>2026-04-02T06:00:57Z</time></trkpt><trkpt lat="36.8995094724482" lon="14.883970397469902"><ele>321.5</ele><time>2026-04-02T06:00:58Z</time></trkpt><trkpt lat="36.89948445633176" lon="14.884132055714783"><ele>323.0</ele><time>2026-04-02T06:00:59Z</time></trkpt><trkpt lat="36.8994582449326" lon="14.8843020735192"><ele>324.5</ele><time>2026-04-02T06:01:00Z</time></trkpt><trkpt lat="36.8994337840314" lon="14.884478337256223"><ele>326.0</ele><time>2026-04-02T06:01:01Z</time></trkpt><trkpt lat="36.89940885128034" lon="14.884659638884374"><ele>326.25</ele><time>2026-04-02T06:01:02Z</time></trkpt><trkpt lat="36.89938587672192" lon="14.884843773005779"><ele>326.5</ele><time>2026-04-02T06:01:03Z</time></trkpt><trkpt lat="36.89936368871526" lon="14.885019691256808"><ele>326.75</ele><time>2026-04-02T06:01:04Z</time></trkpt><trkpt lat="36.89933978795344" lon="14.88520260585806"><ele>327.0</ele><time>2026-04-02T06:01:05Z</time></trkpt><trkpt lat="36.89931493199534" lon="14.885381699118204"><ele>327.0</ele><time>2026-04-02T06:01:06Z</time></trkpt><trkpt lat="36.89928244064931" lon="14.885552668369632"><ele>327.0</ele><time>2026-04-02T06:01:07Z</time></trkpt><trkpt lat="36.89923513220885" lon="14.885710993979664"><ele>327.0</ele><time>2026-04-02T06:01:08Z</time></trkpt><trkpt lat="36.89917389706347" lon="14.885857724356256"><ele>327.0</ele><time>2026-04-02T06:01:09Z</time></trkpt><trkpt lat="36.8991185496652" lon="14.886005205149232"><ele>325.0</ele><time>2026-04-02T06:01:10Z</time></trkpt><trkpt lat="36.899080849870806" lon="14.88616582399143"><ele>323.0</ele><time>2026-04-02T06:01:11Z</time></trkpt><trkpt lat="36.89906148310287" lon="14.88633543914516"><ele>321.0</ele><time>2026-04-02T06:01:12Z</time></trkpt><trkpt lat="36.89905330885336" lon="14.886510495240687"><ele>319.0</ele><time>2026-04-02T06:01:13Z</time></trkpt><trkpt lat="36.899045036287305" lon="14.886683978646262"><ele>318.5</ele><time>2026-04-02T06:01:14Z</time></trkpt><trkpt lat="36.89904752239593" lon="14.886867696529087"><ele>318.0</ele><time>2026-04-02T06:01:15Z</time></trkpt><trkpt lat="36.899056426004655" lon="14.8870546006694"><ele>317.5</ele><time>2026-04-02T06:01:16Z</time></trkpt><trkpt lat="36.89906912864535" lon="14.887243346405098"><ele>317.0</ele><time>2026-04-02T06:01:17Z</time></trkpt><trkpt lat="36.89908244008507" lon="14.88742921241733"><ele>317.0</ele><time>2026-04-02T06:01:18Z</time></trkpt><trkpt lat="36.899089350573924" lon="14.887605664166397"><ele>317.0</ele><time>2026-04-02T06:01:19Z</time></trkpt><trkpt lat="36.89910865065548" lon="14.887766718851637"><ele>317.0</ele><time>2026-04-02T06:01:20Z</time></trkpt><trkpt lat="36.8991473135395" lon="14.887920175799234"><ele>317.0</ele><time>2026-04-02T06:01:21Z</time></trkpt><trkpt lat="36.89920374112722" lon="14.88805300634813"><ele>317.0</ele><time>2026-04-02T06:01:22Z</time></trkpt><trkpt lat="36.89928083020984" lon="14.888148539535052"><ele>317.0</ele><time>2026-04-02T06:01:23Z</time></trkpt><trkpt lat="36.89937565767868" lon="14.888214328855693"><ele>317.0</ele><time>2026-04-02T06:01:24Z</time></trkpt><trkpt lat="36.8994864487369" lon="14.88825007982543"><ele>317.0</ele><time>2026-04-02T06:01:24.999Z</time></trkpt><trkpt lat="36.8996074718398" lon="14.888277854048095"><ele>317.0</ele><time>2026-04-02T06:01:25.999Z</time></trkpt><trkpt lat="36.89973227740423" lon="14.888311870303294"><ele>317.0</ele><time>2026-04-02T06:01:26.999Z</time></trkpt><trkpt lat="36.89985895561119" lon="14.888347592852432"><ele>317.0</ele><time>2026-04-02T06:01:27.999Z</time></trkpt><trkpt lat="36.89998676954209" lon="14.888386478109005"><ele>317.0</ele><time>2026-04-02T06:01:28.999Z</time></trkpt><trkpt lat="36.90011395308523" lon="14.888425427624966"><ele>317.75</ele><time>2026-04-02T06:01:29.999Z</time></trkpt><trkpt lat="36.90023750058708" lon="14.888475691424844"><ele>318.5</ele><time>2026-04-02T06:01:30.999Z</time></trkpt><trkpt lat="36.90035713390939" lon="14.888553748057761"><ele>319.25</ele><time>2026-04-02T06:01:31.999Z</time></trkpt><trkpt lat="36.90046404350576" lon="14.888656400486298"><ele>320.0</ele><time>2026-04-02T06:01:32.999Z</time></trkpt><trkpt lat="36.90055094611288" lon="14.888785160054901"><ele>320.0</ele><time>2026-04-02T06:01:33.999Z</time></trkpt><trkpt lat="36.90061696107539" lon="14.888940743080958"><ele>320.0</ele><time>2026-04-02T06:01:34.999Z</time></trkpt><trkpt lat="36.90067140234429" lon="14.889113472172264"><ele>320.0</ele><time>2026-04-02T06:01:35.999Z</time></trkpt><trkpt lat="36.900725271500086" lon="14.889277386234625"><ele>320.0</ele><time>2026-04-02T06:01:36.999Z</time></trkpt><trkpt lat="36.90078365441011" lon="14.889443880201656"><ele>320.33333333333337</ele><time>2026-04-02T06:01:37.999Z</time></trkpt><trkpt lat="36.90084417999677" lon="14.889612443788623"><ele>320.6666666666667</ele><time>2026-04-02T06:01:38.999Z</time></trkpt><trkpt lat="36.900905926069875" lon="14.889783929746754"><ele>321.0</ele><time>2026-04-02T06:01:39.999Z</time></trkpt><trkpt lat="36.90096839911435" lon="14.889958470332353"><ele>322.6666666666667</ele><time>2026-04-02T06:01:40.999Z</time></trkpt><trkpt lat="36.90102878006223" lon="14.890133977832852"><ele>324.33333333333337</ele><time>2026-04-02T06:01:41.999Z</time></trkpt><trkpt lat="36.901090721922486" lon="14.890310187843353"><ele>326.0</ele><time>2026-04-02T06:01:42.999Z</time></trkpt><trkpt lat="36.901151955092985" lon="14.89048730007587"><ele>326.0</ele><time>2026-04-02T06:01:43.999Z</time></trkpt><trkpt lat="36.90121305076075" lon="14.890664029630356"><ele>326.0</ele><time>2026-04-02T06:01:44.999Z</time></trkpt><trkpt lat="36.90127018537948" lon="14.890830906811296"><ele>326.0</ele><time>2026-04-02T06:01:45.999Z</time></trkpt><trkpt lat="36.90132407241883" lon="14.890988635844531"><ele>326.0</ele><time>2026-04-02T06:01:46.999Z</time></trkpt><trkpt lat="36.90137624285499" lon="14.89114160566899"><ele>326.5</ele><time>2026-04-02T06:01:47.999Z</time></trkpt><trkpt lat="36.90142680041343" lon="14.891289430291957"><ele>327.0</ele><time>2026-04-02T06:01:48.999Z</time></trkpt><trkpt lat="36.901482118828504" lon="14.891432203309105"><ele>327.5</ele><time>2026-04-02T06:01:49.999Z</time></trkpt><trkpt lat="36.90155090445783" lon="14.891567975723298"><ele>328.0</ele><time>2026-04-02T06:01:50.999Z</time></trkpt><trkpt lat="36.90161542069429" lon="14.891700671502377"><ele>327.5</ele><time>2026-04-02T06:01:51.999Z</time></trkpt><trkpt lat="36.90167889250489" lon="14.891827278332519"><ele>327.0</ele><time>2026-04-02T06:01:52.999Z</time></trkpt><trkpt lat="36.901742867802156" lon="14.89195429515777"><ele>326.5</ele><time>2026-04-02T06:01:53.999Z</time></trkpt><trkpt lat="36.901804517692284" lon="14.892078384947625"><ele>326.0</ele><time>2026-04-02T06:01:54.999Z</time></trkpt><trkpt lat="36.90186282701005" lon="14.892201574792994"><ele>326.0</ele><time>2026-04-02T06:01:55.999Z</time></trkpt><trkpt lat="36.90191825795374" lon="14.892315325914364"><ele>326.0</ele><time>2026-04-02T06:01:56.999Z</time></trkpt><trkpt lat="36.90197579551174" lon="14.892425419546067"><ele>326.0</ele><time>2026-04-02T06:01:57.999Z</time></trkpt><trkpt lat="36.90202797158649" lon="14.892532267750065"><ele>326.0</ele><time>2026-04-02T06:01:58.999Z</time></trkpt><trkpt lat="36.902074531483244" lon="14.892623911914464"><ele>326.0</ele><time>2026-04-02T06:01:59.999Z</time></trkpt><trkpt lat="36.90211565882971" lon="14.8926994572717"><ele>325.42857142857144</ele><time>2026-04-02T06:02:00.999Z</time></trkpt><trkpt lat="36.902160009790464" lon="14.892765091257417"><ele>324.85714285714283</ele><time>2026-04-02T06:02:01.999Z</time></trkpt><trkpt lat="36.902207135946" lon="14.892826287911523"><ele>324.2857142857143</ele><time>2026-04-02T06:02:02.999Z</time></trkpt><trkpt lat="36.902258109748715" lon="14.89288137230067"><ele>323.7142857142857</ele><time>2026-04-02T06:02:03.999Z</time></trkpt><trkpt lat="36.902319552763004" lon="14.892932353790654"><ele>323.1428571428571</ele><time>2026-04-02T06:02:04.999Z</time></trkpt><trkpt lat="36.90238332368603" lon="14.892983825567972"><ele>322.57142857142856</ele><time>2026-04-02T06:02:05.999Z</time></trkpt><trkpt lat="36.902447577614026" lon="14.893045108439196"><ele>322.0</ele><time>2026-04-02T06:02:06.999Z</time></trkpt><trkpt lat="36.9025088034296" lon="14.893115420067657"><ele>322.0</ele><time>2026-04-02T06:02:07.999Z</time></trkpt><trkpt lat="36.9025686426408" lon="14.89319189297274"><ele>322.0</ele><time>2026-04-02T06:02:08.999Z</time></trkpt><trkpt lat="36.90262719629954" lon="14.893271012562979"><ele>322.0</ele><time>2026-04-02T06:02:09.999Z</time></trkpt><trkpt lat="36.90268262372456" lon="14.893353578228677"><ele>322.0</ele><time>2026-04-02T06:02:10.999Z</time></trkpt><trkpt lat="36.902731734594205" lon="14.893434574166017"><ele>322.0</ele><time>2026-04-02T06:02:11.999Z</time></trkpt><trkpt lat="36.90277325370684" lon="14.89351862927165"><ele>322.0</ele><time>2026-04-02T06:02:12.999Z</time></trkpt><trkpt lat="36.902805726812126" lon="14.893591734754112"><ele>321.3333333333333</ele><time>2026-04-02T06:02:13.999Z</time></trkpt><trkpt lat="36.90283784585047" lon="14.89365989224622"><ele>320.66666666666663</ele><time>2026-04-02T06:02:14.999Z</time></trkpt><trkpt lat="36.902926835094306" lon="14.893781953228304"><ele>320.0</ele><time>2026-04-02T06:02:16.999Z</time></trkpt><trkpt lat="36.902985261342224" lon="14.89384827490413"><ele>319.3333333333333</ele><time>2026-04-02T06:02:17.999Z</time></trkpt><trkpt lat="36.90304696516889" lon="14.893912490931019"><ele>318.6666666666667</ele><time>2026-04-02T06:02:18.999Z</time></trkpt><trkpt lat="36.90310878241534" lon="14.893976750972797"><ele>318.0</ele><time>2026-04-02T06:02:19.999Z</time></trkpt><trkpt lat="36.90317165755993" lon="14.894042713268432"><ele>318.0</ele><time>2026-04-02T06:02:20.999Z</time></trkpt><trkpt lat="36.903233817933646" lon="14.894113524369352"><ele>318.0</ele><time>2026-04-02T06:02:21.999Z</time></trkpt><trkpt lat="36.90329708273226" lon="14.894189623497608"><ele>318.0</ele><time>2026-04-02T06:02:22.999Z</time></trkpt><trkpt lat="36.903363151164896" lon="14.894268100882178"><ele>318.0</ele><time>2026-04-02T06:02:23.999Z</time></trkpt><trkpt lat="36.90342821417901" lon="14.894345432411448"><ele>318.0</ele><time>2026-04-02T06:02:24.999Z</time></trkpt><trkpt lat="36.903494080697506" lon="14.89442458501134"><ele>318.0</ele><time>2026-04-02T06:02:25.999Z</time></trkpt><trkpt lat="36.90356401800284" lon="14.894507286999682"><ele>317.0</ele><time>2026-04-02T06:02:26.999Z</time></trkpt><trkpt lat="36.90363388785438" lon="14.894587317923653"><ele>316.0</ele><time>2026-04-02T06:02:27.999Z</time></trkpt><trkpt lat="36.90370721094736" lon="14.894667647626862"><ele>315.0</ele><time>2026-04-02T06:02:28.999Z</time></trkpt><trkpt lat="36.90377888811475" lon="14.894747418294152"><ele>314.0</ele><time>2026-04-02T06:02:29.999Z</time></trkpt><trkpt lat="36.903851822181814" lon="14.894827380269414"><ele>313.0</ele><time>2026-04-02T06:02:30.999Z</time></trkpt><trkpt lat="36.903926382650404" lon="14.894908754959307"><ele>313.0</ele><time>2026-04-02T06:02:31.999Z</time></trkpt><trkpt lat="36.904001457108464" lon="14.894985069703768"><ele>313.0</ele><time>2026-04-02T06:02:32.999Z</time></trkpt><trkpt lat="36.904076824563674" lon="14.895060216764023"><ele>313.0</ele><time>2026-04-02T06:02:33.999Z</time></trkpt><trkpt lat="36.90415377756583" lon="14.895131415768398"><ele>313.0</ele><time>2026-04-02T06:02:34.999Z</time></trkpt><trkpt lat="36.90423371940741" lon="14.895197617570153"><ele>313.0</ele><time>2026-04-02T06:02:35.999Z</time></trkpt><trkpt lat="36.904316137580295" lon="14.895257424183054"><ele>311.8</ele><time>2026-04-02T06:02:36.999Z</time></trkpt><trkpt lat="36.90440497445526" lon="14.895312434346412"><ele>310.6</ele><time>2026-04-02T06:02:37.999Z</time></trkpt><trkpt lat="36.90449774860782" lon="14.895368929183393"><ele>309.4</ele><time>2026-04-02T06:02:38.999Z</time></trkpt><trkpt lat="36.90458994010716" lon="14.895428761000272"><ele>308.2</ele><time>2026-04-02T06:02:39.999Z</time></trkpt><trkpt lat="36.9046824327105" lon="14.895491890159112"><ele>307.0</ele><time>2026-04-02T06:02:40.999Z</time></trkpt><trkpt lat="36.90477361736275" lon="14.89555542255893"><ele>307.0</ele><time>2026-04-02T06:02:42Z</time></trkpt><trkpt lat="36.90486509851121" lon="14.895618322396318"><ele>307.0</ele><time>2026-04-02T06:02:43Z</time></trkpt><trkpt lat="36.904954772203695" lon="14.895678900798416"><ele>307.0</ele><time>2026-04-02T06:02:44Z</time></trkpt><trkpt lat="36.905047267809984" lon="14.895737421894987"><ele>307.0</ele><time>2026-04-02T06:02:45Z</time></trkpt><trkpt lat="36.90514128921913" lon="14.895788627914797"><ele>307.0</ele><time>2026-04-02T06:02:46Z</time></trkpt><trkpt lat="36.90524075716598" lon="14.895833555708265"><ele>306.6</ele><time>2026-04-02T06:02:47Z</time></trkpt><trkpt lat="36.90534134095108" lon="14.895865068675176"><ele>306.2</ele><time>2026-04-02T06:02:48Z</time></trkpt><trkpt lat="36.905437689473345" lon="14.895893630557103"><ele>305.8</ele><time>2026-04-02T06:02:49Z</time></trkpt><trkpt lat="36.90552984836459" lon="14.89592141485712"><ele>305.4</ele><time>2026-04-02T06:02:50Z</time></trkpt><trkpt lat="36.90561845785732" lon="14.895943431992348"><ele>305.0</ele><time>2026-04-02T06:02:51Z</time></trkpt><trkpt lat="36.905706048104264" lon="14.895959361603413"><ele>304.1666666666667</ele><time>2026-04-02T06:02:52Z</time></trkpt><trkpt lat="36.905795260390015" lon="14.895967914240357"><ele>303.33333333333337</ele><time>2026-04-02T06:02:53Z</time></trkpt><trkpt lat="36.905883095093124" lon="14.895964458143492"><ele>302.5</ele><time>2026-04-02T06:02:54Z</time></trkpt><trkpt lat="36.90596835540568" lon="14.895945171205963"><ele>301.6666666666667</ele><time>2026-04-02T06:02:55Z</time></trkpt><trkpt lat="36.90604514760453" lon="14.895913513068878"><ele>300.8333333333333</ele><time>2026-04-02T06:02:56Z</time></trkpt><trkpt lat="36.90611977639214" lon="14.895888329773744"><ele>300.0</ele><time>2026-04-02T06:02:57Z</time></trkpt><trkpt lat="36.90619784752707" lon="14.895881532800464"><ele>300.0</ele><time>2026-04-02T06:02:58Z</time></trkpt><trkpt lat="36.90627598943544" lon="14.895900552302646"><ele>300.0</ele><time>2026-04-02T06:02:59Z</time></trkpt><trkpt lat="36.90633598577307" lon="14.895931909482451"><ele>300.0</ele><time>2026-04-02T06:03:00Z</time></trkpt><trkpt lat="36.9064360707451" lon="14.895986263049338"><ele>300.0</ele><time>2026-04-02T06:03:02Z</time></trkpt><trkpt lat="36.90655682623423" lon="14.896042981106364"><ele>300.0</ele><time>2026-04-02T06:03:04Z</time></trkpt><trkpt lat="36.906627333889524" lon="14.8960821607018"><ele>300.0</ele><time>2026-04-02T06:03:05Z</time></trkpt><trkpt lat="36.90669348987049" lon="14.896113218867079"><ele>300.0</ele><time>2026-04-02T06:03:06Z</time></trkpt><trkpt lat="36.90676947581771" lon="14.896168906744292"><ele>300.0</ele><time>2026-04-02T06:03:07Z</time></trkpt><trkpt lat="36.90685339161187" lon="14.896227917118042"><ele>300.0</ele><time>2026-04-02T06:03:08Z</time></trkpt><trkpt lat="36.906929636528226" lon="14.896287530339503"><ele>300.0</ele><time>2026-04-02T06:03:09Z</time></trkpt><trkpt lat="36.907000971788264" lon="14.89635392478919"><ele>300.0</ele><time>2026-04-02T06:03:10Z</time></trkpt><trkpt lat="36.90705865724659" lon="14.896435543235063"><ele>297.3333333333333</ele><time>2026-04-02T06:03:11Z</time></trkpt><trkpt lat="36.9070986873206" lon="14.89652009450457"><ele>294.6666666666667</ele><time>2026-04-02T06:03:12Z</time></trkpt><trkpt lat="36.9071170989488" lon="14.89661340740569"><ele>292.0</ele><time>2026-04-02T06:03:13Z</time></trkpt><trkpt lat="36.90709779821795" lon="14.896709447844023"><ele>289.33333333333337</ele><time>2026-04-02T06:03:14Z</time></trkpt><trkpt lat="36.90709107837221" lon="14.896793163313502"><ele>286.6666666666667</ele><time>2026-04-02T06:03:15Z</time></trkpt><trkpt lat="36.907091460804025" lon="14.896872747300526"><ele>284.0</ele><time>2026-04-02T06:03:16Z</time></trkpt><trkpt lat="36.90708350531566" lon="14.896997733724987"><ele>283.6666666666667</ele><time>2026-04-02T06:03:18Z</time></trkpt><trkpt lat="36.907115427522946" lon="14.897101666225419"><ele>283.33333333333337</ele><time>2026-04-02T06:03:20Z</time></trkpt><trkpt lat="36.90721487995828" lon="14.897109817168184"><ele>283.0</ele><time>2026-04-02T06:03:22Z</time></trkpt><trkpt lat="36.907311305902404" lon="14.897031231190702"><ele>282.6666666666667</ele><time>2026-04-02T06:03:24Z</time></trkpt><trkpt lat="36.907332386488264" lon="14.89694984239705"><ele>282.3333333333333</ele><time>2026-04-02T06:03:25Z</time></trkpt><trkpt lat="36.90734435436871" lon="14.89686325775812"><ele>282.0</ele><time>2026-04-02T06:03:26Z</time></trkpt><trkpt lat="36.90733754581935" lon="14.89676861614931"><ele>282.3333333333333</ele><time>2026-04-02T06:03:27Z</time></trkpt><trkpt lat="36.90734278960015" lon="14.896675168152507"><ele>282.6666666666667</ele><time>2026-04-02T06:03:28Z</time></trkpt><trkpt lat="36.90735759296178" lon="14.896584278676078"><ele>283.0</ele><time>2026-04-02T06:03:29Z</time></trkpt><trkpt lat="36.90733708201762" lon="14.896488616334837"><ele>283.33333333333337</ele><time>2026-04-02T06:03:30Z</time></trkpt><trkpt lat="36.9073068186875" lon="14.89639175127725"><ele>283.6666666666667</ele><time>2026-04-02T06:03:31Z</time></trkpt><trkpt lat="36.90727091057531" lon="14.896294929549317"><ele>284.0</ele><time>2026-04-02T06:03:32Z</time></trkpt><trkpt lat="36.907233989463734" lon="14.896198684415788"><ele>284.0</ele><time>2026-04-02T06:03:33Z</time></trkpt><trkpt lat="36.90719358774352" lon="14.896098108082963"><ele>284.0</ele><time>2026-04-02T06:03:33.999Z</time></trkpt><trkpt lat="36.90715267004451" lon="14.895996074245348"><ele>284.0</ele><time>2026-04-02T06:03:34.999Z</time></trkpt><trkpt lat="36.90711116874347" lon="14.895890941465113"><ele>284.0</ele><time>2026-04-02T06:03:35.999Z</time></trkpt><trkpt lat="36.90707059945297" lon="14.895783726818285"><ele>284.0</ele><time>2026-04-02T06:03:36.999Z</time></trkpt><trkpt lat="36.90703667991112" lon="14.895676669587163"><ele>283.8</ele><time>2026-04-02T06:03:37.999Z</time></trkpt><trkpt lat="36.90701296747579" lon="14.895566586734242"><ele>283.59999999999997</ele><time>2026-04-02T06:03:38.999Z</time></trkpt><trkpt lat="36.907001483351" lon="14.895454861697862"><ele>283.4</ele><time>2026-04-02T06:03:39.999Z</time></trkpt><trkpt lat="36.90700261114526" lon="14.895346940737017"><ele>283.2</ele><time>2026-04-02T06:03:40.999Z</time></trkpt><trkpt lat="36.9070135313247" lon="14.895255620825447"><ele>283.0</ele><time>2026-04-02T06:03:41.999Z</time></trkpt><trkpt lat="36.907062043584105" lon="14.895124058844129"><ele>283.0</ele><time>2026-04-02T06:03:43.999Z</time></trkpt><trkpt lat="36.907139567994456" lon="14.895065762760677"><ele>283.0</ele><time>2026-04-02T06:03:45.999Z</time></trkpt><trkpt lat="36.9072338661266" lon="14.895113284971806"><ele>283.0</ele><time>2026-04-02T06:03:47.999Z</time></trkpt><trkpt lat="36.90728219014655" lon="14.895253885898295"><ele>283.0</ele><time>2026-04-02T06:03:49.999Z</time></trkpt><trkpt lat="36.90730938190463" lon="14.8953288250025"><ele>283.0</ele><time>2026-04-02T06:03:50.999Z</time></trkpt><trkpt lat="36.90734385661298" lon="14.895397117286596"><ele>283.0</ele><time>2026-04-02T06:03:51.999Z</time></trkpt><trkpt lat="36.90740763017556" lon="14.895487780242972"><ele>283.0</ele><time>2026-04-02T06:03:53.999Z</time></trkpt><trkpt lat="36.90750416490559" lon="14.895564317258017"><ele>283.0</ele><time>2026-04-02T06:03:55.999Z</time></trkpt><trkpt lat="36.907568398845974" lon="14.89558790551422"><ele>283.0</ele><time>2026-04-02T06:03:56.999Z</time></trkpt><trkpt lat="36.90763791171068" lon="14.895611611545176"><ele>283.0</ele><time>2026-04-02T06:03:57.999Z</time></trkpt><trkpt lat="36.90771094940285" lon="14.89563988456139"><ele>283.0</ele><time>2026-04-02T06:03:58.999Z</time></trkpt><trkpt lat="36.90778680162212" lon="14.89566744316022"><ele>283.0</ele><time>2026-04-02T06:03:59.999Z</time></trkpt><trkpt lat="36.907865102467014" lon="14.895692863126332"><ele>284.16666666666663</ele><time>2026-04-02T06:04:00.999Z</time></trkpt><trkpt lat="36.90794391410063" lon="14.895719317035832"><ele>285.3333333333333</ele><time>2026-04-02T06:04:01.999Z</time></trkpt><trkpt lat="36.908018933726986" lon="14.895747626747712"><ele>286.5</ele><time>2026-04-02T06:04:02.999Z</time></trkpt><trkpt lat="36.908085608575256" lon="14.895771558196813"><ele>287.6666666666667</ele><time>2026-04-02T06:04:03.999Z</time></trkpt><trkpt lat="36.90819157594885" lon="14.895791349516555"><ele>288.83333333333337</ele><time>2026-04-02T06:04:05.999Z</time></trkpt><trkpt lat="36.90828470058551" lon="14.895737784721682"><ele>290.0</ele><time>2026-04-02T06:04:07.999Z</time></trkpt><trkpt lat="36.90831528031064" lon="14.895603417086482"><ele>290.0</ele><time>2026-04-02T06:04:09.999Z</time></trkpt><trkpt lat="36.90823701082831" lon="14.89549313035043"><ele>290.0</ele><time>2026-04-02T06:04:11.999Z</time></trkpt><trkpt lat="36.90817162237756" lon="14.89548337212564"><ele>290.0</ele><time>2026-04-02T06:04:12.999Z</time></trkpt><trkpt lat="36.908054934040614" lon="14.895489007074472"><ele>290.0</ele><time>2026-04-02T06:04:14.999Z</time></trkpt><trkpt lat="36.90796639041209" lon="14.895469437846247"><ele>290.0</ele><time>2026-04-02T06:04:16.999Z</time></trkpt><trkpt lat="36.907909379865345" lon="14.89539889239015"><ele>290.0</ele><time>2026-04-02T06:04:18.999Z</time></trkpt><trkpt lat="36.90792450752271" lon="14.89529739202197"><ele>290.0</ele><time>2026-04-02T06:04:20.999Z</time></trkpt><trkpt lat="36.90801503504099" lon="14.895258217797071"><ele>290.0</ele><time>2026-04-02T06:04:22.999Z</time></trkpt><trkpt lat="36.908142621888196" lon="14.895262737679602"><ele>290.0</ele><time>2026-04-02T06:04:24.999Z</time></trkpt><trkpt lat="36.90821544445662" lon="14.895260561904342"><ele>290.0</ele><time>2026-04-02T06:04:25.999Z</time></trkpt><trkpt lat="36.90829027571396" lon="14.89525752577474"><ele>290.0</ele><time>2026-04-02T06:04:26.999Z</time></trkpt><trkpt lat="36.90836577728798" lon="14.895251687536156"><ele>290.0</ele><time>2026-04-02T06:04:27.999Z</time></trkpt><trkpt lat="36.90843932274761" lon="14.89523700503281"><ele>290.0</ele><time>2026-04-02T06:04:28.999Z</time></trkpt><trkpt lat="36.908511028247524" lon="14.895229105060306"><ele>290.0</ele><time>2026-04-02T06:04:29.999Z</time></trkpt><trkpt lat="36.90856972428655" lon="14.895166626897728"><ele>290.0</ele><time>2026-04-02T06:04:30.999Z</time></trkpt><trkpt lat="36.908638253013756" lon="14.895130367988385"><ele>290.0</ele><time>2026-04-02T06:04:31.999Z</time></trkpt><trkpt lat="36.908711462827355" lon="14.895095742947694"><ele>290.1666666666667</ele><time>2026-04-02T06:04:32.999Z</time></trkpt><trkpt lat="36.90879152439287" lon="14.895065758604812"><ele>290.33333333333337</ele><time>2026-04-02T06:04:33.999Z</time></trkpt><trkpt lat="36.90887402884101" lon="14.895063339504924"><ele>290.5</ele><time>2026-04-02T06:04:34.999Z</time></trkpt><trkpt lat="36.90896041462534" lon="14.895036205871927"><ele>290.6666666666667</ele><time>2026-04-02T06:04:35.999Z</time></trkpt><trkpt lat="36.909048722498326" lon="14.895032889127476"><ele>290.8333333333333</ele><time>2026-04-02T06:04:36.999Z</time></trkpt><trkpt lat="36.90913334991375" lon="14.89502908653317"><ele>291.0</ele><time>2026-04-02T06:04:37.999Z</time></trkpt><trkpt lat="36.90922140127896" lon="14.89501267155469"><ele>289.3333333333333</ele><time>2026-04-02T06:04:38.999Z</time></trkpt><trkpt lat="36.90930881423854" lon="14.894978918524817"><ele>287.6666666666667</ele><time>2026-04-02T06:04:39.999Z</time></trkpt><trkpt lat="36.90939229084643" lon="14.894929731291517"><ele>286.0</ele><time>2026-04-02T06:04:40.999Z</time></trkpt><trkpt lat="36.909474065885505" lon="14.894871142220762"><ele>284.33333333333337</ele><time>2026-04-02T06:04:41.999Z</time></trkpt><trkpt lat="36.9095452839561" lon="14.8948130406086"><ele>282.6666666666667</ele><time>2026-04-02T06:04:42.999Z</time></trkpt><trkpt lat="36.90961133632761" lon="14.894750076008943"><ele>281.0</ele><time>2026-04-02T06:04:43.999Z</time></trkpt><trkpt lat="36.90967654641499" lon="14.894688475160244"><ele>281.0</ele><time>2026-04-02T06:04:44.999Z</time></trkpt><trkpt lat="36.90973060447271" lon="14.894635469479068"><ele>281.0</ele><time>2026-04-02T06:04:45.999Z</time></trkpt><trkpt lat="36.90980755937543" lon="14.894537269208078"><ele>281.0</ele><time>2026-04-02T06:04:48Z</time></trkpt><trkpt lat="36.90981022010174" lon="14.894414282800007"><ele>281.0</ele><time>2026-04-02T06:04:50Z</time></trkpt><trkpt lat="36.90977011000971" lon="14.894351379559218"><ele>281.0</ele><time>2026-04-02T06:04:51Z</time></trkpt><trkpt lat="36.909729552055424" lon="14.894287882117256"><ele>281.0</ele><time>2026-04-02T06:04:52Z</time></trkpt><trkpt lat="36.90969032990721" lon="14.894209852657218"><ele>281.33333333333337</ele><time>2026-04-02T06:04:53Z</time></trkpt><trkpt lat="36.909657605459046" lon="14.894121375489227"><ele>281.6666666666667</ele><time>2026-04-02T06:04:54Z</time></trkpt><trkpt lat="36.909630274865734" lon="14.894023626185822"><ele>282.0</ele><time>2026-04-02T06:04:55Z</time></trkpt><trkpt lat="36.90960427693897" lon="14.89390965389625"><ele>282.3333333333333</ele><time>2026-04-02T06:04:56Z</time></trkpt><trkpt lat="36.9095807006587" lon="14.893796621251589"><ele>282.66666666666663</ele><time>2026-04-02T06:04:57Z</time></trkpt><trkpt lat="36.90956255118112" lon="14.893691518038407"><ele>283.0</ele><time>2026-04-02T06:04:58Z</time></trkpt><trkpt lat="36.90954859530752" lon="14.89357582634264"><ele>283.0</ele><time>2026-04-02T06:04:59Z</time></trkpt><trkpt lat="36.90954703505332" lon="14.893451698962851"><ele>283.0</ele><time>2026-04-02T06:05:00Z</time></trkpt><trkpt lat="36.90954942584159" lon="14.8933258727676"><ele>283.0</ele><time>2026-04-02T06:05:01Z</time></trkpt><trkpt lat="36.90955575419699" lon="14.893192097532806"><ele>283.0</ele><time>2026-04-02T06:05:02Z</time></trkpt><trkpt lat="36.909564939209574" lon="14.893058758496828"><ele>283.0</ele><time>2026-04-02T06:05:03Z</time></trkpt><trkpt lat="36.90957279407522" lon="14.892922238400825"><ele>284.4</ele><time>2026-04-02T06:05:04Z</time></trkpt><trkpt lat="36.90958234583336" lon="14.892786669899127"><ele>285.8</ele><time>2026-04-02T06:05:05Z</time></trkpt><trkpt lat="36.90959227122371" lon="14.892650364339975"><ele>287.2</ele><time>2026-04-02T06:05:06Z</time></trkpt><trkpt lat="36.90960084004329" lon="14.89251476147604"><ele>288.6</ele><time>2026-04-02T06:05:07Z</time></trkpt><trkpt lat="36.909610895303175" lon="14.892377722301871"><ele>290.0</ele><time>2026-04-02T06:05:08Z</time></trkpt><trkpt lat="36.90961995667706" lon="14.892239138387255"><ele>290.6</ele><time>2026-04-02T06:05:09Z</time></trkpt><trkpt lat="36.909628853043984" lon="14.892105238719777"><ele>291.2</ele><time>2026-04-02T06:05:10Z</time></trkpt><trkpt lat="36.90963944040217" lon="14.891969923538893"><ele>291.8</ele><time>2026-04-02T06:05:11Z</time></trkpt><trkpt lat="36.90964977909262" lon="14.891835079410992"><ele>292.4</ele><time>2026-04-02T06:05:12Z</time></trkpt><trkpt lat="36.909660306006316" lon="14.891697753703452"><ele>293.0</ele><time>2026-04-02T06:05:13Z</time></trkpt><trkpt lat="36.90967099919715" lon="14.891560605186543"><ele>293.4</ele><time>2026-04-02T06:05:14Z</time></trkpt><trkpt lat="36.90968259364813" lon="14.891422407061508"><ele>293.8</ele><time>2026-04-02T06:05:15Z</time></trkpt><trkpt lat="36.90970217814925" lon="14.891285406983908"><ele>294.2</ele><time>2026-04-02T06:05:16Z</time></trkpt><trkpt lat="36.90973210769519" lon="14.891150950913472"><ele>294.6</ele><time>2026-04-02T06:05:17Z</time></trkpt><trkpt lat="36.90976778776543" lon="14.891024388844519"><ele>295.0</ele><time>2026-04-02T06:05:18Z</time></trkpt><trkpt lat="36.9098055388552" lon="14.890901549320366"><ele>295.8</ele><time>2026-04-02T06:05:19Z</time></trkpt><trkpt lat="36.90984340955979" lon="14.890778429506936"><ele>296.6</ele><time>2026-04-02T06:05:20Z</time></trkpt><trkpt lat="36.909874795641336" lon="14.890646688009593"><ele>297.4</ele><time>2026-04-02T06:05:21Z</time></trkpt><trkpt lat="36.90989293977051" lon="14.890507565085548"><ele>298.2</ele><time>2026-04-02T06:05:22Z</time></trkpt><trkpt lat="36.90989908644344" lon="14.890367594635851"><ele>299.0</ele><time>2026-04-02T06:05:23Z</time></trkpt><trkpt lat="36.90990049571737" lon="14.890231789916278"><ele>299.0</ele><time>2026-04-02T06:05:24Z</time></trkpt><trkpt lat="36.90990992637773" lon="14.890097147914396"><ele>299.0</ele><time>2026-04-02T06:05:25Z</time></trkpt><trkpt lat="36.909928205765084" lon="14.889958001324318"><ele>299.0</ele><time>2026-04-02T06:05:26Z</time></trkpt><trkpt lat="36.909950317697934" lon="14.889819580543445"><ele>299.0</ele><time>2026-04-02T06:05:27Z</time></trkpt><trkpt lat="36.909973930411816" lon="14.889689482742353"><ele>299.0</ele><time>2026-04-02T06:05:28Z</time></trkpt><trkpt lat="36.909996068691775" lon="14.889559201934214"><ele>299.5</ele><time>2026-04-02T06:05:29Z</time></trkpt><trkpt lat="36.91002699048174" lon="14.889426865658677"><ele>300.0</ele><time>2026-04-02T06:05:30Z</time></trkpt><trkpt lat="36.91006747142463" lon="14.88929404699852"><ele>300.5</ele><time>2026-04-02T06:05:31Z</time></trkpt><trkpt lat="36.91011649776408" lon="14.88916240222435"><ele>301.0</ele><time>2026-04-02T06:05:32Z</time></trkpt><trkpt lat="36.91016354149276" lon="14.889033820296858"><ele>304.2</ele><time>2026-04-02T06:05:33Z</time></trkpt><trkpt lat="36.910209413883706" lon="14.888909724733873"><ele>307.40000000000003</ele><time>2026-04-02T06:05:34Z</time></trkpt><trkpt lat="36.91025490588634" lon="14.88879252990122"><ele>310.6</ele><time>2026-04-02T06:05:35Z</time></trkpt><trkpt lat="36.91030623743872" lon="14.888677300520564"><ele>313.8</ele><time>2026-04-02T06:05:36Z</time></trkpt><trkpt lat="36.910369975075035" lon="14.888560342393422"><ele>317.0</ele><time>2026-04-02T06:05:37Z</time></trkpt><trkpt lat="36.910440966681755" lon="14.888444103558715"><ele>315.5</ele><time>2026-04-02T06:05:38Z</time></trkpt><trkpt lat="36.9105159350962" lon="14.888325933583294"><ele>314.0</ele><time>2026-04-02T06:05:39Z</time></trkpt><trkpt lat="36.91059073560559" lon="14.888205653809734"><ele>312.5</ele><time>2026-04-02T06:05:40Z</time></trkpt><trkpt lat="36.91066681260221" lon="14.888083301976822"><ele>311.0</ele><time>2026-04-02T06:05:41Z</time></trkpt><trkpt lat="36.91074340379795" lon="14.887957583322013"><ele>311.0</ele><time>2026-04-02T06:05:42Z</time></trkpt><trkpt lat="36.91081901154773" lon="14.887833571286288"><ele>311.0</ele><time>2026-04-02T06:05:43Z</time></trkpt><trkpt lat="36.910895924039046" lon="14.887715057046693"><ele>311.0</ele><time>2026-04-02T06:05:44Z</time></trkpt><trkpt lat="36.91097227118857" lon="14.887593815806563"><ele>311.0</ele><time>2026-04-02T06:05:45Z</time></trkpt><trkpt lat="36.91104542822576" lon="14.88747212564577"><ele>312.40000000000003</ele><time>2026-04-02T06:05:46Z</time></trkpt><trkpt lat="36.911110284283694" lon="14.88734908424847"><ele>313.8</ele><time>2026-04-02T06:05:46.999Z</time></trkpt><trkpt lat="36.91116731741264" lon="14.887226866541742"><ele>315.20000000000005</ele><time>2026-04-02T06:05:47.999Z</time></trkpt><trkpt lat="36.91122234393611" lon="14.887104676327814"><ele>316.6</ele><time>2026-04-02T06:05:48.999Z</time></trkpt><trkpt lat="36.911277513233344" lon="14.886992270485717"><ele>318.0</ele><time>2026-04-02T06:05:49.999Z</time></trkpt><trkpt lat="36.911343899104615" lon="14.88689035155374"><ele>318.0</ele><time>2026-04-02T06:05:50.999Z</time></trkpt><trkpt lat="36.91142403309311" lon="14.88680050895914"><ele>318.0</ele><time>2026-04-02T06:05:51.999Z</time></trkpt><trkpt lat="36.9115126073371" lon="14.886714039087837"><ele>318.0</ele><time>2026-04-02T06:05:52.999Z</time></trkpt><trkpt lat="36.91161150622641" lon="14.886638250169964"><ele>318.0</ele><time>2026-04-02T06:05:53.999Z</time></trkpt><trkpt lat="36.91169828565748" lon="14.886550497910278"><ele>318.0</ele><time>2026-04-02T06:05:54.999Z</time></trkpt><trkpt lat="36.91178398407655" lon="14.88647202837986"><ele>319.0</ele><time>2026-04-02T06:05:55.999Z</time></trkpt><trkpt lat="36.9118645686748" lon="14.886399172387213"><ele>320.0</ele><time>2026-04-02T06:05:56.999Z</time></trkpt><trkpt lat="36.91193698968805" lon="14.886327024616646"><ele>321.0</ele><time>2026-04-02T06:05:57.999Z</time></trkpt><trkpt lat="36.91200614323513" lon="14.886250177033613"><ele>322.0</ele><time>2026-04-02T06:05:58.999Z</time></trkpt><trkpt lat="36.91206330667843" lon="14.886179303995096"><ele>323.0</ele><time>2026-04-02T06:05:59.999Z</time></trkpt><trkpt lat="36.91211511029654" lon="14.886122176631455"><ele>324.0</ele><time>2026-04-02T06:06:00.999Z</time></trkpt><trkpt lat="36.91221161046831" lon="14.88604091761676"><ele>324.0</ele><time>2026-04-02T06:06:02.999Z</time></trkpt><trkpt lat="36.912297273405436" lon="14.886050778082424"><ele>324.0</ele><time>2026-04-02T06:06:04.999Z</time></trkpt><trkpt lat="36.91235300641288" lon="14.886169830600899"><ele>324.0</ele><time>2026-04-02T06:06:06.999Z</time></trkpt><trkpt lat="36.91235208885913" lon="14.8863250135588"><ele>324.0</ele><time>2026-04-02T06:06:08.999Z</time></trkpt><trkpt lat="36.91234848389211" lon="14.886403965076347"><ele>324.0</ele><time>2026-04-02T06:06:09.999Z</time></trkpt><trkpt lat="36.912353248209925" lon="14.886547732198459"><ele>324.0</ele><time>2026-04-02T06:06:11.999Z</time></trkpt><trkpt lat="36.912413844659085" lon="14.886638552110147"><ele>324.0</ele><time>2026-04-02T06:06:13.999Z</time></trkpt><trkpt lat="36.912514448164316" lon="14.88662013843744"><ele>324.0</ele><time>2026-04-02T06:06:15.999Z</time></trkpt><trkpt lat="36.912584166085885" lon="14.886487151591957"><ele>324.0</ele><time>2026-04-02T06:06:17.999Z</time></trkpt><trkpt lat="36.91260809926839" lon="14.886403537610084"><ele>324.0</ele><time>2026-04-02T06:06:18.999Z</time></trkpt><trkpt lat="36.912631698316034" lon="14.886316307465146"><ele>325.8333333333333</ele><time>2026-04-02T06:06:19.999Z</time></trkpt><trkpt lat="36.912663423782746" lon="14.886223682854121"><ele>327.6666666666667</ele><time>2026-04-02T06:06:20.999Z</time></trkpt><trkpt lat="36.91269397434776" lon="14.886129339153895"><ele>329.5</ele><time>2026-04-02T06:06:21.999Z</time></trkpt><trkpt lat="36.91272547975399" lon="14.886029472672806"><ele>331.33333333333337</ele><time>2026-04-02T06:06:22.999Z</time></trkpt><trkpt lat="36.91276155923039" lon="14.885927504723323"><ele>333.1666666666667</ele><time>2026-04-02T06:06:23.999Z</time></trkpt><trkpt lat="36.91279685088956" lon="14.885835417569144"><ele>335.0</ele><time>2026-04-02T06:06:24.999Z</time></trkpt><trkpt lat="36.91283057147047" lon="14.885718671285666"><ele>335.0</ele><time>2026-04-02T06:06:25.999Z</time></trkpt><trkpt lat="36.91286909074919" lon="14.885643817960265"><ele>335.0</ele><time>2026-04-02T06:06:26.999Z</time></trkpt><trkpt lat="36.91293022176107" lon="14.885565106287373"><ele>335.0</ele><time>2026-04-02T06:06:27.999Z</time></trkpt><trkpt lat="36.91299858929119" lon="14.885502896905308"><ele>335.0</ele><time>2026-04-02T06:06:28.999Z</time></trkpt><trkpt lat="36.91307902193685" lon="14.88544470446671"><ele>335.0</ele><time>2026-04-02T06:06:29.999Z</time></trkpt><trkpt lat="36.91316422390297" lon="14.885386198951"><ele>335.0</ele><time>2026-04-02T06:06:30.999Z</time></trkpt><trkpt lat="36.91324625231447" lon="14.885325143385764"><ele>335.0</ele><time>2026-04-02T06:06:31.999Z</time></trkpt><trkpt lat="36.91332917108518" lon="14.885263120535729"><ele>335.0</ele><time>2026-04-02T06:06:32.999Z</time></trkpt><trkpt lat="36.9134128233746" lon="14.885201413003383"><ele>335.0</ele><time>2026-04-02T06:06:33.999Z</time></trkpt><trkpt lat="36.913496668802004" lon="14.885138822468257"><ele>335.0</ele><time>2026-04-02T06:06:34.999Z</time></trkpt><trkpt lat="36.913578170119806" lon="14.885077550782926"><ele>335.0</ele><time>2026-04-02T06:06:35.999Z</time></trkpt><trkpt lat="36.91365826685898" lon="14.885019863307825"><ele>335.33333333333337</ele><time>2026-04-02T06:06:36.999Z</time></trkpt><trkpt lat="36.91373823893712" lon="14.884972972314477"><ele>335.6666666666667</ele><time>2026-04-02T06:06:37.999Z</time></trkpt><trkpt lat="36.913823644271325" lon="14.884941587432818"><ele>336.0</ele><time>2026-04-02T06:06:38.999Z</time></trkpt><trkpt lat="36.913911411282875" lon="14.884930603513522"><ele>336.3333333333333</ele><time>2026-04-02T06:06:39.999Z</time></trkpt><trkpt lat="36.91400003003997" lon="14.884938276064885"><ele>336.66666666666663</ele><time>2026-04-02T06:06:40.999Z</time></trkpt><trkpt lat="36.9140850584877" lon="14.88495586430414"><ele>337.0</ele><time>2026-04-02T06:06:41.999Z</time></trkpt><trkpt lat="36.91417513768059" lon="14.884973548643302"><ele>337.66666666666663</ele><time>2026-04-02T06:06:42.999Z</time></trkpt><trkpt lat="36.91426903577501" lon="14.88499075378205"><ele>338.3333333333333</ele><time>2026-04-02T06:06:43.999Z</time></trkpt><trkpt lat="36.914357871643624" lon="14.885006103218243"><ele>339.0</ele><time>2026-04-02T06:06:44.999Z</time></trkpt><trkpt lat="36.91444295336014" lon="14.885021782776468"><ele>339.6666666666667</ele><time>2026-04-02T06:06:45.999Z</time></trkpt><trkpt lat="36.91452446510647" lon="14.885040073084957"><ele>340.33333333333337</ele><time>2026-04-02T06:06:46.999Z</time></trkpt><trkpt lat="36.91459756886092" lon="14.88505723088331"><ele>341.0</ele><time>2026-04-02T06:06:47.999Z</time></trkpt><trkpt lat="36.91470772321136" lon="14.885084334407928"><ele>340.33333333333337</ele><time>2026-04-02T06:06:49.999Z</time></trkpt><trkpt lat="36.914776610241425" lon="14.885121232786108"><ele>339.6666666666667</ele><time>2026-04-02T06:06:51.999Z</time></trkpt><trkpt lat="36.91481777091384" lon="14.88522350380747"><ele>339.0</ele><time>2026-04-02T06:06:54Z</time></trkpt><trkpt lat="36.91482000151031" lon="14.885306594405295"><ele>338.3333333333333</ele><time>2026-04-02T06:06:55Z</time></trkpt><trkpt lat="36.91482461039168" lon="14.885409866250054"><ele>337.66666666666663</ele><time>2026-04-02T06:06:56Z</time></trkpt><trkpt lat="36.91483313217529" lon="14.885531847844707"><ele>337.0</ele><time>2026-04-02T06:06:57Z</time></trkpt><trkpt lat="36.914841697928885" lon="14.885648515780606"><ele>337.0</ele><time>2026-04-02T06:06:58Z</time></trkpt><trkpt lat="36.914851094836855" lon="14.885768364036927"><ele>337.0</ele><time>2026-04-02T06:06:59Z</time></trkpt><trkpt lat="36.91485859081515" lon="14.885898876195473"><ele>337.0</ele><time>2026-04-02T06:07:00Z</time></trkpt><trkpt lat="36.9148665723091" lon="14.886038410342637"><ele>337.0</ele><time>2026-04-02T06:07:01Z</time></trkpt><trkpt lat="36.91487516273594" lon="14.886187036359903"><ele>337.0</ele><time>2026-04-02T06:07:02Z</time></trkpt><trkpt lat="36.91488385431546" lon="14.886342701534168"><ele>336.75</ele><time>2026-04-02T06:07:03Z</time></trkpt><trkpt lat="36.91489213691765" lon="14.886502421578891"><ele>336.5</ele><time>2026-04-02T06:07:04Z</time></trkpt><trkpt lat="36.914900499169335" lon="14.886669398658013"><ele>336.25</ele><time>2026-04-02T06:07:05Z</time></trkpt><trkpt lat="36.914910206050145" lon="14.886839258339377"><ele>336.0</ele><time>2026-04-02T06:07:06Z</time></trkpt><trkpt lat="36.91492120026233" lon="14.887004881535074"><ele>336.0</ele><time>2026-04-02T06:07:07Z</time></trkpt><trkpt lat="36.91493187253662" lon="14.887175303637164"><ele>336.0</ele><time>2026-04-02T06:07:08Z</time></trkpt><trkpt lat="36.91494201596341" lon="14.88735167575403"><ele>336.0</ele><time>2026-04-02T06:07:09Z</time></trkpt><trkpt lat="36.914952626840176" lon="14.887526923983778"><ele>336.0</ele><time>2026-04-02T06:07:10Z</time></trkpt><trkpt lat="36.91496504552294" lon="14.887702952747087"><ele>335.75</ele><time>2026-04-02T06:07:11Z</time></trkpt><trkpt lat="36.914974224043064" lon="14.887878572450617"><ele>335.5</ele><time>2026-04-02T06:07:12Z</time></trkpt><trkpt lat="36.914985141286316" lon="14.888054541892425"><ele>335.25</ele><time>2026-04-02T06:07:13Z</time></trkpt><trkpt lat="36.91499582985022" lon="14.888229468319741"><ele>335.0</ele><time>2026-04-02T06:07:14Z</time></trkpt><trkpt lat="36.915005048630285" lon="14.888403055019117"><ele>333.75</ele><time>2026-04-02T06:07:15Z</time></trkpt><trkpt lat="36.91501435007984" lon="14.888579320083883"><ele>332.5</ele><time>2026-04-02T06:07:16Z</time></trkpt><trkpt lat="36.91502117621424" lon="14.888755984573484"><ele>331.25</ele><time>2026-04-02T06:07:17Z</time></trkpt><trkpt lat="36.915028068259915" lon="14.888927982860498"><ele>330.0</ele><time>2026-04-02T06:07:18Z</time></trkpt><trkpt lat="36.9150380701673" lon="14.889101201459248"><ele>329.5</ele><time>2026-04-02T06:07:19Z</time></trkpt><trkpt lat="36.91504952894244" lon="14.889273294204676"><ele>329.0</ele><time>2026-04-02T06:07:20Z</time></trkpt><trkpt lat="36.91505953848875" lon="14.889445637266405"><ele>328.5</ele><time>2026-04-02T06:07:21Z</time></trkpt><trkpt lat="36.915070290323385" lon="14.889616629547437"><ele>328.0</ele><time>2026-04-02T06:07:22Z</time></trkpt><trkpt lat="36.91508155221231" lon="14.889788541847002"><ele>326.25</ele><time>2026-04-02T06:07:23Z</time></trkpt><trkpt lat="36.915093369898976" lon="14.889963008431014"><ele>324.5</ele><time>2026-04-02T06:07:24Z</time></trkpt><trkpt lat="36.915108188137765" lon="14.890136523173357"><ele>322.75</ele><time>2026-04-02T06:07:25Z</time></trkpt><trkpt lat="36.915123559761504" lon="14.89030800156396"><ele>321.0</ele><time>2026-04-02T06:07:26Z</time></trkpt><trkpt lat="36.915139985084764" lon="14.890478992558915"><ele>320.75</ele><time>2026-04-02T06:07:27Z</time></trkpt><trkpt lat="36.91516633745309" lon="14.890647511384289"><ele>320.5</ele><time>2026-04-02T06:07:28Z</time></trkpt><trkpt lat="36.915191773126104" lon="14.890817449748267"><ele>320.25</ele><time>2026-04-02T06:07:29Z</time></trkpt><trkpt lat="36.91521705588034" lon="14.89098716939034"><ele>320.0</ele><time>2026-04-02T06:07:30Z</time></trkpt><trkpt lat="36.9152433630552" lon="14.891157092681908"><ele>320.0</ele><time>2026-04-02T06:07:31Z</time></trkpt><trkpt lat="36.9152679368987" lon="14.891327008840204"><ele>320.0</ele><time>2026-04-02T06:07:32Z</time></trkpt><trkpt lat="36.91529560517345" lon="14.891496415231497"><ele>320.0</ele><time>2026-04-02T06:07:33Z</time></trkpt><trkpt lat="36.91532190411676" lon="14.891664623439617"><ele>320.0</ele><time>2026-04-02T06:07:34Z</time></trkpt><trkpt lat="36.91534699548215" lon="14.891832139865485"><ele>320.25</ele><time>2026-04-02T06:07:35Z</time></trkpt><trkpt lat="36.91537005146689" lon="14.891999718720589"><ele>320.5</ele><time>2026-04-02T06:07:36Z</time></trkpt><trkpt lat="36.91538557358419" lon="14.892166865874405"><ele>320.75</ele><time>2026-04-02T06:07:37Z</time></trkpt><trkpt lat="36.91538732990244" lon="14.892333905477411"><ele>321.0</ele><time>2026-04-02T06:07:38Z</time></trkpt><trkpt lat="36.9153851211297" lon="14.892501436884379"><ele>320.75</ele><time>2026-04-02T06:07:39Z</time></trkpt><trkpt lat="36.9153793407249" lon="14.892667031049378"><ele>320.5</ele><time>2026-04-02T06:07:40Z</time></trkpt><trkpt lat="36.91536756976218" lon="14.89283102903006"><ele>320.25</ele><time>2026-04-02T06:07:41Z</time></trkpt><trkpt lat="36.91535923553056" lon="14.892994602694374"><ele>320.0</ele><time>2026-04-02T06:07:42Z</time></trkpt><trkpt lat="36.91534990427967" lon="14.893157790133046"><ele>320.0</ele><time>2026-04-02T06:07:43Z</time></trkpt><trkpt lat="36.91533501223307" lon="14.893321580683354"><ele>320.0</ele><time>2026-04-02T06:07:44Z</time></trkpt><trkpt lat="36.91531972493658" lon="14.893489966603713"><ele>320.0</ele><time>2026-04-02T06:07:45Z</time></trkpt><trkpt lat="36.91531110856061" lon="14.893660062904807"><ele>320.0</ele><time>2026-04-02T06:07:46Z</time></trkpt><trkpt lat="36.91530986556334" lon="14.893830949741671"><ele>318.0</ele><time>2026-04-02T06:07:47Z</time></trkpt><trkpt lat="36.915310915450036" lon="14.894005355181646"><ele>316.0</ele><time>2026-04-02T06:07:48Z</time></trkpt><trkpt lat="36.915313066537124" lon="14.894179136322318"><ele>314.0</ele><time>2026-04-02T06:07:49Z</time></trkpt><trkpt lat="36.915314597676094" lon="14.894350627786674"><ele>312.0</ele><time>2026-04-02T06:07:50Z</time></trkpt><trkpt lat="36.915319495280386" lon="14.894522774970206"><ele>310.0</ele><time>2026-04-02T06:07:51Z</time></trkpt><trkpt lat="36.915321850349514" lon="14.894693907172195"><ele>308.0</ele><time>2026-04-02T06:07:52Z</time></trkpt><trkpt lat="36.91532128601679" lon="14.89486517742682"><ele>306.0</ele><time>2026-04-02T06:07:53Z</time></trkpt><trkpt lat="36.91532270560825" lon="14.895036746311801"><ele>304.0</ele><time>2026-04-02T06:07:54Z</time></trkpt><trkpt lat="36.915323312023816" lon="14.895202297050751"><ele>303.0</ele><time>2026-04-02T06:07:54.999Z</time></trkpt><trkpt lat="36.91532252424029" lon="14.895347743406825"><ele>302.0</ele><time>2026-04-02T06:07:55.999Z</time></trkpt><trkpt lat="36.91532260415436" lon="14.895487859821706"><ele>301.0</ele><time>2026-04-02T06:07:56.999Z</time></trkpt><trkpt lat="36.91532274696765" lon="14.895629224524155"><ele>300.0</ele><time>2026-04-02T06:07:57.999Z</time></trkpt><trkpt lat="36.915329250285666" lon="14.895772687264683"><ele>300.0</ele><time>2026-04-02T06:07:58.999Z</time></trkpt><trkpt lat="36.915348126571786" lon="14.8959173254595"><ele>300.0</ele><time>2026-04-02T06:07:59.999Z</time></trkpt><trkpt lat="36.91537760473488" lon="14.896062164327814"><ele>300.0</ele><time>2026-04-02T06:08:00.999Z</time></trkpt><trkpt lat="36.915417410936946" lon="14.896210510462828"><ele>300.0</ele><time>2026-04-02T06:08:01.999Z</time></trkpt><trkpt lat="36.91547574359595" lon="14.896347924592536"><ele>300.75</ele><time>2026-04-02T06:08:02.999Z</time></trkpt><trkpt lat="36.91554854522102" lon="14.896478476686429"><ele>301.5</ele><time>2026-04-02T06:08:03.999Z</time></trkpt><trkpt lat="36.915630397848716" lon="14.896604870497855"><ele>302.25</ele><time>2026-04-02T06:08:04.999Z</time></trkpt><trkpt lat="36.91571007419197" lon="14.896727295503226"><ele>303.0</ele><time>2026-04-02T06:08:05.999Z</time></trkpt><trkpt lat="36.91578670127313" lon="14.89685093209823"><ele>303.5</ele><time>2026-04-02T06:08:06.999Z</time></trkpt><trkpt lat="36.91586154145455" lon="14.896971239395564"><ele>304.0</ele><time>2026-04-02T06:08:07.999Z</time></trkpt><trkpt lat="36.915934230413825" lon="14.89708938294472"><ele>304.5</ele><time>2026-04-02T06:08:08.999Z</time></trkpt><trkpt lat="36.91600907349002" lon="14.897204882582244"><ele>305.0</ele><time>2026-04-02T06:08:09.999Z</time></trkpt><trkpt lat="36.91607742902767" lon="14.897322153056546"><ele>305.0</ele><time>2026-04-02T06:08:10.999Z</time></trkpt><trkpt lat="36.91614001880103" lon="14.897445976943487"><ele>305.0</ele><time>2026-04-02T06:08:11.999Z</time></trkpt><trkpt lat="36.916196154462575" lon="14.897576970803483"><ele>305.0</ele><time>2026-04-02T06:08:12.999Z</time></trkpt><trkpt lat="36.91624465511005" lon="14.897715953085426"><ele>305.0</ele><time>2026-04-02T06:08:13.999Z</time></trkpt><trkpt lat="36.91628772890246" lon="14.897859243278592"><ele>304.5</ele><time>2026-04-02T06:08:14.999Z</time></trkpt><trkpt lat="36.91633013958377" lon="14.898006571885778"><ele>304.0</ele><time>2026-04-02T06:08:15.999Z</time></trkpt><trkpt lat="36.91637088676851" lon="14.898153365460988"><ele>303.5</ele><time>2026-04-02T06:08:16.999Z</time></trkpt><trkpt lat="36.91641463287319" lon="14.898298179394342"><ele>303.0</ele><time>2026-04-02T06:08:17.999Z</time></trkpt><trkpt lat="36.91645796337212" lon="14.89844441097245"><ele>301.25</ele><time>2026-04-02T06:08:18.999Z</time></trkpt><trkpt lat="36.9165006634965" lon="14.89858948704969"><ele>299.5</ele><time>2026-04-02T06:08:19.999Z</time></trkpt><trkpt lat="36.916542543304274" lon="14.898734525715794"><ele>297.75</ele><time>2026-04-02T06:08:20.999Z</time></trkpt><trkpt lat="36.916583826100904" lon="14.898880024510246"><ele>296.0</ele><time>2026-04-02T06:08:21.999Z</time></trkpt><trkpt lat="36.91662918987283" lon="14.899022738339344"><ele>296.0</ele><time>2026-04-02T06:08:22.999Z</time></trkpt><trkpt lat="36.916672807895964" lon="14.899165583537737"><ele>296.0</ele><time>2026-04-02T06:08:23.999Z</time></trkpt><trkpt lat="36.91671441875377" lon="14.899309177821303"><ele>296.0</ele><time>2026-04-02T06:08:24.999Z</time></trkpt><trkpt lat="36.9167558030381" lon="14.89945293048744"><ele>296.0</ele><time>2026-04-02T06:08:25.999Z</time></trkpt><trkpt lat="36.91679662845847" lon="14.899595873549178"><ele>294.25</ele><time>2026-04-02T06:08:26.999Z</time></trkpt><trkpt lat="36.91683739788108" lon="14.89973771656256"><ele>292.5</ele><time>2026-04-02T06:08:27.999Z</time></trkpt><trkpt lat="36.91687745382997" lon="14.899880649935021"><ele>290.75</ele><time>2026-04-02T06:08:28.999Z</time></trkpt><trkpt lat="36.91691341226816" lon="14.9000266387314"><ele>289.0</ele><time>2026-04-02T06:08:29.999Z</time></trkpt><trkpt lat="36.91694100795443" lon="14.90017160240302"><ele>289.0</ele><time>2026-04-02T06:08:30.999Z</time></trkpt><trkpt lat="36.91695326678259" lon="14.90031742007388"><ele>289.0</ele><time>2026-04-02T06:08:31.999Z</time></trkpt><trkpt lat="36.91694693070482" lon="14.900463428441782"><ele>289.0</ele><time>2026-04-02T06:08:32.999Z</time></trkpt><trkpt lat="36.9169233454903" lon="14.90060730852729"><ele>289.0</ele><time>2026-04-02T06:08:33.999Z</time></trkpt><trkpt lat="36.916885294773486" lon="14.900747591067235"><ele>289.0</ele><time>2026-04-02T06:08:34.999Z</time></trkpt><trkpt lat="36.916846790177665" lon="14.900893167785476"><ele>289.0</ele><time>2026-04-02T06:08:35.999Z</time></trkpt><trkpt lat="36.91680971093992" lon="14.901038846826443"><ele>289.0</ele><time>2026-04-02T06:08:36.999Z</time></trkpt><trkpt lat="36.91676835173585" lon="14.901182004371043"><ele>289.0</ele><time>2026-04-02T06:08:37.999Z</time></trkpt><trkpt lat="36.91672576134204" lon="14.901324685101843"><ele>288.0</ele><time>2026-04-02T06:08:38.999Z</time></trkpt><trkpt lat="36.91668169538594" lon="14.90146658635252"><ele>287.0</ele><time>2026-04-02T06:08:39.999Z</time></trkpt><trkpt lat="36.91663752111938" lon="14.901608199921437"><ele>286.0</ele><time>2026-04-02T06:08:40.999Z</time></trkpt><trkpt lat="36.91659169767983" lon="14.901747939492678"><ele>285.0</ele><time>2026-04-02T06:08:41.999Z</time></trkpt><trkpt lat="36.91654616505408" lon="14.901886168465694"><ele>283.0</ele><time>2026-04-02T06:08:42.999Z</time></trkpt><trkpt lat="36.916495319347945" lon="14.902020513378233"><ele>281.0</ele><time>2026-04-02T06:08:43.999Z</time></trkpt><trkpt lat="36.91643345288152" lon="14.902151751765942"><ele>279.0</ele><time>2026-04-02T06:08:44.999Z</time></trkpt><trkpt lat="36.91636076221682" lon="14.902276051629995"><ele>277.0</ele><time>2026-04-02T06:08:45.999Z</time></trkpt><trkpt lat="36.91628106293876" lon="14.902393559428468"><ele>277.0</ele><time>2026-04-02T06:08:46.999Z</time></trkpt><trkpt lat="36.91619580866741" lon="14.902505956709817"><ele>277.0</ele><time>2026-04-02T06:08:47.999Z</time></trkpt><trkpt lat="36.916105849442395" lon="14.902613930821346"><ele>277.0</ele><time>2026-04-02T06:08:48.999Z</time></trkpt><trkpt lat="36.916016031119966" lon="14.902721108290034"><ele>277.0</ele><time>2026-04-02T06:08:49.999Z</time></trkpt><trkpt lat="36.91592851318512" lon="14.902827486353056"><ele>277.5</ele><time>2026-04-02T06:08:50.999Z</time></trkpt><trkpt lat="36.91584282596874" lon="14.902933809835822"><ele>278.0</ele><time>2026-04-02T06:08:51.999Z</time></trkpt><trkpt lat="36.91576215193359" lon="14.903046314080399"><ele>278.5</ele><time>2026-04-02T06:08:52.999Z</time></trkpt><trkpt lat="36.91569542855826" lon="14.903170379747026"><ele>279.0</ele><time>2026-04-02T06:08:53.999Z</time></trkpt><trkpt lat="36.915644092190156" lon="14.903305465652656"><ele>278.0</ele><time>2026-04-02T06:08:54.999Z</time></trkpt><trkpt lat="36.915607106320195" lon="14.90345249344"><ele>277.0</ele><time>2026-04-02T06:08:55.999Z</time></trkpt><trkpt lat="36.915575864530176" lon="14.903605100898503"><ele>276.0</ele><time>2026-04-02T06:08:56.999Z</time></trkpt><trkpt lat="36.915548489486994" lon="14.903759246281519"><ele>275.0</ele><time>2026-04-02T06:08:57.999Z</time></trkpt><trkpt lat="36.91552447706543" lon="14.903913946396225"><ele>275.0</ele><time>2026-04-02T06:08:58.999Z</time></trkpt><trkpt lat="36.915499138805615" lon="14.904069069543013"><ele>275.0</ele><time>2026-04-02T06:09:00Z</time></trkpt><trkpt lat="36.91547265983628" lon="14.904221984700891"><ele>275.0</ele><time>2026-04-02T06:09:01Z</time></trkpt><trkpt lat="36.91545126005224" lon="14.904375020696818"><ele>275.0</ele><time>2026-04-02T06:09:02Z</time></trkpt><trkpt lat="36.91543017199785" lon="14.904527809168519"><ele>273.5</ele><time>2026-04-02T06:09:03Z</time></trkpt><trkpt lat="36.91540905917827" lon="14.904680889748647"><ele>272.0</ele><time>2026-04-02T06:09:04Z</time></trkpt><trkpt lat="36.91539135575139" lon="14.904832150636611"><ele>270.5</ele><time>2026-04-02T06:09:05Z</time></trkpt><trkpt lat="36.91537696868041" lon="14.904983852376706"><ele>269.0</ele><time>2026-04-02T06:09:06Z</time></trkpt><trkpt lat="36.91536637862799" lon="14.905135515918746"><ele>268.25</ele><time>2026-04-02T06:09:07Z</time></trkpt><trkpt lat="36.915355087546736" lon="14.905286285559745"><ele>267.5</ele><time>2026-04-02T06:09:08Z</time></trkpt><trkpt lat="36.91533762630675" lon="14.905437156265497"><ele>266.75</ele><time>2026-04-02T06:09:09Z</time></trkpt><trkpt lat="36.91530710923575" lon="14.905590399617623"><ele>266.0</ele><time>2026-04-02T06:09:10Z</time></trkpt><trkpt lat="36.91526549405664" lon="14.90574134436512"><ele>266.0</ele><time>2026-04-02T06:09:11Z</time></trkpt><trkpt lat="36.9152181260904" lon="14.905890576778459"><ele>266.0</ele><time>2026-04-02T06:09:12Z</time></trkpt><trkpt lat="36.91516549351286" lon="14.90604054358293"><ele>266.0</ele><time>2026-04-02T06:09:13Z</time></trkpt><trkpt lat="36.91511140427741" lon="14.906194834468296"><ele>266.0</ele><time>2026-04-02T06:09:14Z</time></trkpt><trkpt lat="36.915057479967516" lon="14.90634976940498"><ele>265.75</ele><time>2026-04-02T06:09:15Z</time></trkpt><trkpt lat="36.915003750146184" lon="14.906502950073115"><ele>265.5</ele><time>2026-04-02T06:09:16Z</time></trkpt><trkpt lat="36.914950999847846" lon="14.906654552824515"><ele>265.25</ele><time>2026-04-02T06:09:17Z</time></trkpt><trkpt lat="36.914895712922814" lon="14.906804203327743"><ele>265.0</ele><time>2026-04-02T06:09:18Z</time></trkpt><trkpt lat="36.91484385982102" lon="14.90694883903569"><ele>264.8</ele><time>2026-04-02T06:09:19Z</time></trkpt><trkpt lat="36.91479891620815" lon="14.907070953927379"><ele>264.6</ele><time>2026-04-02T06:09:20Z</time></trkpt><trkpt lat="36.91475792389216" lon="14.907181504897368"><ele>264.4</ele><time>2026-04-02T06:09:21Z</time></trkpt><trkpt lat="36.914721776008015" lon="14.907293598500823"><ele>264.2</ele><time>2026-04-02T06:09:22Z</time></trkpt><trkpt lat="36.91470845685738" lon="14.907410176830407"><ele>264.0</ele><time>2026-04-02T06:09:23Z</time></trkpt><trkpt lat="36.91471218331168" lon="14.90753003125985"><ele>262.4</ele><time>2026-04-02T06:09:24Z</time></trkpt><trkpt lat="36.91473785679499" lon="14.907643930228001"><ele>260.79999999999995</ele><time>2026-04-02T06:09:25Z</time></trkpt><trkpt lat="36.914780888493745" lon="14.90774758408059"><ele>259.20000000000005</ele><time>2026-04-02T06:09:26Z</time></trkpt><trkpt lat="36.91484311171521" lon="14.907836907480013"><ele>257.6</ele><time>2026-04-02T06:09:27Z</time></trkpt><trkpt lat="36.91491958765825" lon="14.907926699342793"><ele>256.0</ele><time>2026-04-02T06:09:28Z</time></trkpt><trkpt lat="36.91500490134638" lon="14.908022307021222"><ele>255.5</ele><time>2026-04-02T06:09:29Z</time></trkpt><trkpt lat="36.91508866914117" lon="14.908117884662762"><ele>255.0</ele><time>2026-04-02T06:09:30Z</time></trkpt><trkpt lat="36.91517362876269" lon="14.908214286467182"><ele>254.5</ele><time>2026-04-02T06:09:31Z</time></trkpt><trkpt lat="36.91525783416288" lon="14.90831115908851"><ele>254.0</ele><time>2026-04-02T06:09:32Z</time></trkpt><trkpt lat="36.915346495358826" lon="14.908410542057297"><ele>252.5</ele><time>2026-04-02T06:09:33Z</time></trkpt><trkpt lat="36.915435087773545" lon="14.908509504821394"><ele>251.0</ele><time>2026-04-02T06:09:34Z</time></trkpt><trkpt lat="36.915525897548186" lon="14.908607217465102"><ele>249.5</ele><time>2026-04-02T06:09:35Z</time></trkpt><trkpt lat="36.91561602854199" lon="14.908704046929858"><ele>248.0</ele><time>2026-04-02T06:09:36Z</time></trkpt><trkpt lat="36.91570143245103" lon="14.908808641033788"><ele>248.0</ele><time>2026-04-02T06:09:37Z</time></trkpt><trkpt lat="36.91578823525586" lon="14.90891433757708"><ele>248.0</ele><time>2026-04-02T06:09:38Z</time></trkpt><trkpt lat="36.91586791053115" lon="14.909030094116861"><ele>248.0</ele><time>2026-04-02T06:09:39Z</time></trkpt><trkpt lat="36.915938686408964" lon="14.909148812958492"><ele>248.0</ele><time>2026-04-02T06:09:40Z</time></trkpt><trkpt lat="36.91600539846468" lon="14.9092617614646"><ele>244.8</ele><time>2026-04-02T06:09:41Z</time></trkpt><trkpt lat="36.91607949419094" lon="14.909359609770023"><ele>241.60000000000002</ele><time>2026-04-02T06:09:42Z</time></trkpt><trkpt lat="36.916161557800734" lon="14.909436860056687"><ele>238.39999999999998</ele><time>2026-04-02T06:09:43Z</time></trkpt><trkpt lat="36.91625488990843" lon="14.909486245789752"><ele>235.2</ele><time>2026-04-02T06:09:44Z</time></trkpt><trkpt lat="36.916359965492" lon="14.909507761310884"><ele>232.0</ele><time>2026-04-02T06:09:45Z</time></trkpt><trkpt lat="36.91647409459858" lon="14.909486762181741"><ele>232.0</ele><time>2026-04-02T06:09:46Z</time></trkpt><trkpt lat="36.916575636032135" lon="14.909435089896308"><ele>232.0</ele><time>2026-04-02T06:09:47Z</time></trkpt><trkpt lat="36.916661217065936" lon="14.909346975402938"><ele>232.0</ele><time>2026-04-02T06:09:48Z</time></trkpt><trkpt lat="36.91672181850753" lon="14.909228998387677"><ele>232.0</ele><time>2026-04-02T06:09:49Z</time></trkpt><trkpt lat="36.91676189766016" lon="14.90909582622366"><ele>232.0</ele><time>2026-04-02T06:09:50Z</time></trkpt><trkpt lat="36.91676584186581" lon="14.908952987730771"><ele>232.0</ele><time>2026-04-02T06:09:51Z</time></trkpt><trkpt lat="36.916749739231456" lon="14.90881519528174"><ele>232.0</ele><time>2026-04-02T06:09:52Z</time></trkpt><trkpt lat="36.91673346879418" lon="14.908687151758885"><ele>232.0</ele><time>2026-04-02T06:09:53Z</time></trkpt><trkpt lat="36.916722683105704" lon="14.908553301821957"><ele>232.0</ele><time>2026-04-02T06:09:54Z</time></trkpt><trkpt lat="36.916729383832916" lon="14.908416437093138"><ele>232.0</ele><time>2026-04-02T06:09:55Z</time></trkpt><trkpt lat="36.91675822239809" lon="14.90828150978607"><ele>232.0</ele><time>2026-04-02T06:09:56Z</time></trkpt><trkpt lat="36.916801394299696" lon="14.90815048710459"><ele>232.0</ele><time>2026-04-02T06:09:57Z</time></trkpt><trkpt lat="36.91685683387388" lon="14.908022083571362"><ele>232.0</ele><time>2026-04-02T06:09:58Z</time></trkpt><trkpt lat="36.91691877462557" lon="14.90789888354376"><ele>232.0</ele><time>2026-04-02T06:09:59Z</time></trkpt><trkpt lat="36.916977837543264" lon="14.90776995563361"><ele>232.0</ele><time>2026-04-02T06:10:00Z</time></trkpt><trkpt lat="36.91702627646515" lon="14.907647174793016"><ele>232.0</ele><time>2026-04-02T06:10:01Z</time></trkpt><trkpt lat="36.91707235972474" lon="14.907525338237791"><ele>232.0</ele><time>2026-04-02T06:10:02Z</time></trkpt><trkpt lat="36.917099974353874" lon="14.907391219870565"><ele>232.0</ele><time>2026-04-02T06:10:03Z</time></trkpt><trkpt lat="36.91710796391517" lon="14.907255424554023"><ele>232.0</ele><time>2026-04-02T06:10:04Z</time></trkpt><trkpt lat="36.91710644357016" lon="14.907144479181357"><ele>231.83333333333331</ele><time>2026-04-02T06:10:05Z</time></trkpt><trkpt lat="36.917113748241384" lon="14.907051070417573"><ele>231.66666666666666</ele><time>2026-04-02T06:10:06Z</time></trkpt><trkpt lat="36.91713747662172" lon="14.906963186225578"><ele>231.5</ele><time>2026-04-02T06:10:07Z</time></trkpt><trkpt lat="36.91718156403775" lon="14.906889872524621"><ele>231.33333333333331</ele><time>2026-04-02T06:10:08Z</time></trkpt><trkpt lat="36.91724057548114" lon="14.906840529306727"><ele>231.16666666666666</ele><time>2026-04-02T06:10:08.999Z</time></trkpt><trkpt lat="36.9173132432544" lon="14.906818518469201"><ele>231.0</ele><time>2026-04-02T06:10:09.999Z</time></trkpt><trkpt lat="36.91739676026779" lon="14.906836747190326"><ele>231.0</ele><time>2026-04-02T06:10:10.999Z</time></trkpt><trkpt lat="36.91747132638408" lon="14.90688520756079"><ele>231.00000000000003</ele><time>2026-04-02T06:10:11.999Z</time></trkpt><trkpt lat="36.91753050522879" lon="14.906965818509553"><ele>231.00000000000003</ele><time>2026-04-02T06:10:12.999Z</time></trkpt><trkpt lat="36.917576745919064" lon="14.907068934426299"><ele>231.0</ele><time>2026-04-02T06:10:13.999Z</time></trkpt><trkpt lat="36.91761549715471" lon="14.907180271961087"><ele>231.0</ele><time>2026-04-02T06:10:14.999Z</time></trkpt><trkpt lat="36.91765676286263" lon="14.90729012677823"><ele>227.60000000000002</ele><time>2026-04-02T06:10:15.999Z</time></trkpt><trkpt lat="36.91769515490356" lon="14.907401431463182"><ele>224.20000000000002</ele><time>2026-04-02T06:10:16.999Z</time></trkpt><trkpt lat="36.91774251819884" lon="14.907506986667105"><ele>220.79999999999998</ele><time>2026-04-02T06:10:17.999Z</time></trkpt><trkpt lat="36.91780824838929" lon="14.907599920141553"><ele>217.39999999999998</ele><time>2026-04-02T06:10:18.999Z</time></trkpt><trkpt lat="36.91788697411821" lon="14.907683000672655"><ele>214.0</ele><time>2026-04-02T06:10:19.999Z</time></trkpt><trkpt lat="36.91797129850709" lon="14.907768628043888"><ele>214.0</ele><time>2026-04-02T06:10:20.999Z</time></trkpt><trkpt lat="36.9180535882197" lon="14.907854158489029"><ele>213.99999999999997</ele><time>2026-04-02T06:10:21.999Z</time></trkpt><trkpt lat="36.91813561874996" lon="14.90794372365668"><ele>213.99999999999997</ele><time>2026-04-02T06:10:22.999Z</time></trkpt><trkpt lat="36.918213262381485" lon="14.908034333201796"><ele>214.0</ele><time>2026-04-02T06:10:23.999Z</time></trkpt><trkpt lat="36.91827849977936" lon="14.908141413199568"><ele>214.0</ele><time>2026-04-02T06:10:24.999Z</time></trkpt><trkpt lat="36.91832616371182" lon="14.908262892352571"><ele>214.0</ele><time>2026-04-02T06:10:25.999Z</time></trkpt><trkpt lat="36.91835542846962" lon="14.908392318067744"><ele>214.0</ele><time>2026-04-02T06:10:26.999Z</time></trkpt><trkpt lat="36.918370180042466" lon="14.908537024400667"><ele>214.0</ele><time>2026-04-02T06:10:27.999Z</time></trkpt><trkpt lat="36.91837072550198" lon="14.908686654982487"><ele>214.0</ele><time>2026-04-02T06:10:28.999Z</time></trkpt><trkpt lat="36.918373098067086" lon="14.908839685379828"><ele>213.25</ele><time>2026-04-02T06:10:29.999Z</time></trkpt><trkpt lat="36.918371993675606" lon="14.9089970367319"><ele>212.5</ele><time>2026-04-02T06:10:30.999Z</time></trkpt><trkpt lat="36.918375728523365" lon="14.909152566486826"><ele>211.75</ele><time>2026-04-02T06:10:31.999Z</time></trkpt><trkpt lat="36.9183810600035" lon="14.909309077668578"><ele>211.0</ele><time>2026-04-02T06:10:32.999Z</time></trkpt><trkpt lat="36.91837585321822" lon="14.909464859671466"><ele>209.25</ele><time>2026-04-02T06:10:33.999Z</time></trkpt><trkpt lat="36.9183721897585" lon="14.909621316264234"><ele>207.5</ele><time>2026-04-02T06:10:34.999Z</time></trkpt><trkpt lat="36.91837121466116" lon="14.909779767395795"><ele>205.75</ele><time>2026-04-02T06:10:35.999Z</time></trkpt><trkpt lat="36.91836912193972" lon="14.909937079527284"><ele>204.0</ele><time>2026-04-02T06:10:36.999Z</time></trkpt><trkpt lat="36.91836830202966" lon="14.9100907535783"><ele>202.39999999999998</ele><time>2026-04-02T06:10:37.999Z</time></trkpt><trkpt lat="36.91836162417005" lon="14.910229203874989"><ele>200.8</ele><time>2026-04-02T06:10:38.999Z</time></trkpt><trkpt lat="36.91833993196978" lon="14.910362578767954"><ele>199.2</ele><time>2026-04-02T06:10:39.999Z</time></trkpt><trkpt lat="36.918295401807946" lon="14.910487438664347"><ele>197.60000000000002</ele><time>2026-04-02T06:10:40.999Z</time></trkpt><trkpt lat="36.918227304980654" lon="14.910596393775132"><ele>196.0</ele><time>2026-04-02T06:10:41.999Z</time></trkpt><trkpt lat="36.918040261368546" lon="14.910765839370448"><ele>196.0</ele><time>2026-04-02T06:10:43.999Z</time></trkpt><trkpt lat="36.917930696921864" lon="14.910796699801073"><ele>196.0</ele><time>2026-04-02T06:10:44.999Z</time></trkpt><trkpt lat="36.91780566516484" lon="14.910818290392983"><ele>196.0</ele><time>2026-04-02T06:10:45.999Z</time></trkpt><trkpt lat="36.917679895818026" lon="14.910843534130612"><ele>196.0</ele><time>2026-04-02T06:10:46.999Z</time></trkpt><trkpt lat="36.91755835629058" lon="14.91087249297542"><ele>197.4</ele><time>2026-04-02T06:10:47.999Z</time></trkpt><trkpt lat="36.91743852917224" lon="14.910901215736724"><ele>198.8</ele><time>2026-04-02T06:10:48.999Z</time></trkpt><trkpt lat="36.91733620419813" lon="14.910922702613068"><ele>200.20000000000002</ele><time>2026-04-02T06:10:49.999Z</time></trkpt><trkpt lat="36.91724466475877" lon="14.91094325619747"><ele>201.60000000000002</ele><time>2026-04-02T06:10:50.999Z</time></trkpt><trkpt lat="36.91716104409016" lon="14.910973862647595"><ele>203.0</ele><time>2026-04-02T06:10:51.999Z</time></trkpt><trkpt lat="36.91709292405403" lon="14.91102649249943"><ele>199.83333333333334</ele><time>2026-04-02T06:10:52.999Z</time></trkpt><trkpt lat="36.91704269221931" lon="14.911099345928154"><ele>196.66666666666669</ele><time>2026-04-02T06:10:53.999Z</time></trkpt><trkpt lat="36.9170158058929" lon="14.911202375108527"><ele>193.5</ele><time>2026-04-02T06:10:54.999Z</time></trkpt><trkpt lat="36.91702838671933" lon="14.911308813732383"><ele>190.33333333333334</ele><time>2026-04-02T06:10:55.999Z</time></trkpt><trkpt lat="36.91707405252293" lon="14.911401448634134"><ele>187.16666666666669</ele><time>2026-04-02T06:10:56.999Z</time></trkpt><trkpt lat="36.91714572982524" lon="14.91146677846625"><ele>184.0</ele><time>2026-04-02T06:10:57.999Z</time></trkpt><trkpt lat="36.9172379643252" lon="14.911503122843499"><ele>184.0</ele><time>2026-04-02T06:10:58.999Z</time></trkpt><trkpt lat="36.91734033039887" lon="14.911515018342513"><ele>184.0</ele><time>2026-04-02T06:10:59.999Z</time></trkpt><trkpt lat="36.91744746053398" lon="14.911530625282854"><ele>184.0</ele><time>2026-04-02T06:11:00.999Z</time></trkpt><trkpt lat="36.91755519102244" lon="14.91154869981236"><ele>184.0</ele><time>2026-04-02T06:11:01.999Z</time></trkpt><trkpt lat="36.917668397147764" lon="14.911562385759456"><ele>184.0</ele><time>2026-04-02T06:11:02.999Z</time></trkpt><trkpt lat="36.917784471834494" lon="14.911576849053425"><ele>184.2</ele><time>2026-04-02T06:11:03.999Z</time></trkpt><trkpt lat="36.91789512769477" lon="14.91159299968953"><ele>184.39999999999998</ele><time>2026-04-02T06:11:04.999Z</time></trkpt><trkpt lat="36.918001395332155" lon="14.91161786330275"><ele>184.6</ele><time>2026-04-02T06:11:06Z</time></trkpt><trkpt lat="36.91809847098544" lon="14.911663218579836"><ele>184.8</ele><time>2026-04-02T06:11:07Z</time></trkpt><trkpt lat="36.918183102046825" lon="14.91172841313175"><ele>185.0</ele><time>2026-04-02T06:11:08Z</time></trkpt><trkpt lat="36.918253748733996" lon="14.911806619329173"><ele>186.2</ele><time>2026-04-02T06:11:09Z</time></trkpt><trkpt lat="36.91831387749305" lon="14.911900333004557"><ele>187.4</ele><time>2026-04-02T06:11:10Z</time></trkpt><trkpt lat="36.9183545383603" lon="14.912011737525813"><ele>188.60000000000002</ele><time>2026-04-02T06:11:11Z</time></trkpt><trkpt lat="36.91837451848603" lon="14.91213002916765"><ele>189.8</ele><time>2026-04-02T06:11:12Z</time></trkpt><trkpt lat="36.91837287318642" lon="14.912252484840286"><ele>191.0</ele><time>2026-04-02T06:11:13Z</time></trkpt><trkpt lat="36.91835932500223" lon="14.91237202373136"><ele>191.0</ele><time>2026-04-02T06:11:14Z</time></trkpt><trkpt lat="36.91832570763889" lon="14.912490262049173"><ele>191.0</ele><time>2026-04-02T06:11:15Z</time></trkpt><trkpt lat="36.91827384797365" lon="14.912600078103319"><ele>191.0</ele><time>2026-04-02T06:11:16Z</time></trkpt><trkpt lat="36.91820708065517" lon="14.91270532783828"><ele>191.0</ele><time>2026-04-02T06:11:17Z</time></trkpt><trkpt lat="36.91813417394269" lon="14.912816394281409"><ele>191.0</ele><time>2026-04-02T06:11:18Z</time></trkpt><trkpt lat="36.91806317701059" lon="14.912931212005013"><ele>194.75</ele><time>2026-04-02T06:11:19Z</time></trkpt><trkpt lat="36.91799547903754" lon="14.913050002291298"><ele>198.5</ele><time>2026-04-02T06:11:20Z</time></trkpt><trkpt lat="36.91792739736796" lon="14.913171346838109"><ele>202.25</ele><time>2026-04-02T06:11:21Z</time></trkpt><trkpt lat="36.917855046766306" lon="14.913295816779115"><ele>206.0</ele><time>2026-04-02T06:11:22Z</time></trkpt><trkpt lat="36.91777961924313" lon="14.913419565530758"><ele>204.75</ele><time>2026-04-02T06:11:23Z</time></trkpt><trkpt lat="36.917704014028146" lon="14.913542725487222"><ele>203.5</ele><time>2026-04-02T06:11:24Z</time></trkpt><trkpt lat="36.91762771210903" lon="14.913664540229313"><ele>202.25</ele><time>2026-04-02T06:11:25Z</time></trkpt><trkpt lat="36.91755047184785" lon="14.913785570870282"><ele>201.0</ele><time>2026-04-02T06:11:26Z</time></trkpt><trkpt lat="36.917477431077025" lon="14.913904845373228"><ele>201.0</ele><time>2026-04-02T06:11:27Z</time></trkpt><trkpt lat="36.917404392346945" lon="14.914020811906326"><ele>201.0</ele><time>2026-04-02T06:11:28Z</time></trkpt><trkpt lat="36.917322048359" lon="14.914119328159853"><ele>201.0</ele><time>2026-04-02T06:11:29Z</time></trkpt><trkpt lat="36.91722512774748" lon="14.914191048193684"><ele>201.0</ele><time>2026-04-02T06:11:30Z</time></trkpt><trkpt lat="36.91712080663319" lon="14.914240258885458"><ele>202.20000000000002</ele><time>2026-04-02T06:11:31Z</time></trkpt><trkpt lat="36.91701439412386" lon="14.914282734356243"><ele>203.4</ele><time>2026-04-02T06:11:32Z</time></trkpt><trkpt lat="36.9169156073554" lon="14.914334618885196"><ele>204.6</ele><time>2026-04-02T06:11:33Z</time></trkpt><trkpt lat="36.916832437946816" lon="14.914407422653124"><ele>205.8</ele><time>2026-04-02T06:11:34Z</time></trkpt><trkpt lat="36.916767188872086" lon="14.914501430984405"><ele>207.0</ele><time>2026-04-02T06:11:35Z</time></trkpt><trkpt lat="36.916721151739914" lon="14.914619880426754"><ele>207.0</ele><time>2026-04-02T06:11:36Z</time></trkpt><trkpt lat="36.91670575466489" lon="14.914753635085914"><ele>207.0</ele><time>2026-04-02T06:11:37Z</time></trkpt><trkpt lat="36.9167121057787" lon="14.914884819958969"><ele>207.0</ele><time>2026-04-02T06:11:38Z</time></trkpt><trkpt lat="36.91675623402454" lon="14.915008065163056"><ele>207.0</ele><time>2026-04-02T06:11:39Z</time></trkpt><trkpt lat="36.916828054822574" lon="14.915109520188299"><ele>207.0</ele><time>2026-04-02T06:11:40Z</time></trkpt><trkpt lat="36.916921305049115" lon="14.915174686249085"><ele>203.8</ele><time>2026-04-02T06:11:41Z</time></trkpt><trkpt lat="36.91702196976865" lon="14.91520129713922"><ele>200.6</ele><time>2026-04-02T06:11:42Z</time></trkpt><trkpt lat="36.917126021023904" lon="14.915223337462308"><ele>197.4</ele><time>2026-04-02T06:11:43Z</time></trkpt><trkpt lat="36.91723391788577" lon="14.915260059756763"><ele>194.20000000000002</ele><time>2026-04-02T06:11:44Z</time></trkpt><trkpt lat="36.91734238553866" lon="14.915302528857005"><ele>191.0</ele><time>2026-04-02T06:11:45Z</time></trkpt><trkpt lat="36.91745237160736" lon="14.915340912740657"><ele>191.0</ele><time>2026-04-02T06:11:46Z</time></trkpt><trkpt lat="36.9175636264894" lon="14.91537135195001"><ele>191.0</ele><time>2026-04-02T06:11:47Z</time></trkpt><trkpt lat="36.917681958246646" lon="14.91539141494233"><ele>191.0</ele><time>2026-04-02T06:11:48Z</time></trkpt><trkpt lat="36.91780273837469" lon="14.915413804837002"><ele>191.0</ele><time>2026-04-02T06:11:49Z</time></trkpt><trkpt lat="36.917925755162614" lon="14.915442765714984"><ele>196.0</ele><time>2026-04-02T06:11:50Z</time></trkpt><trkpt lat="36.91804864195358" lon="14.915469688117858"><ele>201.0</ele><time>2026-04-02T06:11:51Z</time></trkpt><trkpt lat="36.918175368523535" lon="14.915496503877149"><ele>206.0</ele><time>2026-04-02T06:11:52Z</time></trkpt><trkpt lat="36.9183058162824" lon="14.915521021682178"><ele>211.0</ele><time>2026-04-02T06:11:53Z</time></trkpt><trkpt lat="36.91843887367309" lon="14.915544735653805"><ele>212.75</ele><time>2026-04-02T06:11:54Z</time></trkpt><trkpt lat="36.9185744293393" lon="14.915569279098078"><ele>214.5</ele><time>2026-04-02T06:11:55Z</time></trkpt><trkpt lat="36.918713536386036" lon="14.915593440847697"><ele>216.25</ele><time>2026-04-02T06:11:56Z</time></trkpt><trkpt lat="36.918855664271426" lon="14.91562007581796"><ele>218.0</ele><time>2026-04-02T06:11:57Z</time></trkpt><trkpt lat="36.918992058676764" lon="14.91564341412173"><ele>218.0</ele><time>2026-04-02T06:11:58Z</time></trkpt><trkpt lat="36.91912700035246" lon="14.915667539674443"><ele>218.0</ele><time>2026-04-02T06:11:59Z</time></trkpt><trkpt lat="36.919266056968084" lon="14.915692079861689"><ele>218.0</ele><time>2026-04-02T06:12:00Z</time></trkpt><trkpt lat="36.91940681536286" lon="14.915716884152213"><ele>218.0</ele><time>2026-04-02T06:12:01Z</time></trkpt><trkpt lat="36.919549361743236" lon="14.915741146294938"><ele>219.75</ele><time>2026-04-02T06:12:02Z</time></trkpt><trkpt lat="36.9196923656759" lon="14.915766341902739"><ele>221.5</ele><time>2026-04-02T06:12:03Z</time></trkpt><trkpt lat="36.919835894743514" lon="14.915790875355633"><ele>223.25</ele><time>2026-04-02T06:12:04Z</time></trkpt><trkpt lat="36.919977818302755" lon="14.915812456633853"><ele>225.0</ele><time>2026-04-02T06:12:05Z</time></trkpt><trkpt lat="36.92011263691912" lon="14.91583679042481"><ele>225.25</ele><time>2026-04-02T06:12:06Z</time></trkpt><trkpt lat="36.92024572187381" lon="14.915858863366488"><ele>225.5</ele><time>2026-04-02T06:12:07Z</time></trkpt><trkpt lat="36.92037644908718" lon="14.915881680606866"><ele>225.75</ele><time>2026-04-02T06:12:08Z</time></trkpt><trkpt lat="36.92050282663714" lon="14.915901735820999"><ele>226.0</ele><time>2026-04-02T06:12:09Z</time></trkpt><trkpt lat="36.92062142493429" lon="14.915916639493094"><ele>226.0</ele><time>2026-04-02T06:12:10Z</time></trkpt><trkpt lat="36.92073508691192" lon="14.915909286889729"><ele>226.0</ele><time>2026-04-02T06:12:11Z</time></trkpt><trkpt lat="36.9208417773915" lon="14.915867462676982"><ele>226.0</ele><time>2026-04-02T06:12:12Z</time></trkpt><trkpt lat="36.92094040728328" lon="14.915800651915236"><ele>226.0</ele><time>2026-04-02T06:12:13Z</time></trkpt><trkpt lat="36.921028898431786" lon="14.915711982009169"><ele>226.5</ele><time>2026-04-02T06:12:14Z</time></trkpt><trkpt lat="36.92109632170833" lon="14.91560669072726"><ele>227.0</ele><time>2026-04-02T06:12:15Z</time></trkpt><trkpt lat="36.92116343044671" lon="14.915470498564918"><ele>227.5</ele><time>2026-04-02T06:12:16Z</time></trkpt><trkpt lat="36.92123420083941" lon="14.915332171669142"><ele>228.0</ele><time>2026-04-02T06:12:17Z</time></trkpt><trkpt lat="36.921314028509734" lon="14.915203455040896"><ele>228.0</ele><time>2026-04-02T06:12:17.999Z</time></trkpt><trkpt lat="36.92140130874728" lon="14.915072812226775"><ele>228.0</ele><time>2026-04-02T06:12:18.999Z</time></trkpt><trkpt lat="36.921493571045836" lon="14.914939301925445"><ele>228.0</ele><time>2026-04-02T06:12:19.999Z</time></trkpt><trkpt lat="36.92158578588577" lon="14.914800787330032"><ele>228.0</ele><time>2026-04-02T06:12:20.999Z</time></trkpt><trkpt lat="36.92168052032867" lon="14.914661170125118"><ele>227.0</ele><time>2026-04-02T06:12:21.999Z</time></trkpt><trkpt lat="36.9217730802616" lon="14.914523247422036"><ele>226.0</ele><time>2026-04-02T06:12:22.999Z</time></trkpt><trkpt lat="36.921863775553426" lon="14.914392859789947"><ele>225.0</ele><time>2026-04-02T06:12:23.999Z</time></trkpt><trkpt lat="36.92195569615845" lon="14.914260765650255"><ele>224.0</ele><time>2026-04-02T06:12:24.999Z</time></trkpt><trkpt lat="36.92204735158496" lon="14.914125293739513"><ele>224.0</ele><time>2026-04-02T06:12:25.999Z</time></trkpt><trkpt lat="36.92223121619377" lon="14.913847474005207"><ele>224.0</ele><time>2026-04-02T06:12:27.999Z</time></trkpt><trkpt lat="36.92231994206047" lon="14.913710045786761"><ele>224.0</ele><time>2026-04-02T06:12:28.999Z</time></trkpt><trkpt lat="36.922409108772804" lon="14.913570049614886"><ele>224.0</ele><time>2026-04-02T06:12:29.999Z</time></trkpt><trkpt lat="36.92249969642241" lon="14.913432018023586"><ele>224.0</ele><time>2026-04-02T06:12:30.999Z</time></trkpt><trkpt lat="36.92258391899015" lon="14.913298265574424"><ele>224.0</ele><time>2026-04-02T06:12:31.999Z</time></trkpt><trkpt lat="36.92266772466843" lon="14.91317052184871"><ele>224.0</ele><time>2026-04-02T06:12:32.999Z</time></trkpt><trkpt lat="36.92275523966981" lon="14.913044551968856"><ele>226.25</ele><time>2026-04-02T06:12:33.999Z</time></trkpt><trkpt lat="36.92284829553462" lon="14.912927853349336"><ele>228.5</ele><time>2026-04-02T06:12:34.999Z</time></trkpt><trkpt lat="36.92294239992229" lon="14.912829178446461"><ele>230.75</ele><time>2026-04-02T06:12:35.999Z</time></trkpt><trkpt lat="36.92304298377679" lon="14.912750343856182"><ele>233.0</ele><time>2026-04-02T06:12:36.999Z</time></trkpt><trkpt lat="36.923155478893385" lon="14.912690051314161"><ele>233.0</ele><time>2026-04-02T06:12:37.999Z</time></trkpt><trkpt lat="36.92327916741518" lon="14.912654007226445"><ele>233.0</ele><time>2026-04-02T06:12:38.999Z</time></trkpt><trkpt lat="36.9234095318095" lon="14.912636816147453"><ele>233.0</ele><time>2026-04-02T06:12:39.999Z</time></trkpt><trkpt lat="36.92354051436019" lon="14.912615634639728"><ele>233.0</ele><time>2026-04-02T06:12:40.999Z</time></trkpt><trkpt lat="36.923669172237574" lon="14.912588530758503"><ele>233.25</ele><time>2026-04-02T06:12:41.999Z</time></trkpt><trkpt lat="36.923796339096455" lon="14.91256251971881"><ele>233.5</ele><time>2026-04-02T06:12:42.999Z</time></trkpt><trkpt lat="36.9239208026231" lon="14.91253554401337"><ele>233.75</ele><time>2026-04-02T06:12:43.999Z</time></trkpt><trkpt lat="36.92404289255001" lon="14.912499596328924"><ele>234.0</ele><time>2026-04-02T06:12:44.999Z</time></trkpt><trkpt lat="36.92416494817401" lon="14.912440188527308"><ele>230.75</ele><time>2026-04-02T06:12:45.999Z</time></trkpt><trkpt lat="36.92428240045631" lon="14.912354571631118"><ele>227.5</ele><time>2026-04-02T06:12:46.999Z</time></trkpt><trkpt lat="36.92439881319518" lon="14.912255665352207"><ele>224.25</ele><time>2026-04-02T06:12:47.999Z</time></trkpt><trkpt lat="36.92451359327012" lon="14.912150544944351"><ele>221.0</ele><time>2026-04-02T06:12:48.999Z</time></trkpt><trkpt lat="36.92463160912451" lon="14.912055494712504"><ele>221.0</ele><time>2026-04-02T06:12:49.999Z</time></trkpt><trkpt lat="36.924756204438005" lon="14.911967092873628"><ele>221.0</ele><time>2026-04-02T06:12:50.999Z</time></trkpt><trkpt lat="36.92488577432527" lon="14.911880934255535"><ele>221.0</ele><time>2026-04-02T06:12:51.999Z</time></trkpt><trkpt lat="36.92501667645003" lon="14.911796756994079"><ele>221.0</ele><time>2026-04-02T06:12:52.999Z</time></trkpt><trkpt lat="36.9251524720822" lon="14.911723271136175"><ele>226.0</ele><time>2026-04-02T06:12:53.999Z</time></trkpt><trkpt lat="36.925294058643196" lon="14.911656703527255"><ele>231.0</ele><time>2026-04-02T06:12:54.999Z</time></trkpt><trkpt lat="36.925439898283955" lon="14.911598220054653"><ele>236.0</ele><time>2026-04-02T06:12:55.999Z</time></trkpt><trkpt lat="36.92558764390582" lon="14.911549583552853"><ele>236.0</ele><time>2026-04-02T06:12:56.999Z</time></trkpt><trkpt lat="36.92573141436324" lon="14.911496813806192"><ele>236.0</ele><time>2026-04-02T06:12:57.999Z</time></trkpt><trkpt lat="36.92587232355146" lon="14.911443752013753"><ele>236.0</ele><time>2026-04-02T06:12:58.999Z</time></trkpt><trkpt lat="36.9260102498933" lon="14.911391960152077"><ele>236.0</ele><time>2026-04-02T06:12:59.999Z</time></trkpt><trkpt lat="36.92614810942242" lon="14.911344130051797"><ele>237.5</ele><time>2026-04-02T06:13:00.999Z</time></trkpt><trkpt lat="36.92628317208036" lon="14.911301417089604"><ele>239.0</ele><time>2026-04-02T06:13:01.999Z</time></trkpt><trkpt lat="36.9264142488279" lon="14.911257410957965"><ele>240.5</ele><time>2026-04-02T06:13:02.999Z</time></trkpt><trkpt lat="36.92654384370973" lon="14.911206086027464"><ele>242.0</ele><time>2026-04-02T06:13:03.999Z</time></trkpt><trkpt lat="36.9266754789668" lon="14.911158936115875"><ele>242.5</ele><time>2026-04-02T06:13:04.999Z</time></trkpt><trkpt lat="36.92680871280491" lon="14.911109380672867"><ele>243.0</ele><time>2026-04-02T06:13:05.999Z</time></trkpt><trkpt lat="36.926939982427555" lon="14.911060471215512"><ele>243.5</ele><time>2026-04-02T06:13:06.999Z</time></trkpt><trkpt lat="36.927071905286965" lon="14.911010637998519"><ele>244.0</ele><time>2026-04-02T06:13:07.999Z</time></trkpt><trkpt lat="36.92719939390796" lon="14.910961568510327"><ele>244.0</ele><time>2026-04-02T06:13:08.999Z</time></trkpt><trkpt lat="36.92732839800065" lon="14.91090836991406"><ele>244.0</ele><time>2026-04-02T06:13:09.999Z</time></trkpt><trkpt lat="36.927454644244186" lon="14.910846687310011"><ele>244.0</ele><time>2026-04-02T06:13:10.999Z</time></trkpt><trkpt lat="36.92757879018331" lon="14.910776401552074"><ele>244.0</ele><time>2026-04-02T06:13:12Z</time></trkpt><trkpt lat="36.92769758341882" lon="14.91070196675295"><ele>243.5</ele><time>2026-04-02T06:13:13Z</time></trkpt><trkpt lat="36.927811144045016" lon="14.910627209373953"><ele>243.0</ele><time>2026-04-02T06:13:14Z</time></trkpt><trkpt lat="36.927924989109556" lon="14.910545100759826"><ele>242.5</ele><time>2026-04-02T06:13:15Z</time></trkpt><trkpt lat="36.92803415656829" lon="14.91045770066639"><ele>242.0</ele><time>2026-04-02T06:13:16Z</time></trkpt><trkpt lat="36.92814020286305" lon="14.910377669811616"><ele>242.0</ele><time>2026-04-02T06:13:17Z</time></trkpt><trkpt lat="36.92824889092283" lon="14.910300059424088"><ele>242.0</ele><time>2026-04-02T06:13:18Z</time></trkpt><trkpt lat="36.928353766181985" lon="14.910224366385517"><ele>242.0</ele><time>2026-04-02T06:13:19Z</time></trkpt><trkpt lat="36.92845702890924" lon="14.91015138344581"><ele>242.0</ele><time>2026-04-02T06:13:20Z</time></trkpt><trkpt lat="36.928570486430246" lon="14.910087489452728"><ele>242.5</ele><time>2026-04-02T06:13:21Z</time></trkpt><trkpt lat="36.92869091613052" lon="14.910027477034216"><ele>243.0</ele><time>2026-04-02T06:13:22Z</time></trkpt><trkpt lat="36.92881500914178" lon="14.909967966858476"><ele>243.5</ele><time>2026-04-02T06:13:23Z</time></trkpt><trkpt lat="36.928940430289764" lon="14.90990583415407"><ele>244.0</ele><time>2026-04-02T06:13:24Z</time></trkpt><trkpt lat="36.92906519250924" lon="14.909845346535105"><ele>244.0</ele><time>2026-04-02T06:13:25Z</time></trkpt><trkpt lat="36.92918769773696" lon="14.90978627479228"><ele>244.0</ele><time>2026-04-02T06:13:26Z</time></trkpt><trkpt lat="36.92930982097318" lon="14.909722648595393"><ele>244.0</ele><time>2026-04-02T06:13:27Z</time></trkpt><trkpt lat="36.929432011509405" lon="14.909656609497034"><ele>244.0</ele><time>2026-04-02T06:13:28Z</time></trkpt><trkpt lat="36.92955186996059" lon="14.909590418010435"><ele>243.0</ele><time>2026-04-02T06:13:29Z</time></trkpt><trkpt lat="36.929674395326394" lon="14.90952547816681"><ele>242.0</ele><time>2026-04-02T06:13:30Z</time></trkpt><trkpt lat="36.92989795833048" lon="14.90941319230512"><ele>241.0</ele><time>2026-04-02T06:13:32Z</time></trkpt><trkpt lat="36.929999081008994" lon="14.909362075469442"><ele>240.60000000000002</ele><time>2026-04-02T06:13:33Z</time></trkpt><trkpt lat="36.93008503049889" lon="14.909324026372682"><ele>240.20000000000002</ele><time>2026-04-02T06:13:34Z</time></trkpt><trkpt lat="36.930159141764264" lon="14.90929719525862"><ele>239.79999999999998</ele><time>2026-04-02T06:13:35Z</time></trkpt><trkpt lat="36.93023032640503" lon="14.909279241138298"><ele>239.39999999999998</ele><time>2026-04-02T06:13:36Z</time></trkpt><trkpt lat="36.93034606947759" lon="14.909319146034235"><ele>239.0</ele><time>2026-04-02T06:13:38Z</time></trkpt><trkpt lat="36.9304292463732" lon="14.909427310113099"><ele>239.0</ele><time>2026-04-02T06:13:40Z</time></trkpt><trkpt lat="36.930440269839444" lon="14.909506351449311"><ele>238.99999999999997</ele><time>2026-04-02T06:13:41Z</time></trkpt><trkpt lat="36.93042505444672" lon="14.909605755879692"><ele>238.99999999999997</ele><time>2026-04-02T06:13:42Z</time></trkpt><trkpt lat="36.93040159866904" lon="14.90972092375194"><ele>239.0</ele><time>2026-04-02T06:13:43Z</time></trkpt><trkpt lat="36.93038571302142" lon="14.909851412850779"><ele>239.0</ele><time>2026-04-02T06:13:44Z</time></trkpt><trkpt lat="36.930378026515356" lon="14.909991043547475"><ele>237.5</ele><time>2026-04-02T06:13:45Z</time></trkpt><trkpt lat="36.930375081022774" lon="14.910135373610494"><ele>236.0</ele><time>2026-04-02T06:13:46Z</time></trkpt><trkpt lat="36.930381215399066" lon="14.910287866604255"><ele>234.5</ele><time>2026-04-02T06:13:47Z</time></trkpt><trkpt lat="36.930395832115686" lon="14.910446659850765"><ele>233.0</ele><time>2026-04-02T06:13:48Z</time></trkpt><trkpt lat="36.93042129837541" lon="14.910603566626625"><ele>231.33333333333334</ele><time>2026-04-02T06:13:49Z</time></trkpt><trkpt lat="36.93048574595293" lon="14.910929993853573"><ele>229.66666666666669</ele><time>2026-04-02T06:13:51Z</time></trkpt><trkpt lat="36.93052171994874" lon="14.911097428148661"><ele>228.0</ele><time>2026-04-02T06:13:52Z</time></trkpt><trkpt lat="36.93055650692776" lon="14.911266012579693"><ele>228.0</ele><time>2026-04-02T06:13:53Z</time></trkpt><trkpt lat="36.93059326478601" lon="14.911437122641386"><ele>228.0</ele><time>2026-04-02T06:13:54Z</time></trkpt><trkpt lat="36.930627330334886" lon="14.911607639981211"><ele>228.0</ele><time>2026-04-02T06:13:55Z</time></trkpt><trkpt lat="36.930662883149964" lon="14.91177807721167"><ele>228.0</ele><time>2026-04-02T06:13:56Z</time></trkpt><trkpt lat="36.93070101710593" lon="14.911947848374291"><ele>228.0</ele><time>2026-04-02T06:13:57Z</time></trkpt><trkpt lat="36.93073530833464" lon="14.912118761576211"><ele>228.0</ele><time>2026-04-02T06:13:58Z</time></trkpt><trkpt lat="36.93077207590497" lon="14.912289938202008"><ele>228.0</ele><time>2026-04-02T06:13:59Z</time></trkpt><trkpt lat="36.93080912312634" lon="14.91246049718255"><ele>228.0</ele><time>2026-04-02T06:14:00Z</time></trkpt><trkpt lat="36.930847244986666" lon="14.912628366487162"><ele>226.75</ele><time>2026-04-02T06:14:01Z</time></trkpt><trkpt lat="36.93089619586264" lon="14.91279247796034"><ele>225.5</ele><time>2026-04-02T06:14:02Z</time></trkpt><trkpt lat="36.93095635027234" lon="14.912950051634079"><ele>224.25</ele><time>2026-04-02T06:14:03Z</time></trkpt><trkpt lat="36.93103295722661" lon="14.913099403345589"><ele>223.0</ele><time>2026-04-02T06:14:04Z</time></trkpt><trkpt lat="36.9311240901303" lon="14.913235171613215"><ele>223.0</ele><time>2026-04-02T06:14:05Z</time></trkpt><trkpt lat="36.93123230586432" lon="14.913352252672226"><ele>223.0</ele><time>2026-04-02T06:14:06Z</time></trkpt><trkpt lat="36.93135317993067" lon="14.913447151914072"><ele>223.0</ele><time>2026-04-02T06:14:07Z</time></trkpt><trkpt lat="36.93148365751615" lon="14.913532087132486"><ele>223.0</ele><time>2026-04-02T06:14:08Z</time></trkpt><trkpt lat="36.9316185854282" lon="14.913621981868076"><ele>219.66666666666666</ele><time>2026-04-02T06:14:09Z</time></trkpt><trkpt lat="36.93175275567619" lon="14.91371295634363"><ele>216.33333333333331</ele><time>2026-04-02T06:14:10Z</time></trkpt><trkpt lat="36.93188483922874" lon="14.913807856911973"><ele>213.0</ele><time>2026-04-02T06:14:11Z</time></trkpt><trkpt lat="36.93201930948347" lon="14.913901480861654"><ele>213.0</ele><time>2026-04-02T06:14:12Z</time></trkpt><trkpt lat="36.93215405489772" lon="14.913996244094456"><ele>213.0</ele><time>2026-04-02T06:14:13Z</time></trkpt><trkpt lat="36.93228787294383" lon="14.914089286812999"><ele>213.0</ele><time>2026-04-02T06:14:14Z</time></trkpt><trkpt lat="36.9324196052899" lon="14.914182033393036"><ele>212.5</ele><time>2026-04-02T06:14:15Z</time></trkpt><trkpt lat="36.93255351010228" lon="14.914268307128072"><ele>212.0</ele><time>2026-04-02T06:14:16Z</time></trkpt><trkpt lat="36.93267429326487" lon="14.914342727859273"><ele>211.5</ele><time>2026-04-02T06:14:17Z</time></trkpt><trkpt lat="36.93278831805357" lon="14.91441403549933"><ele>211.0</ele><time>2026-04-02T06:14:18Z</time></trkpt><trkpt lat="36.932902824156464" lon="14.91449358434793"><ele>209.5</ele><time>2026-04-02T06:14:19Z</time></trkpt><trkpt lat="36.9330008774677" lon="14.914585988234546"><ele>208.0</ele><time>2026-04-02T06:14:20Z</time></trkpt><trkpt lat="36.93309062783974" lon="14.914696005304938"><ele>206.5</ele><time>2026-04-02T06:14:21Z</time></trkpt><trkpt lat="36.9331697551315" lon="14.914823577726008"><ele>205.0</ele><time>2026-04-02T06:14:22Z</time></trkpt><trkpt lat="36.933233650774916" lon="14.914965423358993"><ele>204.0</ele><time>2026-04-02T06:14:23Z</time></trkpt><trkpt lat="36.93328023053237" lon="14.915121261231846"><ele>203.0</ele><time>2026-04-02T06:14:24Z</time></trkpt><trkpt lat="36.93330718781633" lon="14.915283410593297"><ele>202.0</ele><time>2026-04-02T06:14:25Z</time></trkpt><trkpt lat="36.93331914400016" lon="14.915455914238041"><ele>201.0</ele><time>2026-04-02T06:14:26Z</time></trkpt><trkpt lat="36.93331468091333" lon="14.915631698537364"><ele>201.0</ele><time>2026-04-02T06:14:27Z</time></trkpt><trkpt lat="36.93330433247067" lon="14.915807893619736"><ele>201.0</ele><time>2026-04-02T06:14:28Z</time></trkpt><trkpt lat="36.933294985920675" lon="14.915984772704572"><ele>201.0</ele><time>2026-04-02T06:14:29Z</time></trkpt><trkpt lat="36.93328063761932" lon="14.916161640064523"><ele>201.0</ele><time>2026-04-02T06:14:30Z</time></trkpt><trkpt lat="36.93325558528982" lon="14.916323995140305"><ele>199.0</ele><time>2026-04-02T06:14:30.999Z</time></trkpt><trkpt lat="36.933212000171345" lon="14.916477854546363"><ele>197.0</ele><time>2026-04-02T06:14:31.999Z</time></trkpt><trkpt lat="36.933143079046076" lon="14.916615511696982"><ele>195.0</ele><time>2026-04-02T06:14:32.999Z</time></trkpt><trkpt lat="36.93305647841234" lon="14.916739211436596"><ele>193.0</ele><time>2026-04-02T06:14:33.999Z</time></trkpt><trkpt lat="36.93295157308982" lon="14.916843688843771"><ele>191.5</ele><time>2026-04-02T06:14:34.999Z</time></trkpt><trkpt lat="36.93282751910759" lon="14.916923299989355"><ele>190.0</ele><time>2026-04-02T06:14:35.999Z</time></trkpt><trkpt lat="36.932696158199285" lon="14.917004954307833"><ele>188.5</ele><time>2026-04-02T06:14:36.999Z</time></trkpt><trkpt lat="36.932558562500546" lon="14.917090593180973"><ele>187.0</ele><time>2026-04-02T06:14:37.999Z</time></trkpt><trkpt lat="36.93241575204884" lon="14.917177918606107"><ele>187.0</ele><time>2026-04-02T06:14:38.999Z</time></trkpt><trkpt lat="36.93226784066993" lon="14.917262105757262"><ele>187.0</ele><time>2026-04-02T06:14:39.999Z</time></trkpt><trkpt lat="36.9321217070366" lon="14.917347086558895"><ele>187.0</ele><time>2026-04-02T06:14:40.999Z</time></trkpt><trkpt lat="36.93197425729085" lon="14.917434189561142"><ele>187.0</ele><time>2026-04-02T06:14:41.999Z</time></trkpt><trkpt lat="36.93182726627185" lon="14.917523418554122"><ele>187.0</ele><time>2026-04-02T06:14:42.999Z</time></trkpt><trkpt lat="36.93167767121149" lon="14.917612539834817"><ele>187.0</ele><time>2026-04-02T06:14:43.999Z</time></trkpt><trkpt lat="36.931528492293786" lon="14.917704386803374"><ele>185.0</ele><time>2026-04-02T06:14:44.999Z</time></trkpt><trkpt lat="36.931381883657494" lon="14.917794353844048"><ele>183.0</ele><time>2026-04-02T06:14:45.999Z</time></trkpt><trkpt lat="36.93123381538279" lon="14.917886306851955"><ele>181.0</ele><time>2026-04-02T06:14:46.999Z</time></trkpt><trkpt lat="36.93108836607694" lon="14.917973024234254"><ele>181.0</ele><time>2026-04-02T06:14:47.999Z</time></trkpt><trkpt lat="36.93094487190314" lon="14.9180575258777"><ele>181.0</ele><time>2026-04-02T06:14:48.999Z</time></trkpt><trkpt lat="36.93080661317759" lon="14.91814165944265"><ele>181.0</ele><time>2026-04-02T06:14:49.999Z</time></trkpt><trkpt lat="36.930673386506484" lon="14.918225532815606"><ele>181.5</ele><time>2026-04-02T06:14:50.999Z</time></trkpt><trkpt lat="36.930552992120276" lon="14.918296785739056"><ele>182.0</ele><time>2026-04-02T06:14:51.999Z</time></trkpt><trkpt lat="36.93044066184638" lon="14.91837373777038"><ele>182.5</ele><time>2026-04-02T06:14:52.999Z</time></trkpt><trkpt lat="36.93033523626468" lon="14.918469149873607"><ele>183.0</ele><time>2026-04-02T06:14:53.999Z</time></trkpt><trkpt lat="36.930238676340785" lon="14.91857977125301"><ele>181.0</ele><time>2026-04-02T06:14:54.999Z</time></trkpt><trkpt lat="36.93015382068339" lon="14.918699549926039"><ele>179.0</ele><time>2026-04-02T06:14:55.999Z</time></trkpt><trkpt lat="36.930080527211814" lon="14.918836710549956"><ele>177.0</ele><time>2026-04-02T06:14:56.999Z</time></trkpt><trkpt lat="36.9300114927662" lon="14.91897367551433"><ele>175.0</ele><time>2026-04-02T06:14:57.999Z</time></trkpt><trkpt lat="36.92997242294611" lon="14.919130061294762"><ele>173.75</ele><time>2026-04-02T06:14:58.999Z</time></trkpt><trkpt lat="36.92994742358202" lon="14.919292935354365"><ele>172.5</ele><time>2026-04-02T06:14:59.999Z</time></trkpt><trkpt lat="36.92993513646749" lon="14.919456566303845"><ele>171.25</ele><time>2026-04-02T06:15:00.999Z</time></trkpt><trkpt lat="36.929940944789024" lon="14.919617750654746"><ele>170.0</ele><time>2026-04-02T06:15:01.999Z</time></trkpt><trkpt lat="36.929946306510686" lon="14.91977540698774"><ele>170.0</ele><time>2026-04-02T06:15:02.999Z</time></trkpt><trkpt lat="36.92994585236583" lon="14.91993348048957"><ele>170.0</ele><time>2026-04-02T06:15:03.999Z</time></trkpt><trkpt lat="36.92995150671317" lon="14.920074838307443"><ele>170.0</ele><time>2026-04-02T06:15:04.999Z</time></trkpt><trkpt lat="36.92995496303572" lon="14.920206582510833"><ele>170.0</ele><time>2026-04-02T06:15:05.999Z</time></trkpt><trkpt lat="36.929959802584335" lon="14.92032975432363"><ele>170.0</ele><time>2026-04-02T06:15:06.999Z</time></trkpt><trkpt lat="36.929967328776016" lon="14.920450700608576"><ele>169.83333333333331</ele><time>2026-04-02T06:15:07.999Z</time></trkpt><trkpt lat="36.92997041272055" lon="14.920569088461587"><ele>169.66666666666666</ele><time>2026-04-02T06:15:08.999Z</time></trkpt><trkpt lat="36.929964508804986" lon="14.920686421016566"><ele>169.5</ele><time>2026-04-02T06:15:09.999Z</time></trkpt><trkpt lat="36.92994528692376" lon="14.920792355748205"><ele>169.33333333333334</ele><time>2026-04-02T06:15:10.999Z</time></trkpt><trkpt lat="36.92991372226307" lon="14.920877435643693"><ele>169.16666666666669</ele><time>2026-04-02T06:15:11.999Z</time></trkpt><trkpt lat="36.92988700667628" lon="14.92096591458589"><ele>169.0</ele><time>2026-04-02T06:15:12.999Z</time></trkpt><trkpt lat="36.92986176190873" lon="14.92105480218743"><ele>169.0</ele><time>2026-04-02T06:15:13.999Z</time></trkpt><trkpt lat="36.92983640202002" lon="14.921141966328307"><ele>169.0</ele><time>2026-04-02T06:15:14.999Z</time></trkpt><trkpt lat="36.9298317112123" lon="14.921238296858732"><ele>169.0</ele><time>2026-04-02T06:15:15.999Z</time></trkpt><trkpt lat="36.929858253163346" lon="14.921335342382404"><ele>169.0</ele><time>2026-04-02T06:15:16.999Z</time></trkpt><trkpt lat="36.92991706504065" lon="14.921426978957857"><ele>169.0</ele><time>2026-04-02T06:15:18Z</time></trkpt><trkpt lat="36.929984269067624" lon="14.921517745944778"><ele>169.0</ele><time>2026-04-02T06:15:19Z</time></trkpt><trkpt lat="36.93004706045981" lon="14.921616579840586"><ele>170.2</ele><time>2026-04-02T06:15:20Z</time></trkpt><trkpt lat="36.93010561299637" lon="14.921721934609119"><ele>171.39999999999998</ele><time>2026-04-02T06:15:21Z</time></trkpt><trkpt lat="36.93013893644247" lon="14.921843178395282"><ele>172.6</ele><time>2026-04-02T06:15:22Z</time></trkpt><trkpt lat="36.93014438018107" lon="14.921971568168635"><ele>173.8</ele><time>2026-04-02T06:15:23Z</time></trkpt><trkpt lat="36.930121017898955" lon="14.922100166411534"><ele>175.0</ele><time>2026-04-02T06:15:24Z</time></trkpt><trkpt lat="36.930078612201335" lon="14.922228725864667"><ele>174.5</ele><time>2026-04-02T06:15:25Z</time></trkpt><trkpt lat="36.93002171476972" lon="14.922357123773"><ele>174.0</ele><time>2026-04-02T06:15:26Z</time></trkpt><trkpt lat="36.92996387431824" lon="14.922487316116433"><ele>173.5</ele><time>2026-04-02T06:15:27Z</time></trkpt><trkpt lat="36.92990550274444" lon="14.922612176860165"><ele>173.0</ele><time>2026-04-02T06:15:28Z</time></trkpt><trkpt lat="36.92983578401836" lon="14.922725782904363"><ele>174.4</ele><time>2026-04-02T06:15:29Z</time></trkpt><trkpt lat="36.929762614462035" lon="14.922824179158813"><ele>175.8</ele><time>2026-04-02T06:15:30Z</time></trkpt><trkpt lat="36.929694681401216" lon="14.922917005569248"><ele>177.2</ele><time>2026-04-02T06:15:31Z</time></trkpt><trkpt lat="36.92963042967256" lon="14.922994834795876"><ele>178.6</ele><time>2026-04-02T06:15:32Z</time></trkpt><trkpt lat="36.92957455901276" lon="14.92307853198442"><ele>180.0</ele><time>2026-04-02T06:15:33Z</time></trkpt><trkpt lat="36.92954874701701" lon="14.923182045163161"><ele>180.0</ele><time>2026-04-02T06:15:34Z</time></trkpt><trkpt lat="36.92955041677857" lon="14.92329241451066"><ele>180.0</ele><time>2026-04-02T06:15:35Z</time></trkpt><trkpt lat="36.9295731524271" lon="14.923406272589641"><ele>180.0</ele><time>2026-04-02T06:15:36Z</time></trkpt><trkpt lat="36.92961439311999" lon="14.923508886110929"><ele>180.0</ele><time>2026-04-02T06:15:37Z</time></trkpt><trkpt lat="36.929675376734814" lon="14.92360429118332"><ele>180.0</ele><time>2026-04-02T06:15:38Z</time></trkpt><trkpt lat="36.92974344826167" lon="14.923696761601134"><ele>180.2</ele><time>2026-04-02T06:15:39Z</time></trkpt><trkpt lat="36.929818575111156" lon="14.92377872510282"><ele>180.4</ele><time>2026-04-02T06:15:40Z</time></trkpt><trkpt lat="36.9298927599193" lon="14.923860211023356"><ele>180.60000000000002</ele><time>2026-04-02T06:15:41Z</time></trkpt><trkpt lat="36.92996970680358" lon="14.923939139661206"><ele>180.8</ele><time>2026-04-02T06:15:42Z</time></trkpt><trkpt lat="36.93005949119635" lon="14.924001128581391"><ele>181.0</ele><time>2026-04-02T06:15:43Z</time></trkpt><trkpt lat="36.93016165109895" lon="14.924042654535604"><ele>182.20000000000002</ele><time>2026-04-02T06:15:44Z</time></trkpt><trkpt lat="36.9302678486078" lon="14.924077181500667"><ele>183.4</ele><time>2026-04-02T06:15:45Z</time></trkpt><trkpt lat="36.930374862322395" lon="14.924111203557588"><ele>184.6</ele><time>2026-04-02T06:15:46Z</time></trkpt><trkpt lat="36.930484018563035" lon="14.92414042490549"><ele>185.8</ele><time>2026-04-02T06:15:47Z</time></trkpt><trkpt lat="36.930590554513266" lon="14.924175440952531"><ele>187.0</ele><time>2026-04-02T06:15:48Z</time></trkpt><trkpt lat="36.9306989308084" lon="14.924207672422776"><ele>187.39999999999998</ele><time>2026-04-02T06:15:49Z</time></trkpt><trkpt lat="36.93080581509247" lon="14.92423999871673"><ele>187.79999999999998</ele><time>2026-04-02T06:15:50Z</time></trkpt><trkpt lat="36.93091109273472" lon="14.924272917030471"><ele>188.2</ele><time>2026-04-02T06:15:51Z</time></trkpt><trkpt lat="36.931014660863156" lon="14.924301702192686"><ele>188.6</ele><time>2026-04-02T06:15:52Z</time></trkpt><trkpt lat="36.93111803293317" lon="14.924331040305281"><ele>189.0</ele><time>2026-04-02T06:15:53Z</time></trkpt><trkpt lat="36.931219530874664" lon="14.924358547572027"><ele>189.0</ele><time>2026-04-02T06:15:54Z</time></trkpt><trkpt lat="36.93132137772636" lon="14.924386158199523"><ele>189.0</ele><time>2026-04-02T06:15:55Z</time></trkpt><trkpt lat="36.93142459115471" lon="14.924411859657068"><ele>189.0</ele><time>2026-04-02T06:15:56Z</time></trkpt><trkpt lat="36.931530089940125" lon="14.924437586312807"><ele>189.0</ele><time>2026-04-02T06:15:57Z</time></trkpt><trkpt lat="36.93163495125302" lon="14.924465716905797"><ele>189.0</ele><time>2026-04-02T06:15:58Z</time></trkpt><trkpt lat="36.931736220463485" lon="14.924498952208792"><ele>190.0</ele><time>2026-04-02T06:15:59Z</time></trkpt><trkpt lat="36.931832888808366" lon="14.924545108750488"><ele>191.0</ele><time>2026-04-02T06:16:00Z</time></trkpt><trkpt lat="36.93192671698395" lon="14.924598554724891"><ele>192.0</ele><time>2026-04-02T06:16:01Z</time></trkpt><trkpt lat="36.932022467499245" lon="14.924674440014947"><ele>193.0</ele><time>2026-04-02T06:16:02Z</time></trkpt><trkpt lat="36.93211711515197" lon="14.92476531705373"><ele>194.0</ele><time>2026-04-02T06:16:03Z</time></trkpt><trkpt lat="36.93221089632868" lon="14.924860378761828"><ele>194.0</ele><time>2026-04-02T06:16:04Z</time></trkpt><trkpt lat="36.932305969700366" lon="14.924956951856824"><ele>194.0</ele><time>2026-04-02T06:16:05Z</time></trkpt><trkpt lat="36.932401913854164" lon="14.925057976929052"><ele>194.0</ele><time>2026-04-02T06:16:06Z</time></trkpt><trkpt lat="36.93249834195448" lon="14.92516241805528"><ele>194.0</ele><time>2026-04-02T06:16:07Z</time></trkpt><trkpt lat="36.932591198677535" lon="14.925267010664744"><ele>194.25</ele><time>2026-04-02T06:16:08Z</time></trkpt><trkpt lat="36.93268262714624" lon="14.925374223113577"><ele>194.5</ele><time>2026-04-02T06:16:09Z</time></trkpt><trkpt lat="36.93277357518783" lon="14.925486782760611"><ele>194.75</ele><time>2026-04-02T06:16:10Z</time></trkpt><trkpt lat="36.93286197048896" lon="14.925604033378395"><ele>195.0</ele><time>2026-04-02T06:16:11Z</time></trkpt><trkpt lat="36.93295028603524" lon="14.925724021098837"><ele>195.0</ele><time>2026-04-02T06:16:12Z</time></trkpt><trkpt lat="36.93303708292918" lon="14.92584437296653"><ele>195.0</ele><time>2026-04-02T06:16:13Z</time></trkpt><trkpt lat="36.933123765216656" lon="14.925964474187401"><ele>195.0</ele><time>2026-04-02T06:16:14Z</time></trkpt><trkpt lat="36.93321139060757" lon="14.926085462855372"><ele>195.0</ele><time>2026-04-02T06:16:15Z</time></trkpt><trkpt lat="36.93329716896912" lon="14.926208303356963"><ele>194.0</ele><time>2026-04-02T06:16:16Z</time></trkpt><trkpt lat="36.93338687520709" lon="14.926328982593214"><ele>193.0</ele><time>2026-04-02T06:16:17Z</time></trkpt><trkpt lat="36.93347936767019" lon="14.926447217428112"><ele>192.0</ele><time>2026-04-02T06:16:18Z</time></trkpt><trkpt lat="36.93357442121263" lon="14.926557417934575"><ele>191.0</ele><time>2026-04-02T06:16:19Z</time></trkpt><trkpt lat="36.93367053294067" lon="14.926668081856771"><ele>192.25</ele><time>2026-04-02T06:16:20Z</time></trkpt><trkpt lat="36.93376554179766" lon="14.926782910811037"><ele>193.5</ele><time>2026-04-02T06:16:21Z</time></trkpt><trkpt lat="36.93386148614373" lon="14.926899186145995"><ele>194.75</ele><time>2026-04-02T06:16:22Z</time></trkpt><trkpt lat="36.93395757118366" lon="14.927015420813493"><ele>196.0</ele><time>2026-04-02T06:16:23Z</time></trkpt><trkpt lat="36.93405349260124" lon="14.92713242240272"><ele>196.0</ele><time>2026-04-02T06:16:24Z</time></trkpt><trkpt lat="36.93415043803678" lon="14.9272496455953"><ele>196.0</ele><time>2026-04-02T06:16:25Z</time></trkpt><trkpt lat="36.93424811416645" lon="14.927365761876665"><ele>196.0</ele><time>2026-04-02T06:16:26Z</time></trkpt><trkpt lat="36.93434648834523" lon="14.927481407020826"><ele>196.0</ele><time>2026-04-02T06:16:27Z</time></trkpt><trkpt lat="36.934442584001026" lon="14.927593821576414"><ele>197.0</ele><time>2026-04-02T06:16:28Z</time></trkpt><trkpt lat="36.93453918501723" lon="14.92770445927707"><ele>198.0</ele><time>2026-04-02T06:16:29Z</time></trkpt><trkpt lat="36.93463166581716" lon="14.927807333723404"><ele>199.0</ele><time>2026-04-02T06:16:30Z</time></trkpt><trkpt lat="36.93471508739725" lon="14.927910767550907"><ele>200.0</ele><time>2026-04-02T06:16:31Z</time></trkpt><trkpt lat="36.934792090102654" lon="14.928010796030346"><ele>200.0</ele><time>2026-04-02T06:16:32Z</time></trkpt><trkpt lat="36.93486719776497" lon="14.928105541535245"><ele>200.0</ele><time>2026-04-02T06:16:33Z</time></trkpt><trkpt lat="36.93494265538613" lon="14.92820633512185"><ele>200.0</ele><time>2026-04-02T06:16:34Z</time></trkpt><trkpt lat="36.935014380480965" lon="14.928320106064879"><ele>200.0</ele><time>2026-04-02T06:16:35Z</time></trkpt><trkpt lat="36.93508145026479" lon="14.928441799744329"><ele>201.0</ele><time>2026-04-02T06:16:36Z</time></trkpt><trkpt lat="36.93514246632213" lon="14.928567837325655"><ele>202.0</ele><time>2026-04-02T06:16:37Z</time></trkpt><trkpt lat="36.93519793122288" lon="14.928694716479255"><ele>203.0</ele><time>2026-04-02T06:16:38Z</time></trkpt><trkpt lat="36.935255617847446" lon="14.928818565558647"><ele>204.0</ele><time>2026-04-02T06:16:39Z</time></trkpt><trkpt lat="36.93531763009771" lon="14.928936187574797"><ele>204.0</ele><time>2026-04-02T06:16:40Z</time></trkpt><trkpt lat="36.93538248945745" lon="14.929047083640429"><ele>204.0</ele><time>2026-04-02T06:16:41Z</time></trkpt><trkpt lat="36.935449001030946" lon="14.929150040288958"><ele>204.0</ele><time>2026-04-02T06:16:42Z</time></trkpt><trkpt lat="36.93551407514221" lon="14.929247270375932"><ele>204.0</ele><time>2026-04-02T06:16:43Z</time></trkpt><trkpt lat="36.935580443844266" lon="14.929343902956113"><ele>204.0</ele><time>2026-04-02T06:16:44Z</time></trkpt><trkpt lat="36.935646038669525" lon="14.929441525604151"><ele>204.6</ele><time>2026-04-02T06:16:45Z</time></trkpt><trkpt lat="36.93571298815312" lon="14.929537784884834"><ele>205.2</ele><time>2026-04-02T06:16:46Z</time></trkpt><trkpt lat="36.93578040150588" lon="14.929633956770651"><ele>205.79999999999998</ele><time>2026-04-02T06:16:47Z</time></trkpt><trkpt lat="36.93584903565349" lon="14.929730237582852"><ele>206.39999999999998</ele><time>2026-04-02T06:16:47.999Z</time></trkpt><trkpt lat="36.935916394036376" lon="14.929823715794079"><ele>207.0</ele><time>2026-04-02T06:16:48.999Z</time></trkpt><trkpt lat="36.93597463546655" lon="14.929905781293"><ele>207.0</ele><time>2026-04-02T06:16:49.999Z</time></trkpt><trkpt lat="36.93601707281611" lon="14.929991694708324"><ele>207.0</ele><time>2026-04-02T06:16:50.999Z</time></trkpt><trkpt lat="36.93604589954393" lon="14.930076344203083"><ele>207.0</ele><time>2026-04-02T06:16:51.999Z</time></trkpt><trkpt lat="36.93605858204983" lon="14.930160406419464"><ele>207.0</ele><time>2026-04-02T06:16:52.999Z</time></trkpt><trkpt lat="36.93606141340548" lon="14.930275755279977"><ele>207.0</ele><time>2026-04-02T06:16:54.999Z</time></trkpt><trkpt lat="36.936060956683086" lon="14.930361599508705"><ele>207.0</ele><time>2026-04-02T06:16:58.999Z</time></trkpt><trkpt lat="36.93605439513455" lon="14.930480231277258"><ele>205.75</ele><time>2026-04-02T06:17:01.999Z</time></trkpt><trkpt lat="36.936018148404294" lon="14.930597904007731"><ele>204.5</ele><time>2026-04-02T06:17:03.999Z</time></trkpt><trkpt lat="36.93599157122803" lon="14.930732647607039"><ele>203.25</ele><time>2026-04-02T06:17:05.999Z</time></trkpt><trkpt lat="36.93602343392812" lon="14.930867300929657"><ele>202.0</ele><time>2026-04-02T06:17:07.999Z</time></trkpt><trkpt lat="36.93613265104696" lon="14.930948952593152"><ele>201.66666666666666</ele><time>2026-04-02T06:17:09.999Z</time></trkpt><trkpt lat="36.93619669626865" lon="14.930987565739427"><ele>201.33333333333331</ele><time>2026-04-02T06:17:10.999Z</time></trkpt><trkpt lat="36.93626552069356" lon="14.931032497569623"><ele>201.0</ele><time>2026-04-02T06:17:11.999Z</time></trkpt><trkpt lat="36.93633941558977" lon="14.931086213935918"><ele>200.66666666666669</ele><time>2026-04-02T06:17:12.999Z</time></trkpt><trkpt lat="36.936408065748346" lon="14.93114034006285"><ele>200.33333333333334</ele><time>2026-04-02T06:17:13.999Z</time></trkpt><trkpt lat="36.93647491408129" lon="14.931193012876648"><ele>200.0</ele><time>2026-04-02T06:17:14.999Z</time></trkpt><trkpt lat="36.93654774420577" lon="14.931249583118401"><ele>200.0</ele><time>2026-04-02T06:17:15.999Z</time></trkpt><trkpt lat="36.9366234877694" lon="14.931309729135291"><ele>200.0</ele><time>2026-04-02T06:17:16.999Z</time></trkpt><trkpt lat="36.936699532056366" lon="14.93137068769747"><ele>200.0</ele><time>2026-04-02T06:17:17.999Z</time></trkpt><trkpt lat="36.93677692519771" lon="14.931430516583996"><ele>200.0</ele><time>2026-04-02T06:17:18.999Z</time></trkpt><trkpt lat="36.93685511687979" lon="14.931490528521376"><ele>200.0</ele><time>2026-04-02T06:17:19.998Z</time></trkpt><trkpt lat="36.93692962782247" lon="14.93154848201351"><ele>201.16666666666669</ele><time>2026-04-02T06:17:20.998Z</time></trkpt><trkpt lat="36.936999409385656" lon="14.931602052304765"><ele>202.33333333333334</ele><time>2026-04-02T06:17:21.998Z</time></trkpt><trkpt lat="36.937067290186256" lon="14.931652385069945"><ele>203.5</ele><time>2026-04-02T06:17:23Z</time></trkpt><trkpt lat="36.93713191119492" lon="14.931700361171464"><ele>204.66666666666669</ele><time>2026-04-02T06:17:24Z</time></trkpt><trkpt lat="36.93718869452288" lon="14.931746497361887"><ele>205.83333333333334</ele><time>2026-04-02T06:17:25Z</time></trkpt><trkpt lat="36.93727635855957" lon="14.931826445741333"><ele>207.0</ele><time>2026-04-02T06:17:27Z</time></trkpt><trkpt lat="36.93734345434484" lon="14.93186120658014"><ele>207.0</ele><time>2026-04-02T06:17:29Z</time></trkpt><trkpt lat="36.937405218922024" lon="14.931789766870779"><ele>207.0</ele><time>2026-04-02T06:17:31Z</time></trkpt><trkpt lat="36.937388843655526" lon="14.93165842090872"><ele>207.0</ele><time>2026-04-02T06:17:33Z</time></trkpt><trkpt lat="36.93735598142948" lon="14.931582553880796"><ele>207.0</ele><time>2026-04-02T06:17:34Z</time></trkpt><trkpt lat="36.93731400182989" lon="14.93150337909255"><ele>207.0</ele><time>2026-04-02T06:17:35Z</time></trkpt><trkpt lat="36.93727889143646" lon="14.931415436876462"><ele>207.0</ele><time>2026-04-02T06:17:36Z</time></trkpt><trkpt lat="36.93723976670635" lon="14.931320367981417"><ele>207.8</ele><time>2026-04-02T06:17:37Z</time></trkpt><trkpt lat="36.93719906726196" lon="14.93122192411482"><ele>208.6</ele><time>2026-04-02T06:17:38Z</time></trkpt><trkpt lat="36.93716296378749" lon="14.931119579827723"><ele>209.4</ele><time>2026-04-02T06:17:38.999Z</time></trkpt><trkpt lat="36.93712785553334" lon="14.930996896148972"><ele>210.20000000000002</ele><time>2026-04-02T06:17:39.999Z</time></trkpt><trkpt lat="36.93710348982796" lon="14.930863339224079"><ele>211.0</ele><time>2026-04-02T06:17:40.999Z</time></trkpt><trkpt lat="36.93708399836117" lon="14.930736638367629"><ele>212.25</ele><time>2026-04-02T06:17:41.999Z</time></trkpt><trkpt lat="36.93706501223805" lon="14.930595847269968"><ele>213.5</ele><time>2026-04-02T06:17:42.999Z</time></trkpt><trkpt lat="36.93704726915811" lon="14.930451164555162"><ele>214.75</ele><time>2026-04-02T06:17:43.999Z</time></trkpt><trkpt lat="36.93703020333699" lon="14.930306650287811"><ele>216.0</ele><time>2026-04-02T06:17:44.999Z</time></trkpt><trkpt lat="36.93701416942495" lon="14.930163844375285"><ele>217.0</ele><time>2026-04-02T06:17:45.999Z</time></trkpt><trkpt lat="36.93699882164063" lon="14.930030989336517"><ele>218.00000000000003</ele><time>2026-04-02T06:17:46.999Z</time></trkpt><trkpt lat="36.93698250370772" lon="14.929905189542566"><ele>219.00000000000003</ele><time>2026-04-02T06:17:47.999Z</time></trkpt><trkpt lat="36.93696801478569" lon="14.929788846170684"><ele>220.0</ele><time>2026-04-02T06:17:48.999Z</time></trkpt><trkpt lat="36.93695830538301" lon="14.929671092220282"><ele>221.0</ele><time>2026-04-02T06:17:49.999Z</time></trkpt><trkpt lat="36.936967066305016" lon="14.92955498682708"><ele>221.0</ele><time>2026-04-02T06:17:50.999Z</time></trkpt><trkpt lat="36.93698997951918" lon="14.929441247958765"><ele>221.00000000000003</ele><time>2026-04-02T06:17:51.999Z</time></trkpt><trkpt lat="36.93702972875428" lon="14.92933004627815"><ele>221.00000000000003</ele><time>2026-04-02T06:17:52.999Z</time></trkpt><trkpt lat="36.93707305564364" lon="14.929217685754308"><ele>221.0</ele><time>2026-04-02T06:17:53.999Z</time></trkpt><trkpt lat="36.93711663464371" lon="14.929107057123478"><ele>221.0</ele><time>2026-04-02T06:17:54.999Z</time></trkpt><trkpt lat="36.93716350168902" lon="14.929000988333083"><ele>221.20000000000002</ele><time>2026-04-02T06:17:55.999Z</time></trkpt><trkpt lat="36.93722047786373" lon="14.9288994452707"><ele>221.40000000000003</ele><time>2026-04-02T06:17:56.999Z</time></trkpt><trkpt lat="36.93728607468257" lon="14.928802251855336"><ele>221.6</ele><time>2026-04-02T06:17:57.999Z</time></trkpt><trkpt lat="36.93736073366652" lon="14.928711374511263"><ele>221.8</ele><time>2026-04-02T06:17:58.999Z</time></trkpt><trkpt lat="36.93743944344079" lon="14.928624631084382"><ele>222.0</ele><time>2026-04-02T06:17:59.999Z</time></trkpt><trkpt lat="36.937523941288106" lon="14.928547763964987"><ele>222.8</ele><time>2026-04-02T06:18:00.999Z</time></trkpt><trkpt lat="36.937612224992876" lon="14.928475311573294"><ele>223.6</ele><time>2026-04-02T06:18:01.999Z</time></trkpt><trkpt lat="36.937703650588716" lon="14.928415856888169"><ele>224.40000000000003</ele><time>2026-04-02T06:18:02.999Z</time></trkpt><trkpt lat="36.93779029357935" lon="14.928389040696038"><ele>225.20000000000002</ele><time>2026-04-02T06:18:03.999Z</time></trkpt><trkpt lat="36.93787669485124" lon="14.928402153441052"><ele>226.0</ele><time>2026-04-02T06:18:04.999Z</time></trkpt><trkpt lat="36.937958218393106" lon="14.928448514044863"><ele>226.8</ele><time>2026-04-02T06:18:05.999Z</time></trkpt><trkpt lat="36.938026581461585" lon="14.928527527346882"><ele>227.60000000000002</ele><time>2026-04-02T06:18:06.999Z</time></trkpt><trkpt lat="36.93808821099325" lon="14.928621386061884"><ele>228.4</ele><time>2026-04-02T06:18:07.999Z</time></trkpt><trkpt lat="36.93814991110118" lon="14.92871843128"><ele>229.2</ele><time>2026-04-02T06:18:08.999Z</time></trkpt><trkpt lat="36.93821413394895" lon="14.92881519179227"><ele>230.0</ele><time>2026-04-02T06:18:09.999Z</time></trkpt><trkpt lat="36.938269938657385" lon="14.928918498803938"><ele>230.0</ele><time>2026-04-02T06:18:10.999Z</time></trkpt><trkpt lat="36.93832181196232" lon="14.929026038889672"><ele>230.0</ele><time>2026-04-02T06:18:11.999Z</time></trkpt><trkpt lat="36.938376497717385" lon="14.929130676804876"><ele>230.0</ele><time>2026-04-02T06:18:12.999Z</time></trkpt><trkpt lat="36.93844109804522" lon="14.929213386036475"><ele>230.0</ele><time>2026-04-02T06:18:13.999Z</time></trkpt><trkpt lat="36.93851517456997" lon="14.929288084515527"><ele>230.0</ele><time>2026-04-02T06:18:14.999Z</time></trkpt><trkpt lat="36.93859901921565" lon="14.929352380660626"><ele>232.6</ele><time>2026-04-02T06:18:15.999Z</time></trkpt><trkpt lat="36.93869154598366" lon="14.929397227218898"><ele>235.2</ele><time>2026-04-02T06:18:16.999Z</time></trkpt><trkpt lat="36.93878715558558" lon="14.92942541464263"><ele>237.8</ele><time>2026-04-02T06:18:17.999Z</time></trkpt><trkpt lat="36.938888795418514" lon="14.929439465265128"><ele>240.4</ele><time>2026-04-02T06:18:18.999Z</time></trkpt><trkpt lat="36.93899126176983" lon="14.929436409551046"><ele>243.0</ele><time>2026-04-02T06:18:19.999Z</time></trkpt><trkpt lat="36.93909401064506" lon="14.929424288481684"><ele>243.0</ele><time>2026-04-02T06:18:20.999Z</time></trkpt><trkpt lat="36.939193081175304" lon="14.92941591178899"><ele>243.0</ele><time>2026-04-02T06:18:21.999Z</time></trkpt><trkpt lat="36.93929311661226" lon="14.929419096182666"><ele>243.0</ele><time>2026-04-02T06:18:22.999Z</time></trkpt><trkpt lat="36.93939213749014" lon="14.929438428069599"><ele>243.0</ele><time>2026-04-02T06:18:23.999Z</time></trkpt><trkpt lat="36.939489525797754" lon="14.92947221001"><ele>243.0</ele><time>2026-04-02T06:18:24.999Z</time></trkpt><trkpt lat="36.939586772987695" lon="14.929508227994422"><ele>244.2</ele><time>2026-04-02T06:18:25.999Z</time></trkpt><trkpt lat="36.93968266845812" lon="14.929538891955765"><ele>245.4</ele><time>2026-04-02T06:18:26.999Z</time></trkpt><trkpt lat="36.93977642176106" lon="14.929563407002783"><ele>246.59999999999997</ele><time>2026-04-02T06:18:27.999Z</time></trkpt><trkpt lat="36.939871608043724" lon="14.929572882330644"><ele>247.79999999999998</ele><time>2026-04-02T06:18:28.999Z</time></trkpt><trkpt lat="36.93996398783942" lon="14.929559127940506"><ele>249.0</ele><time>2026-04-02T06:18:29.999Z</time></trkpt><trkpt lat="36.94004621098947" lon="14.929522225718102"><ele>250.79999999999998</ele><time>2026-04-02T06:18:30.999Z</time></trkpt><trkpt lat="36.94012198481685" lon="14.929460219674636"><ele>252.59999999999997</ele><time>2026-04-02T06:18:31.999Z</time></trkpt><trkpt lat="36.94018593928676" lon="14.929374837232237"><ele>254.4</ele><time>2026-04-02T06:18:32.999Z</time></trkpt><trkpt lat="36.9402417257637" lon="14.92927541761623"><ele>256.2</ele><time>2026-04-02T06:18:33.999Z</time></trkpt><trkpt lat="36.94028908047936" lon="14.929166919359805"><ele>258.0</ele><time>2026-04-02T06:18:34.999Z</time></trkpt><trkpt lat="36.94032873715829" lon="14.929050546505945"><ele>258.4</ele><time>2026-04-02T06:18:35.999Z</time></trkpt><trkpt lat="36.94036790441509" lon="14.928928670982417"><ele>258.8</ele><time>2026-04-02T06:18:36.999Z</time></trkpt><trkpt lat="36.94039904585793" lon="14.928801468452884"><ele>259.2</ele><time>2026-04-02T06:18:37.999Z</time></trkpt><trkpt lat="36.94041707749749" lon="14.9286734172728"><ele>259.6</ele><time>2026-04-02T06:18:38.999Z</time></trkpt><trkpt lat="36.94042750914324" lon="14.928542892900605"><ele>260.0</ele><time>2026-04-02T06:18:39.999Z</time></trkpt><trkpt lat="36.940428123456854" lon="14.928410681195599"><ele>259.8</ele><time>2026-04-02T06:18:40.999Z</time></trkpt><trkpt lat="36.940429868675345" lon="14.928274948384733"><ele>259.6</ele><time>2026-04-02T06:18:41.999Z</time></trkpt><trkpt lat="36.940428890621995" lon="14.928141888448181"><ele>259.4</ele><time>2026-04-02T06:18:42.999Z</time></trkpt><trkpt lat="36.94042027414483" lon="14.928017818939107"><ele>259.2</ele><time>2026-04-02T06:18:43.999Z</time></trkpt><trkpt lat="36.94042010308386" lon="14.92790208687786"><ele>259.0</ele><time>2026-04-02T06:18:44.999Z</time></trkpt><trkpt lat="36.94043462499399" lon="14.92779235513183"><ele>259.0</ele><time>2026-04-02T06:18:45.999Z</time></trkpt><trkpt lat="36.940469338031605" lon="14.927702291010812"><ele>259.0</ele><time>2026-04-02T06:18:46.999Z</time></trkpt><trkpt lat="36.94052184632043" lon="14.92762977806208"><ele>259.0</ele><time>2026-04-02T06:18:47.999Z</time></trkpt><trkpt lat="36.94058778953823" lon="14.927563285896365"><ele>259.0</ele><time>2026-04-02T06:18:48.999Z</time></trkpt><trkpt lat="36.940663334353104" lon="14.927499714824066"><ele>259.0</ele><time>2026-04-02T06:18:49.999Z</time></trkpt><trkpt lat="36.940738386102545" lon="14.92743104040931"><ele>259.0</ele><time>2026-04-02T06:18:50.999Z</time></trkpt><trkpt lat="36.940816591487916" lon="14.927363543012019"><ele>260.59999999999997</ele><time>2026-04-02T06:18:51.999Z</time></trkpt><trkpt lat="36.94090305400048" lon="14.927311024165247"><ele>262.2</ele><time>2026-04-02T06:18:52.999Z</time></trkpt><trkpt lat="36.94099309630409" lon="14.927265259937437"><ele>263.79999999999995</ele><time>2026-04-02T06:18:53.999Z</time></trkpt><trkpt lat="36.941089178787486" lon="14.92723359384146"><ele>265.4</ele><time>2026-04-02T06:18:54.999Z</time></trkpt><trkpt lat="36.94118753329763" lon="14.927216446380143"><ele>267.0</ele><time>2026-04-02T06:18:55.999Z</time></trkpt><trkpt lat="36.94128812790817" lon="14.927209014289927"><ele>267.0</ele><time>2026-04-02T06:18:56.999Z</time></trkpt><trkpt lat="36.94138760979759" lon="14.92719119525262"><ele>267.0</ele><time>2026-04-02T06:18:57.999Z</time></trkpt><trkpt lat="36.94148456582638" lon="14.927163248950112"><ele>267.0</ele><time>2026-04-02T06:18:58.999Z</time></trkpt><trkpt lat="36.94158049487812" lon="14.927119118995487"><ele>267.0</ele><time>2026-04-02T06:18:59.999Z</time></trkpt><trkpt lat="36.941672840135745" lon="14.927061369294368"><ele>267.0</ele><time>2026-04-02T06:19:00.999Z</time></trkpt><trkpt lat="36.94175997301764" lon="14.926987593459152"><ele>268.4</ele><time>2026-04-02T06:19:01.999Z</time></trkpt><trkpt lat="36.94184504714127" lon="14.926904333359072"><ele>269.79999999999995</ele><time>2026-04-02T06:19:02.998Z</time></trkpt><trkpt lat="36.941925153282426" lon="14.92681628835207"><ele>271.2</ele><time>2026-04-02T06:19:03.998Z</time></trkpt><trkpt lat="36.94200253642879" lon="14.926723220710548"><ele>272.59999999999997</ele><time>2026-04-02T06:19:04.998Z</time></trkpt><trkpt lat="36.94207750649984" lon="14.926630365325469"><ele>274.0</ele><time>2026-04-02T06:19:05.999Z</time></trkpt><trkpt lat="36.94214867230784" lon="14.92653948541093"><ele>274.0</ele><time>2026-04-02T06:19:06.998Z</time></trkpt><trkpt lat="36.94221584390594" lon="14.926456675087449"><ele>274.0</ele><time>2026-04-02T06:19:07.998Z</time></trkpt><trkpt lat="36.94227761029515" lon="14.926374920770549"><ele>274.0</ele><time>2026-04-02T06:19:08.998Z</time></trkpt><trkpt lat="36.94234685601398" lon="14.926302983721138"><ele>274.0</ele><time>2026-04-02T06:19:09.998Z</time></trkpt><trkpt lat="36.9424254950474" lon="14.926245590559018"><ele>274.0</ele><time>2026-04-02T06:19:10.998Z</time></trkpt><trkpt lat="36.94250868177885" lon="14.926196640628175"><ele>275.3333333333333</ele><time>2026-04-02T06:19:11.998Z</time></trkpt><trkpt lat="36.94258653612106" lon="14.92612962353437"><ele>276.66666666666663</ele><time>2026-04-02T06:19:12.998Z</time></trkpt><trkpt lat="36.94264419429674" lon="14.926036365005977"><ele>278.0</ele><time>2026-04-02T06:19:13.998Z</time></trkpt><trkpt lat="36.942688317111475" lon="14.92594033375695"><ele>279.3333333333333</ele><time>2026-04-02T06:19:14.998Z</time></trkpt><trkpt lat="36.942738004204955" lon="14.925864070397317"><ele>280.6666666666667</ele><time>2026-04-02T06:19:15.998Z</time></trkpt><trkpt lat="36.94280231203375" lon="14.925813474218085"><ele>282.0</ele><time>2026-04-02T06:19:16.998Z</time></trkpt><trkpt lat="36.94287232425041" lon="14.925787948482816"><ele>282.0</ele><time>2026-04-02T06:19:17.998Z</time></trkpt><trkpt lat="36.94294991291949" lon="14.925785184697352"><ele>282.0</ele><time>2026-04-02T06:19:18.998Z</time></trkpt><trkpt lat="36.9430340805694" lon="14.925800035568844"><ele>282.0</ele><time>2026-04-02T06:19:19.998Z</time></trkpt><trkpt lat="36.94311687720192" lon="14.925802222596507"><ele>282.0</ele><time>2026-04-02T06:19:20.998Z</time></trkpt><trkpt lat="36.943198435676074" lon="14.92580652118283"><ele>282.0</ele><time>2026-04-02T06:19:21.998Z</time></trkpt><trkpt lat="36.943279929866335" lon="14.925813309956474"><ele>282.0</ele><time>2026-04-02T06:19:22.998Z</time></trkpt><trkpt lat="36.94336147885223" lon="14.925805043103786"><ele>283.8</ele><time>2026-04-02T06:19:23.998Z</time></trkpt><trkpt lat="36.94344214888115" lon="14.925780671162547"><ele>285.6</ele><time>2026-04-02T06:19:24.998Z</time></trkpt><trkpt lat="36.943514636366544" lon="14.92572306973316"><ele>287.40000000000003</ele><time>2026-04-02T06:19:25.998Z</time></trkpt><trkpt lat="36.943584322149555" lon="14.925652262687986"><ele>289.2</ele><time>2026-04-02T06:19:26.998Z</time></trkpt><trkpt lat="36.94365340421836" lon="14.925573244383811"><ele>291.0</ele><time>2026-04-02T06:19:27.998Z</time></trkpt><trkpt lat="36.94372925229495" lon="14.925490747733926"><ele>291.0</ele><time>2026-04-02T06:19:28.999Z</time></trkpt><trkpt lat="36.94380515145428" lon="14.925403874371803"><ele>291.0</ele><time>2026-04-02T06:19:29.999Z</time></trkpt><trkpt lat="36.943883517547874" lon="14.92531542136573"><ele>291.0</ele><time>2026-04-02T06:19:30.999Z</time></trkpt><trkpt lat="36.94396517624638" lon="14.925226126185521"><ele>291.0</ele><time>2026-04-02T06:19:31.999Z</time></trkpt><trkpt lat="36.94404817570113" lon="14.925134893500415"><ele>291.0</ele><time>2026-04-02T06:19:32.999Z</time></trkpt><trkpt lat="36.94413136318103" lon="14.925050622994094"><ele>292.2</ele><time>2026-04-02T06:19:33.999Z</time></trkpt><trkpt lat="36.94421894111859" lon="14.924974223966002"><ele>293.40000000000003</ele><time>2026-04-02T06:19:34.999Z</time></trkpt><trkpt lat="36.94430912241281" lon="14.92489354256461"><ele>294.6</ele><time>2026-04-02T06:19:35.999Z</time></trkpt><trkpt lat="36.94440347578185" lon="14.924814113050243"><ele>295.8</ele><time>2026-04-02T06:19:36.999Z</time></trkpt><trkpt lat="36.94449944933586" lon="14.92473560616131"><ele>297.0</ele><time>2026-04-02T06:19:37.999Z</time></trkpt><trkpt lat="36.94459628776693" lon="14.92465427174157"><ele>297.0</ele><time>2026-04-02T06:19:38.999Z</time></trkpt><trkpt lat="36.94469830730705" lon="14.924578766474204"><ele>297.0</ele><time>2026-04-02T06:19:39.999Z</time></trkpt><trkpt lat="36.94480257188575" lon="14.9245051607035"><ele>297.0</ele><time>2026-04-02T06:19:40.999Z</time></trkpt><trkpt lat="36.94490614299435" lon="14.924429483923033"><ele>297.0</ele><time>2026-04-02T06:19:41.999Z</time></trkpt><trkpt lat="36.945003689254996" lon="14.92434538537457"><ele>297.0</ele><time>2026-04-02T06:19:42.999Z</time></trkpt><trkpt lat="36.9450926493851" lon="14.924258480047948"><ele>297.0</ele><time>2026-04-02T06:19:43.999Z</time></trkpt><trkpt lat="36.94518465033717" lon="14.924197813004492"><ele>297.0</ele><time>2026-04-02T06:19:44.999Z</time></trkpt><trkpt lat="36.94526259448019" lon="14.92411678398202"><ele>297.0</ele><time>2026-04-02T06:19:45.999Z</time></trkpt><trkpt lat="36.94535284737981" lon="14.924055258470922"><ele>297.0</ele><time>2026-04-02T06:19:46.999Z</time></trkpt><trkpt lat="36.94545157663596" lon="14.924002569590018"><ele>297.0</ele><time>2026-04-02T06:19:47.999Z</time></trkpt><trkpt lat="36.94555356564755" lon="14.923955279735678"><ele>297.0</ele><time>2026-04-02T06:19:48.999Z</time></trkpt><trkpt lat="36.945653574470306" lon="14.923913251458409"><ele>297.0</ele><time>2026-04-02T06:19:49.999Z</time></trkpt><trkpt lat="36.945744107694196" lon="14.923874539400291"><ele>297.0</ele><time>2026-04-02T06:19:50.999Z</time></trkpt><trkpt lat="36.94582717637883" lon="14.923836910022862"><ele>297.0</ele><time>2026-04-02T06:19:51.999Z</time></trkpt><trkpt lat="36.94589976803801" lon="14.923804085591131"><ele>297.0</ele><time>2026-04-02T06:19:52.999Z</time></trkpt><trkpt lat="36.94596699400973" lon="14.923786174186572"><ele>297.0</ele><time>2026-04-02T06:19:53.999Z</time></trkpt><trkpt lat="36.946031356009826" lon="14.923787495776041"><ele>297.0</ele><time>2026-04-02T06:19:54.999Z</time></trkpt><trkpt lat="36.94610069814949" lon="14.923808421184983"><ele>297.0</ele><time>2026-04-02T06:19:55.999Z</time></trkpt><trkpt lat="36.946159779398485" lon="14.923851243521208"><ele>297.0</ele><time>2026-04-02T06:19:56.999Z</time></trkpt><trkpt lat="36.946187440102754" lon="14.923929626648201"><ele>297.0</ele><time>2026-04-02T06:19:57.999Z</time></trkpt><trkpt lat="36.94621648766717" lon="14.924014161988975"><ele>297.0</ele><time>2026-04-02T06:19:58.999Z</time></trkpt><trkpt lat="36.94625918532167" lon="14.924102414199345"><ele>297.0</ele><time>2026-04-02T06:19:59.999Z</time></trkpt><trkpt lat="36.946297287286676" lon="14.924197162566982"><ele>297.0</ele><time>2026-04-02T06:20:00.999Z</time></trkpt><trkpt lat="36.94633896788332" lon="14.92429482656115"><ele>297.0</ele><time>2026-04-02T06:20:01.999Z</time></trkpt><trkpt lat="36.94638285883903" lon="14.924393994102399"><ele>297.0</ele><time>2026-04-02T06:20:02.999Z</time></trkpt><trkpt lat="36.946427666781304" lon="14.924497638223606"><ele>297.0</ele><time>2026-04-02T06:20:03.999Z</time></trkpt><trkpt lat="36.94647337176429" lon="14.924601440741498"><ele>298.3333333333333</ele><time>2026-04-02T06:20:04.999Z</time></trkpt><trkpt lat="36.94651656258822" lon="14.924700055508008"><ele>299.6666666666667</ele><time>2026-04-02T06:20:05.999Z</time></trkpt><trkpt lat="36.94655936263279" lon="14.924792339216374"><ele>301.0</ele><time>2026-04-02T06:20:06.999Z</time></trkpt><trkpt lat="36.9466103020929" lon="14.924876400659711"><ele>302.33333333333337</ele><time>2026-04-02T06:20:07.999Z</time></trkpt><trkpt lat="36.9466741607784" lon="14.924954686815225"><ele>303.6666666666667</ele><time>2026-04-02T06:20:08.999Z</time></trkpt><trkpt lat="36.94675131888671" lon="14.925020492638131"><ele>305.0</ele><time>2026-04-02T06:20:09.999Z</time></trkpt><trkpt lat="36.94683858350115" lon="14.925074878538835"><ele>306.6</ele><time>2026-04-02T06:20:10.999Z</time></trkpt><trkpt lat="36.94693144783079" lon="14.925120437601642"><ele>308.2</ele><time>2026-04-02T06:20:11.999Z</time></trkpt><trkpt lat="36.94702628302443" lon="14.925171535891014"><ele>309.8</ele><time>2026-04-02T06:20:12.999Z</time></trkpt><trkpt lat="36.947126516167906" lon="14.925224574032994"><ele>311.4</ele><time>2026-04-02T06:20:13.999Z</time></trkpt><trkpt lat="36.94722552435066" lon="14.925276845560619"><ele>313.0</ele><time>2026-04-02T06:20:14.999Z</time></trkpt><trkpt lat="36.94732354637168" lon="14.925330016655332"><ele>313.0</ele><time>2026-04-02T06:20:15.999Z</time></trkpt><trkpt lat="36.94742220675996" lon="14.92538877350647"><ele>313.0</ele><time>2026-04-02T06:20:16.999Z</time></trkpt><trkpt lat="36.947516603474945" lon="14.925460664065115"><ele>313.0</ele><time>2026-04-02T06:20:17.999Z</time></trkpt><trkpt lat="36.947605051556145" lon="14.925541369869862"><ele>313.0</ele><time>2026-04-02T06:20:18.999Z</time></trkpt><trkpt lat="36.94769892267203" lon="14.925626684925188"><ele>313.0</ele><time>2026-04-02T06:20:19.999Z</time></trkpt><trkpt lat="36.947787978152085" lon="14.925713357923167"><ele>314.6</ele><time>2026-04-02T06:20:20.999Z</time></trkpt><trkpt lat="36.94787469718725" lon="14.925796768536395"><ele>316.20000000000005</ele><time>2026-04-02T06:20:21.999Z</time></trkpt><trkpt lat="36.94796065164525" lon="14.925879862870055"><ele>317.8</ele><time>2026-04-02T06:20:22.999Z</time></trkpt><trkpt lat="36.948043340207896" lon="14.925960097406524"><ele>319.40000000000003</ele><time>2026-04-02T06:20:23.999Z</time></trkpt><trkpt lat="36.94812773535981" lon="14.926044603443975"><ele>321.0</ele><time>2026-04-02T06:20:24.999Z</time></trkpt><trkpt lat="36.94820744621646" lon="14.92612422654656"><ele>321.5</ele><time>2026-04-02T06:20:25.999Z</time></trkpt><trkpt lat="36.94828159024019" lon="14.926195024634804"><ele>322.0</ele><time>2026-04-02T06:20:26.999Z</time></trkpt><trkpt lat="36.948354724379016" lon="14.926244492638734"><ele>322.5</ele><time>2026-04-02T06:20:27.999Z</time></trkpt><trkpt lat="36.94843712692793" lon="14.926263932346213"><ele>323.0</ele><time>2026-04-02T06:20:28.999Z</time></trkpt><trkpt lat="36.94852132551571" lon="14.926248834822287"><ele>323.5</ele><time>2026-04-02T06:20:29.999Z</time></trkpt><trkpt lat="36.94859680803869" lon="14.926206878305383"><ele>324.0</ele><time>2026-04-02T06:20:30.999Z</time></trkpt><trkpt lat="36.94867195860164" lon="14.926156151378091"><ele>325.1666666666667</ele><time>2026-04-02T06:20:31.999Z</time></trkpt><trkpt lat="36.94875195870274" lon="14.926115241686077"><ele>326.3333333333333</ele><time>2026-04-02T06:20:32.999Z</time></trkpt><trkpt lat="36.948832456520975" lon="14.926068937196026"><ele>327.5</ele><time>2026-04-02T06:20:33.999Z</time></trkpt><trkpt lat="36.94891545579568" lon="14.926022798776717"><ele>328.66666666666663</ele><time>2026-04-02T06:20:34.999Z</time></trkpt><trkpt lat="36.94899593995107" lon="14.92597478724462"><ele>329.8333333333333</ele><time>2026-04-02T06:20:35.999Z</time></trkpt><trkpt lat="36.949078377059614" lon="14.925928314213847"><ele>331.0</ele><time>2026-04-02T06:20:36.999Z</time></trkpt><trkpt lat="36.949166530978076" lon="14.92588070435953"><ele>332.0</ele><time>2026-04-02T06:20:37.999Z</time></trkpt><trkpt lat="36.94925513763686" lon="14.925834724206325"><ele>333.0</ele><time>2026-04-02T06:20:38.999Z</time></trkpt><trkpt lat="36.94934670772492" lon="14.9257875631687"><ele>334.0</ele><time>2026-04-02T06:20:39.999Z</time></trkpt><trkpt lat="36.949437419044926" lon="14.925741030153716"><ele>335.0</ele><time>2026-04-02T06:20:40.999Z</time></trkpt><trkpt lat="36.94952111369458" lon="14.925693923355787"><ele>336.0</ele><time>2026-04-02T06:20:41.999Z</time></trkpt><trkpt lat="36.949599877174535" lon="14.925655131954228"><ele>336.0</ele><time>2026-04-02T06:20:42.999Z</time></trkpt><trkpt lat="36.949672118175606" lon="14.925629651288753"><ele>336.0</ele><time>2026-04-02T06:20:43.999Z</time></trkpt><trkpt lat="36.94974538410539" lon="14.925626082949261"><ele>336.0</ele><time>2026-04-02T06:20:44.999Z</time></trkpt><trkpt lat="36.94981108832602" lon="14.925640840492171"><ele>336.0</ele><time>2026-04-02T06:20:45.999Z</time></trkpt><trkpt lat="36.9498651890564" lon="14.925681572217762"><ele>336.0</ele><time>2026-04-02T06:20:46.999Z</time></trkpt><trkpt lat="36.94990072094188" lon="14.925746978525254"><ele>336.0</ele><time>2026-04-02T06:20:47.999Z</time></trkpt><trkpt lat="36.94989558955158" lon="14.925836703931818"><ele>336.0</ele><time>2026-04-02T06:20:48.999Z</time></trkpt><trkpt lat="36.94991089648225" lon="14.925925804843128"><ele>336.6666666666667</ele><time>2026-04-02T06:20:49.999Z</time></trkpt><trkpt lat="36.94991034395803" lon="14.92601762574205"><ele>337.3333333333333</ele><time>2026-04-02T06:20:50.999Z</time></trkpt><trkpt lat="36.94991976830537" lon="14.926115680482138"><ele>338.0</ele><time>2026-04-02T06:20:51.999Z</time></trkpt><trkpt lat="36.949931801968226" lon="14.926218839730824"><ele>338.66666666666663</ele><time>2026-04-02T06:20:52.999Z</time></trkpt><trkpt lat="36.94994437168242" lon="14.926325194119453"><ele>339.3333333333333</ele><time>2026-04-02T06:20:53.999Z</time></trkpt><trkpt lat="36.949958985001786" lon="14.926431823130656"><ele>340.0</ele><time>2026-04-02T06:20:54.999Z</time></trkpt><trkpt lat="36.949984986230405" lon="14.926531822841472"><ele>340.0</ele><time>2026-04-02T06:20:55.999Z</time></trkpt><trkpt lat="36.95002701197698" lon="14.926625293601507"><ele>340.0</ele><time>2026-04-02T06:20:56.999Z</time></trkpt><trkpt lat="36.95008798255194" lon="14.92671084495258"><ele>340.0</ele><time>2026-04-02T06:20:57.999Z</time></trkpt><trkpt lat="36.950158031955105" lon="14.92678844280277"><ele>340.0</ele><time>2026-04-02T06:20:58.999Z</time></trkpt><trkpt lat="36.95023230215141" lon="14.926862719546001"><ele>340.0</ele><time>2026-04-02T06:20:59.999Z</time></trkpt><trkpt lat="36.95031053858508" lon="14.926928381409605"><ele>342.2</ele><time>2026-04-02T06:21:00.999Z</time></trkpt><trkpt lat="36.95039026069568" lon="14.926991842167807"><ele>344.4</ele><time>2026-04-02T06:21:01.999Z</time></trkpt><trkpt lat="36.95047534194813" lon="14.927052793419318"><ele>346.6</ele><time>2026-04-02T06:21:02.999Z</time></trkpt><trkpt lat="36.95056245644011" lon="14.927111354569679"><ele>348.8</ele><time>2026-04-02T06:21:03.999Z</time></trkpt><trkpt lat="36.950648074854456" lon="14.927170884547522"><ele>351.0</ele><time>2026-04-02T06:21:04.999Z</time></trkpt><trkpt lat="36.95073026041335" lon="14.92722603822051"><ele>351.0</ele><time>2026-04-02T06:21:05.999Z</time></trkpt><trkpt lat="36.95081157920567" lon="14.927280007062596"><ele>351.0</ele><time>2026-04-02T06:21:06.998Z</time></trkpt><trkpt lat="36.95088434222522" lon="14.927331283878347"><ele>351.0</ele><time>2026-04-02T06:21:07.998Z</time></trkpt><trkpt lat="36.9509391246241" lon="14.927386635571757"><ele>351.0</ele><time>2026-04-02T06:21:08.998Z</time></trkpt><trkpt lat="36.95099230632012" lon="14.92751860194478"><ele>351.0</ele><time>2026-04-02T06:21:10.998Z</time></trkpt><trkpt lat="36.95098955048771" lon="14.927602113054352"><ele>351.0</ele><time>2026-04-02T06:21:11.998Z</time></trkpt><trkpt lat="36.950960866786346" lon="14.927689884696322"><ele>351.6666666666667</ele><time>2026-04-02T06:21:12.998Z</time></trkpt><trkpt lat="36.950939279528455" lon="14.927784666037473"><ele>352.3333333333333</ele><time>2026-04-02T06:21:13.998Z</time></trkpt><trkpt lat="36.950917578429966" lon="14.92788405320209"><ele>353.0</ele><time>2026-04-02T06:21:14.998Z</time></trkpt><trkpt lat="36.9508961614187" lon="14.927994287588831"><ele>353.66666666666663</ele><time>2026-04-02T06:21:15.998Z</time></trkpt><trkpt lat="36.950873402690654" lon="14.92811030040328"><ele>354.3333333333333</ele><time>2026-04-02T06:21:16.998Z</time></trkpt><trkpt lat="36.950849082356335" lon="14.92823096566002"><ele>355.0</ele><time>2026-04-02T06:21:17.998Z</time></trkpt><trkpt lat="36.95082411094806" lon="14.928354848920433"><ele>355.2</ele><time>2026-04-02T06:21:18.998Z</time></trkpt><trkpt lat="36.95079762364925" lon="14.928482456688483"><ele>355.4</ele><time>2026-04-02T06:21:19.998Z</time></trkpt><trkpt lat="36.950772160850235" lon="14.928614797123062"><ele>355.6</ele><time>2026-04-02T06:21:20.998Z</time></trkpt><trkpt lat="36.95074706354546" lon="14.928748871900272"><ele>355.8</ele><time>2026-04-02T06:21:21.998Z</time></trkpt><trkpt lat="36.95072029624023" lon="14.92888505128361"><ele>356.0</ele><time>2026-04-02T06:21:22.998Z</time></trkpt><trkpt lat="36.950694082554925" lon="14.929024435653933"><ele>356.0</ele><time>2026-04-02T06:21:23.998Z</time></trkpt><trkpt lat="36.95066669914447" lon="14.929167440278139"><ele>356.0</ele><time>2026-04-02T06:21:24.998Z</time></trkpt><trkpt lat="36.95063925480614" lon="14.929314002752967"><ele>356.0</ele><time>2026-04-02T06:21:25.998Z</time></trkpt><trkpt lat="36.95061231910335" lon="14.929463348878222"><ele>356.0</ele><time>2026-04-02T06:21:26.998Z</time></trkpt><trkpt lat="36.95058346020457" lon="14.92961456255651"><ele>356.0</ele><time>2026-04-02T06:21:27.998Z</time></trkpt><trkpt lat="36.950555280903245" lon="14.929765433566125"><ele>356.0</ele><time>2026-04-02T06:21:28.998Z</time></trkpt><trkpt lat="36.95052613522259" lon="14.929913765873735"><ele>356.0</ele><time>2026-04-02T06:21:29.998Z</time></trkpt><trkpt lat="36.95049646537394" lon="14.930060897026552"><ele>356.0</ele><time>2026-04-02T06:21:30.998Z</time></trkpt><trkpt lat="36.95046770528484" lon="14.930207813123566"><ele>356.0</ele><time>2026-04-02T06:21:31.998Z</time></trkpt><trkpt lat="36.95043946855967" lon="14.930353343694343"><ele>356.0</ele><time>2026-04-02T06:21:32.998Z</time></trkpt><trkpt lat="36.950410765183896" lon="14.930498342113143"><ele>356.0</ele><time>2026-04-02T06:21:33.998Z</time></trkpt><trkpt lat="36.95038457559704" lon="14.930643822833218"><ele>356.0</ele><time>2026-04-02T06:21:34.999Z</time></trkpt><trkpt lat="36.950358945367384" lon="14.930790453060578"><ele>356.75</ele><time>2026-04-02T06:21:35.999Z</time></trkpt><trkpt lat="36.95033108471182" lon="14.930937048034098"><ele>357.5</ele><time>2026-04-02T06:21:36.999Z</time></trkpt><trkpt lat="36.9503028454906" lon="14.931082258195394"><ele>358.25</ele><time>2026-04-02T06:21:37.999Z</time></trkpt><trkpt lat="36.95027580979078" lon="14.93122627418992"><ele>359.0</ele><time>2026-04-02T06:21:38.999Z</time></trkpt><trkpt lat="36.950250572380746" lon="14.931369931419242"><ele>359.0</ele><time>2026-04-02T06:21:39.999Z</time></trkpt><trkpt lat="36.95022378516015" lon="14.93151043571411"><ele>359.0</ele><time>2026-04-02T06:21:40.999Z</time></trkpt><trkpt lat="36.95019810078349" lon="14.931649757736151"><ele>359.0</ele><time>2026-04-02T06:21:41.999Z</time></trkpt><trkpt lat="36.95017195003237" lon="14.931788791370906"><ele>359.0</ele><time>2026-04-02T06:21:42.999Z</time></trkpt><trkpt lat="36.9501463058003" lon="14.93192845205727"><ele>359.5</ele><time>2026-04-02T06:21:43.999Z</time></trkpt><trkpt lat="36.95012035607251" lon="14.932068370837126"><ele>360.0</ele><time>2026-04-02T06:21:44.999Z</time></trkpt><trkpt lat="36.95009888282634" lon="14.93220915242072"><ele>360.5</ele><time>2026-04-02T06:21:45.999Z</time></trkpt><trkpt lat="36.950071578401015" lon="14.932345204325598"><ele>361.0</ele><time>2026-04-02T06:21:46.999Z</time></trkpt><trkpt lat="36.950042733095444" lon="14.932478916440996"><ele>360.4</ele><time>2026-04-02T06:21:47.999Z</time></trkpt><trkpt lat="36.9500161847783" lon="14.932611935162274"><ele>359.8</ele><time>2026-04-02T06:21:48.999Z</time></trkpt><trkpt lat="36.94999161400387" lon="14.932742540331578"><ele>359.2</ele><time>2026-04-02T06:21:49.999Z</time></trkpt><trkpt lat="36.949969462164375" lon="14.932866761920756"><ele>358.59999999999997</ele><time>2026-04-02T06:21:50.999Z</time></trkpt><trkpt lat="36.94995033660631" lon="14.932986550100377"><ele>358.0</ele><time>2026-04-02T06:21:51.999Z</time></trkpt><trkpt lat="36.949934674580234" lon="14.93309214282915"><ele>358.0</ele><time>2026-04-02T06:21:52.999Z</time></trkpt><trkpt lat="36.949922348970254" lon="14.933181898974862"><ele>358.0</ele><time>2026-04-02T06:21:53.999Z</time></trkpt><trkpt lat="36.949903712540795" lon="14.933257223173607"><ele>358.0</ele><time>2026-04-02T06:21:54.999Z</time></trkpt><trkpt lat="36.949905709334125" lon="14.933372946052076"><ele>358.0</ele><time>2026-04-02T06:21:56.999Z</time></trkpt><trkpt lat="36.94979445315013" lon="14.933421668295097"><ele>358.0</ele><time>2026-04-02T06:21:58.999Z</time></trkpt><trkpt lat="36.94972895125391" lon="14.9334667166024"><ele>358.0</ele><time>2026-04-02T06:22:00.999Z</time></trkpt><trkpt lat="36.949663970017006" lon="14.933479960842932"><ele>358.0</ele><time>2026-04-02T06:22:02.999Z</time></trkpt><trkpt lat="36.94959767118612" lon="14.933521416290015"><ele>358.0</ele><time>2026-04-02T06:22:04.999Z</time></trkpt><trkpt lat="36.94950879698835" lon="14.933577483154915"><ele>358.0</ele><time>2026-04-02T06:22:06.999Z</time></trkpt><trkpt lat="36.94943967636193" lon="14.933621795325168"><ele>358.0</ele><time>2026-04-02T06:22:08.999Z</time></trkpt><trkpt lat="36.94938223471655" lon="14.933658620285692"><ele>358.0</ele><time>2026-04-02T06:22:10.999Z</time></trkpt><trkpt lat="36.949318659780886" lon="14.933699377114094"><ele>358.0</ele><time>2026-04-02T06:22:15.999Z</time></trkpt><trkpt lat="36.949086486616444" lon="14.93397564822382"><ele>358.0</ele><time>2026-04-02T06:25:24.379Z</time></trkpt><trkpt lat="36.94909500106327" lon="14.934068216375554"><ele>358.0</ele><time>2026-04-02T06:25:27.379Z</time></trkpt><trkpt lat="36.94906865098564" lon="14.934161686669453"><ele>358.0</ele><time>2026-04-02T06:25:34.379Z</time></trkpt><trkpt lat="36.94905574275912" lon="14.934247996901199"><ele>358.0</ele><time>2026-04-02T06:25:43.379Z</time></trkpt><trkpt lat="36.949041302844144" lon="14.934383384629168"><ele>358.0</ele><time>2026-04-02T06:25:44.379Z</time></trkpt><trkpt lat="36.94904701144126" lon="14.934529635333037"><ele>356.2</ele><time>2026-04-02T06:25:46.379Z</time></trkpt><trkpt lat="36.949060746312554" lon="14.934420753340174"><ele>354.4</ele><time>2026-04-02T06:25:57.378Z</time></trkpt><trkpt lat="36.949033462158475" lon="14.934314713904358"><ele>352.59999999999997</ele><time>2026-04-02T06:26:09.378Z</time></trkpt><trkpt lat="36.94898029025548" lon="14.93436611019477"><ele>350.79999999999995</ele><time>2026-04-02T06:26:19.378Z</time></trkpt><trkpt lat="36.94890190947087" lon="14.934521108439895"><ele>349.0</ele><time>2026-04-02T06:26:20.378Z</time></trkpt><trkpt lat="36.9489601865572" lon="14.93455960093339"><ele>349.0</ele><time>2026-04-02T06:27:03.378Z</time></trkpt><trkpt lat="36.949009958831574" lon="14.934610052594413"><ele>349.0</ele><time>2026-04-02T06:27:16.377Z</time></trkpt><trkpt lat="36.94895112361184" lon="14.934472965591041"><ele>349.0</ele><time>2026-04-02T06:31:12.999Z</time></trkpt><trkpt lat="36.948927941616496" lon="14.934559549190674"><ele>349.0</ele><time>2026-04-02T06:31:25.999Z</time></trkpt><trkpt lat="36.94885517540993" lon="14.934574615846634"><ele>349.0</ele><time>2026-04-02T06:31:39.999Z</time></trkpt><trkpt lat="36.948787228154664" lon="14.934585304413362"><ele>349.0</ele><time>2026-04-02T06:32:01Z</time></trkpt><trkpt lat="36.948883754784966" lon="14.934576079229299"><ele>349.0</ele><time>2026-04-02T06:35:57.999Z</time></trkpt><trkpt lat="36.948981138345175" lon="14.934575150215192"><ele>349.0</ele><time>2026-04-02T06:36:09Z</time></trkpt><trkpt lat="36.94904776334497" lon="14.93455314588014"><ele>349.0</ele><time>2026-04-02T06:37:13.999Z</time></trkpt><trkpt lat="36.949065787275636" lon="14.934450367332206"><ele>349.0</ele><time>2026-04-02T06:37:52.999Z</time></trkpt><trkpt lat="36.94897247077373" lon="14.934524720090469"><ele>349.0</ele><time>2026-04-02T06:38:13Z</time></trkpt><trkpt lat="36.949028585823044" lon="14.934471734258793"><ele>349.0</ele><time>2026-04-02T06:42:22Z</time></trkpt><trkpt lat="36.94911346655345" lon="14.934462927466688"><ele>349.0</ele><time>2026-04-02T06:42:35Z</time></trkpt><trkpt lat="36.94917002261454" lon="14.934502729243452"><ele>349.0</ele><time>2026-04-02T06:42:50Z</time></trkpt><trkpt lat="36.94918587345819" lon="14.934580094689908"><ele>349.0</ele><time>2026-04-02T06:42:57Z</time></trkpt></trkseg></trk></gpx>